[[{"header":{"parameterUnit":"m.s-1","parameterCategory":1,"la1":30.6,"la2":28.766,"lo1":-90.7593,"lo2":-88.6598,"dy":0.0162,"dx":0.0183,"nx":116,"ny":114,"refTime":"2023-05-19T12:00:00:Z","depth":0,"parameterNumber":2,"parameterNumberName":"U-component_of_WINDS"},"data":[0.0,0.0,0.0,0.0,0.0,0.0,0.0,0.0,0.0,0.0,0.0,0.0,0.0,0.0,0.0,0.0,0.0,0.0,0.0,0.0,0.0,0.0,0.0,0.0,0.0,0.0,0.0,0.0,0.0,0.0,0.0,0.0,0.0,0.0,0.0,0.0,0.0,0.0,0.0,0.0,0.0,0.0,0.0,0.0,0.0,0.0,0.0,0.0,0.0,0.0,0.0,0.0,0.0,0.0,0.0,0.0,0.0,0.0,0.0,0.0,0.0,0.0,0.0,0.0,0.0,0.0,0.0,0.0,0.0,0.0,0.0,0.0,0.0,0.0,0.0,0.0,0.0,0.0,0.0,0.0,0.0,0.0,0.0,0.0,0.0,0.0,0.0,0.0,0.0,0.0,0.0,0.0,0.0,0.0,0.0,0.0,0.0,0.0,0.0,0.0,0.0,0.0,0.0,0.0,0.0,0.0,0.0,0.0,0.0,0.0,0.0,0.0,0.0,0.0,0.0,0.0,0.0,0.0,0.0,0.0,0.0,0.0,0.0,0.0,0.0,0.0,0.0,0.0,0.0,0.0,0.0,0.0,0.0,0.0,0.0,0.0,0.0,0.0,0.0,0.0,0.0,0.0,0.0,0.0,0.0,0.0,0.0,0.0,0.0,0.0,0.0,0.0,0.0,0.0,0.0,0.0,0.0,0.0,0.0,0.0,0.0,0.0,0.0,0.0,0.0,0.0,0.0,0.0,0.0,0.0,0.0,0.0,0.0,0.0,0.0,0.0,0.0,0.0,0.0,0.0,0.0,0.0,0.0,0.0,0.0,0.0,0.0,0.0,0.0,0.0,0.0,0.0,0.0,0.0,0.0,0.0,0.0,0.0,0.0,0.0,0.0,0.0,0.0,0.0,0.0,0.0,0.0,0.0,0.0,0.0,0.0,0.0,0.0,0.0,0.0,0.0,0.0,0.0,0.0,0.0,0.0,0.0,0.0,0.0,0.0,0.0,0.0,0.0,0.0,0.0,0.0,0.0,0.0,0.0,0.0,0.0,0.0,0.0,0.0,0.0,0.0,0.0,0.0,0.0,0.0,0.0,0.0,0.0,0.0,0.0,0.0,0.0,0.0,0.0,0.0,0.0,0.0,0.0,0.0,0.0,0.0,0.0,0.0,0.0,0.0,0.0,0.0,0.0,0.0,0.0,0.0,0.0,0.0,0.0,0.0,0.0,0.0,0.0,0.0,0.0,0.0,0.0,0.0,0.0,0.0,0.0,0.0,0.0,0.0,0.0,0.0,0.0,0.0,0.0,0.0,0.0,0.0,0.0,0.0,0.0,0.0,0.0,0.0,0.0,0.0,0.0,0.0,0.0,0.0,0.0,0.0,0.0,0.0,0.0,0.0,0.0,0.0,0.0,0.0,0.0,0.0,0.0,0.0,0.0,0.0,0.0,0.0,0.0,0.0,0.0,0.0,0.0,0.0,0.0,0.0,0.0,0.0,0.0,0.0,0.0,0.0,0.0,0.0,0.0,0.0,0.0,0.0,0.0,0.0,0.0,0.0,0.0,0.0,0.0,0.0,0.0,0.0,0.0,0.0,0.0,0.0,0.0,0.0,0.0,0.0,0.0,0.0,0.0,0.0,0.0,0.0,0.0,0.0,0.0,0.0,0.0,0.0,0.0,0.0,0.0,0.0,0.0,0.0,0.0,0.0,0.0,0.0,0.0,0.0,0.0,0.0,0.0,0.0,0.0,0.0,0.0,0.0,0.0,0.0,0.0,0.0,0.0,0.0,0.0,0.0,0.0,0.0,0.0,0.0,0.0,0.0,0.0,0.0,0.0,0.0,0.0,0.0,0.0,0.0,0.0,0.0,0.0,0.0,0.0,0.0,0.0,0.0,0.0,0.0,0.0,0.0,0.0,0.0,0.0,0.0,0.0,0.0,0.0,0.0,0.0,0.0,0.0,0.0,0.0,0.0,0.0,0.0,0.0,0.0,0.0,0.0,0.0,0.0,0.0,0.0,0.0,0.0,0.0,0.0,0.0,0.0,0.0,0.0,0.0,0.0,0.0,0.0,0.0,0.0,0.0,0.0,0.0,0.0,0.0,0.0,0.0,0.0,0.0,0.0,0.0,0.0,0.0,0.0,0.0,0.0,0.0,0.0,0.0,0.0,0.0,0.0,0.0,0.0,0.0,0.0,0.0,0.0,0.0,0.0,0.0,0.0,0.0,0.0,0.0,0.0,0.0,0.0,0.0,0.0,0.0,0.0,0.0,0.0,0.0,0.0,0.0,0.0,0.0,0.0,0.0,0.0,0.0,0.0,0.0,0.0,0.0,0.0,0.0,0.0,0.0,0.0,0.0,0.0,0.0,0.0,0.0,0.0,0.0,0.0,0.0,0.0,0.0,0.0,0.0,0.0,0.0,0.0,0.0,0.0,0.0,0.0,0.0,0.0,0.0,0.0,0.0,0.0,0.0,0.0,0.0,0.0,0.0,0.0,0.0,0.0,0.0,0.0,0.0,0.0,0.0,0.0,0.0,0.0,0.0,0.0,0.0,0.0,0.0,0.0,0.0,0.0,0.0,0.0,0.0,0.0,0.0,0.0,0.0,0.0,0.0,0.0,0.0,0.0,0.0,0.0,0.0,0.0,0.0,0.0,0.0,0.0,0.0,0.0,0.0,0.0,0.0,0.0,0.0,0.0,0.0,0.0,0.0,0.0,0.0,0.0,0.0,0.0,0.0,0.0,0.0,0.0,0.0,0.0,0.0,0.0,0.0,0.0,0.0,0.0,0.0,0.0,0.0,0.0,0.0,0.0,0.0,0.0,0.0,0.0,0.0,0.0,0.0,0.0,0.0,0.0,0.0,0.0,0.0,0.0,0.0,0.0,0.0,0.0,0.0,0.0,0.0,0.0,0.0,0.0,0.0,0.0,0.0,0.0,0.0,0.0,0.0,0.0,0.0,0.0,0.0,0.0,0.0,0.0,0.0,0.0,0.0,0.0,0.0,0.0,0.0,0.0,0.0,0.0,0.0,0.0,0.0,0.0,0.0,0.0,0.0,0.0,0.0,0.0,0.0,0.0,0.0,0.0,0.0,0.0,0.0,0.0,0.0,0.0,0.0,0.0,0.0,0.0,0.0,0.0,0.0,0.0,0.0,0.0,0.0,0.0,0.0,0.0,0.0,0.0,0.0,0.0,0.0,0.0,0.0,0.0,0.0,0.0,0.0,0.0,0.0,0.0,0.0,0.0,0.0,0.0,0.0,0.0,0.0,0.0,0.0,0.0,0.0,0.0,0.0,0.0,0.0,0.0,0.0,0.0,0.0,0.0,0.0,0.0,0.0,0.0,0.0,0.0,0.0,0.0,0.0,0.0,0.0,0.0,0.0,0.0,0.0,0.0,0.0,0.0,0.0,0.0,0.0,0.0,0.0,0.0,0.0,0.0,0.0,0.0,0.0,0.0,0.0,0.0,0.0,0.0,0.0,0.0,0.0,0.0,0.0,0.0,0.0,0.0,0.0,0.0,0.0,0.0,0.0,0.0,0.0,0.0,0.0,0.0,0.0,0.0,0.0,0.0,0.0,0.0,0.0,0.0,0.0,0.0,0.0,0.0,0.0,0.0,0.0,0.0,0.0,0.0,0.0,0.0,0.0,0.0,0.0,0.0,0.0,0.0,0.0,0.0,0.0,0.0,0.0,0.0,0.0,0.0,0.0,0.0,0.0,0.0,0.0,0.0,0.0,0.0,0.0,0.0,0.0,0.0,0.0,0.0,0.0,0.0,0.0,0.0,0.0,0.0,0.0,0.0,0.0,0.0,0.0,0.0,0.0,0.0,0.0,0.0,0.0,0.0,0.0,0.0,0.0,0.0,0.0,0.0,0.0,0.0,0.0,0.0,0.0,0.0,0.0,0.0,0.0,0.0,0.0,0.0,0.0,0.0,0.0,0.0,0.0,0.0,0.0,0.0,0.0,0.0,0.0,0.0,0.0,0.0,0.0,0.0,0.0,0.0,0.0,0.0,0.0,0.0,0.0,0.0,0.0,0.0,0.0,0.0,0.0,0.0,0.0,0.0,0.0,0.0,0.0,0.0,0.0,0.0,0.0,0.0,0.0,0.0,0.0,0.0,0.0,0.0,0.0,0.0,0.0,0.0,0.0,0.0,0.0,0.0,0.0,0.0,0.0,0.0,0.0,0.0,0.0,0.0,0.0,0.0,0.0,0.0,0.0,0.0,0.0,0.0,0.0,0.0,0.0,0.0,0.0,0.0,0.0,0.0,0.0,0.0,0.0,0.0,0.0,0.0,0.0,0.0,0.0,0.0,0.0,0.0,0.0,0.0,0.0,0.0,0.0,0.0,0.0,0.0,0.0,0.0,0.0,0.0,0.0,0.0,0.0,0.0,0.0,0.0,0.0,0.0,0.0,0.0,0.0,0.0,0.0,0.0,0.0,0.0,0.0,0.0,0.0,0.0,0.0,0.0,0.0,0.0,0.0,0.0,0.0,0.0,0.0,0.0,0.0,0.0,0.0,0.0,0.0,0.0,0.0,0.0,0.0,0.0,0.0,0.0,0.0,0.0,0.0,0.0,0.0,0.0,0.0,0.0,0.0,0.0,0.0,0.0,0.0,0.0,0.0,0.0,0.0,0.0,0.0,0.0,0.0,0.0,0.0,0.0,0.0,0.0,0.0,0.0,0.0,0.0,0.0,0.0,0.0,0.0,0.0,0.0,0.0,0.0,0.0,0.0,0.0,0.0,0.0,0.0,0.0,0.0,0.0,0.0,0.0,0.0,0.0,0.0,0.0,0.0,0.0,0.0,0.0,0.0,0.0,0.0,0.0,0.0,0.0,0.0,0.0,0.0,0.0,0.0,0.0,0.0,0.0,0.0,0.0,0.0,0.0,0.0,0.0,0.0,0.0,0.0,0.0,0.0,0.0,0.0,0.0,0.0,0.0,0.0,0.0,0.0,0.0,0.0,0.0,0.0,0.0,0.0,0.0,0.0,0.0,0.0,0.0,0.0,0.0,0.0,0.0,0.0,0.0,0.0,0.0,0.0,0.0,0.0,0.0,0.0,0.0,0.0,0.0,0.0,0.0,0.0,0.0,0.0,0.0,0.0,0.0,0.0,0.0,0.0,0.0,0.0,0.0,0.0,0.0,0.0,0.0,0.0,0.0,0.0,0.0,0.0,0.0,0.0,0.0,0.0,0.0,0.0,0.0,0.0,0.0,0.0,0.0,0.0,0.0,0.0,0.0,0.0,0.0,0.0,0.0,0.0,0.0,0.0,0.0,0.0,0.0,0.0,0.0,0.0,0.0,0.0,0.0,0.0,0.0,0.0,0.0,0.0,0.0,0.0,0.0,0.0,0.0,0.0,0.0,0.0,0.0,0.0,0.0,0.0,0.0,0.0,0.0,0.0,0.0,0.0,0.0,0.0,0.0,0.0,0.0,0.0,0.0,0.0,0.0,0.0,0.0,0.0,0.0,0.0,0.0,0.0,0.0,0.0,0.0,0.0,0.0,0.0,0.0,0.0,0.0,0.0,0.0,0.0,0.0,0.0,0.0,0.0,0.0,0.0,0.0,0.0,0.0,0.0,0.0,0.0,0.0,0.0,0.0,0.0,0.0,0.0,0.0,0.0,0.0,0.0,0.0,0.0,0.0,0.0,0.0,0.0,0.0,0.0,0.0,0.0,0.0,0.0,0.0,0.0,0.0,0.0,0.0,0.0,0.0,0.0,0.0,0.0,0.0,0.0,0.0,0.0,0.0,0.0,0.0,0.0,0.0,0.0,0.0,0.0,0.0,0.0,0.0,0.0,0.0,0.0,0.0,0.0,0.0,0.0,0.0,0.0,0.0,0.0,0.0,0.0,0.0,0.0,0.0,0.0,0.0,0.0,0.0,0.0,0.0,0.0,0.0,0.0,0.0,0.0,0.0,0.0,0.0,0.0,0.0,0.0,0.0,0.0,0.0,0.0,0.0,0.0,0.0,0.0,0.0,0.0,0.0,0.0,0.0,0.0,0.0,0.0,0.0,0.0,0.0,0.0,0.0,0.0,0.0,0.0,0.0,0.0,0.0,0.0,0.0,0.0,0.0,0.0,0.0,0.0,0.0,-0.4535,-0.4783,0.0,0.0,0.0,0.0,0.0,0.0,0.0,0.0,0.0,0.0,0.0,0.0,0.0,0.0,0.0,0.0,0.0,0.0,0.0,0.0,0.0,0.0,0.0,0.0,0.0,0.0,0.0,0.0,0.0,0.0,0.0,0.0,0.0,0.0,0.0,0.0,0.0,0.0,0.0,0.0,0.0,0.0,0.0,0.0,0.0,0.0,0.0,0.0,0.0,0.0,0.0,0.0,0.0,0.0,0.0,0.0,0.0,0.0,0.0,0.0,0.0,0.0,0.0,0.0,0.0,0.0,0.0,0.0,0.0,0.0,0.0,0.0,0.0,0.0,0.0,0.0,0.0,0.0,0.0,0.0,0.0,0.0,0.0,0.0,0.0,0.0,0.0,0.0,0.0,0.0,0.0,0.0,0.0,0.0,0.0,0.0,0.0,0.0,0.0,0.0,0.0,0.0,0.0,0.0,0.0,0.0,0.0,0.0,0.0,0.0,0.0,0.0,0.0,0.0,-0.498,-0.5835,0.0,0.0,0.0,0.0,0.0,0.0,0.0,0.0,0.0,0.0,0.0,0.0,0.0,0.0,0.0,0.0,0.0,0.0,0.0,0.0,0.0,0.0,0.0,0.0,0.0,0.0,0.0,0.0,0.0,0.0,0.0,0.0,0.0,0.0,0.0,0.0,0.0,0.0,0.0,0.0,0.0,0.0,0.0,0.0,0.0,0.0,0.0,0.0,0.0,0.0,0.0,0.0,0.0,0.0,0.0,0.0,0.0,0.0,0.0,0.0,0.0,0.0,0.0,0.0,0.0,0.0,0.0,0.0,0.0,0.0,0.0,0.0,0.0,0.0,0.0,0.0,0.0,0.0,0.0,0.0,0.0,0.0,0.0,0.0,0.0,0.0,0.0,0.0,0.0,0.0,0.0,0.0,0.0,0.0,0.0,0.0,0.0,0.0,0.0,0.0,0.0,0.0,0.0,0.0,0.0,0.0,0.0,0.0,0.1194,-0.0187,-0.1863,-0.3296,-0.4634,-0.5827,-0.5816,-0.7395,-0.9925,-0.9761,0.0,0.0,0.0,0.0,0.0,0.0,0.0,0.0,0.0,0.0,0.0,0.0,0.0,0.0,0.0,0.0,0.0,0.0,0.0,0.0,0.0,0.0,0.0,0.0,0.0,0.0,0.0,0.0,0.0,0.0,0.0,0.0,0.0,0.0,0.0,0.0,0.0,0.0,-0.9581,-0.9767,-0.9853,-0.9878,-0.9995,0.0,0.0,0.0,0.0,0.0,0.0,0.0,0.0,0.0,0.0,0.0,0.0,0.0,0.0,0.0,0.0,0.0,0.0,0.0,0.0,0.0,0.0,0.0,0.0,0.0,0.0,0.0,0.0,0.0,0.0,0.0,0.0,0.0,0.0,0.0,0.0,0.0,0.0,0.0,0.0,0.0,0.0,0.0,-1.6441,-1.6356,0.0,0.0,0.0,0.0,0.0,0.0,0.0,0.0,0.0,0.0,0.0,0.0,0.0,-0.7107,-0.7031,-0.4814,-0.3231,-0.2344,-0.3534,-0.4137,-0.4246,-0.4706,-0.659,-0.9494,-0.9507,0.0,-1.0044,-0.9803,0.0,0.0,0.0,0.0,0.0,0.0,0.0,0.0,0.0,0.0,0.0,0.0,0.0,0.0,0.0,0.0,0.0,0.0,0.0,0.0,0.0,0.0,0.0,0.0,0.0,0.0,0.0,0.0,0.0,0.0,0.0,0.0,0.0,0.0,0.0,0.0,-0.8966,-0.9232,-0.9417,-0.9449,-0.9462,-0.9467,-0.9268,-0.9084,-0.8835,-0.7862,0.0,0.0,0.0,0.0,0.0,0.0,0.0,0.0,0.0,0.0,0.0,0.0,0.0,0.0,0.0,0.0,0.0,0.0,0.0,0.0,0.0,0.0,0.0,0.0,0.0,0.0,0.0,0.0,0.0,0.0,0.0,0.0,0.0,0.0,0.0,0.0,0.0,0.0,0.0,-1.8745,-1.7866,-1.7278,-1.5221,-1.3677,0.0,0.0,0.0,0.0,0.0,0.0,0.0,0.0,0.0,-1.2044,-1.0999,-1.0316,-1.0088,-0.7727,-0.6249,-0.5675,-0.6213,-0.6587,-0.6833,-0.6954,-0.7868,-0.9361,-0.9522,-0.9629,-0.9702,-0.9575,-0.968,-0.9906,0.0,0.0,0.0,0.0,-1.6386,-1.8526,0.0,0.0,0.0,0.0,0.0,0.0,0.0,0.0,0.0,0.0,0.0,0.0,0.0,0.0,0.0,0.3708,0.0,0.0,0.0,0.0,0.0,0.0,0.0,0.0,0.0,0.0,0.0,-0.8768,-0.8695,-0.8728,-0.8895,-0.8947,-0.8953,-0.8892,-0.8388,-0.8532,-0.9076,-0.766,-0.6513,0.0,0.0,0.0,0.0,0.0,0.0,0.0,0.0,0.0,0.0,0.0,0.0,0.0,0.0,0.0,0.0,0.0,0.0,0.0,0.0,0.0,0.0,0.0,0.0,0.0,0.0,0.0,0.0,0.0,0.0,0.0,0.0,0.0,0.0,0.0,0.0,0.0,0.0,-2.0423,-1.9386,-1.8252,-1.6182,-1.448,0.0,0.0,0.0,0.0,0.0,0.0,-1.2644,-1.3109,-1.3588,-1.4065,-1.3377,-1.2832,-1.2535,-1.0116,-0.8724,-0.8401,-0.8247,-0.8459,-0.8955,-0.8877,-0.8576,-0.8113,-0.8407,-0.8671,-0.89,-0.905,-0.9322,-0.9677,-0.9867,-1.0073,-1.0661,-1.4053,-1.7248,-2.0363,0.0,0.0,0.0,0.0,0.0,0.0,0.0,0.0,0.0,0.0,0.0,0.0,0.0,0.0,0.4173,0.3394,0.3127,0.2681,0.0,0.0,0.0,0.0,0.0,0.0,0.0,0.0,0.0,-0.8142,-0.819,-0.8175,-0.8067,-0.8246,-0.8281,-0.8134,-0.772,-0.7398,-0.7087,-0.6244,-0.509,-0.3706,0.0,0.0,0.0,0.0,0.0,0.0,0.0,0.0,0.0,0.0,0.0,0.0,0.0,0.0,0.0,0.0,0.0,0.0,0.0,0.0,0.0,0.0,0.0,0.0,0.0,0.0,0.0,0.0,0.0,0.0,0.0,0.0,0.0,0.0,0.0,0.0,0.0,0.0,0.0,-1.9939,-1.7927,0.0,0.0,0.0,0.0,-1.0556,-0.973,-1.0084,-1.1954,-1.2489,-1.3389,-1.4809,-1.4132,-1.3823,-1.3997,-1.2409,-1.1249,-1.0552,-1.003,-0.9931,-1.0191,-0.9955,-0.8575,-0.6441,-0.6848,-0.7205,-0.7531,-0.8118,-0.8693,-0.9247,-0.9456,-0.9763,-1.0528,-1.402,-1.7125,-2.0033,0.0,0.0,0.0,0.0,0.0,0.0,0.0,0.0,0.0,0.0,0.0,0.0,0.0,0.447,0.4074,0.3656,0.3195,0.2697,0.213,0.0,0.0,0.0,0.0,0.0,0.0,0.0,-0.6226,-0.7399,-0.6857,-0.6828,-0.7294,-0.7282,-0.7342,-0.7417,-0.6625,-0.6115,-0.583,-0.5623,-0.526,-0.4637,-0.292,-0.1548,0.0,0.0,0.0,0.0,0.0,0.0,0.0,0.0,0.0,0.0,0.0,0.0,0.0,0.0,0.0,0.0,0.0,0.0,0.0,0.0,0.0,0.0,0.0,0.0,0.0,0.0,0.0,0.0,0.0,0.0,0.0,0.0,0.0,0.0,0.0,0.0,0.0,-2.0303,-1.7778,0.0,-1.4845,-1.2942,-1.1295,-1.0211,-0.9984,-1.0208,-1.0815,-1.1643,-1.2706,-1.4008,-1.4016,-1.379,-1.339,-1.3407,-1.2661,-1.1216,-1.1031,-1.0976,-1.0996,-0.9053,-0.7691,-0.691,-0.7481,-0.8134,-0.8748,-0.8787,-0.9739,-1.1138,-1.1352,-1.1812,-1.2841,-1.6894,-2.0516,-2.3479,0.0,0.0,0.0,0.0,0.0,0.0,0.0,0.0,0.0,0.0,0.0,0.4941,0.4837,0.4504,0.4155,0.3884,0.3628,0.3201,0.2551,0.0,0.0,0.0,0.0,0.0,0.0,-0.4817,-0.5115,-0.6386,-0.56,-0.5505,-0.6064,-0.6006,-0.6074,-0.6219,-0.5603,-0.5099,-0.4733,-0.4776,-0.4703,-0.4479,-0.3605,-0.2624,-0.167,0.0,0.0,0.0,0.0,0.0,0.0,0.0,0.0,0.0,0.0,0.0,0.0,0.0,0.0,0.0,0.0,0.0,0.0,0.0,0.0,0.0,0.0,0.0,0.0,0.0,0.0,0.0,0.0,0.0,0.0,0.0,0.0,0.0,0.0,-2.2778,-2.1396,-2.0527,-1.8063,-1.5963,-1.4617,-1.2801,-1.1039,-0.9385,-0.8986,-0.9129,-0.9868,-1.029,-1.1561,-1.3771,-1.3765,-1.3473,-1.2971,-1.329,-1.2659,-1.1099,-1.1099,-1.1023,-1.0812,-0.8092,-0.7191,-0.781,-0.7975,-0.8448,-0.914,-0.9392,-1.0631,-1.2459,-1.3382,-1.4284,-1.5558,-2.0006,-2.33,-2.5626,0.0,0.0,0.0,0.0,0.0,0.0,0.0,0.0,0.0,0.0,0.5109,0.5084,0.4959,0.4755,0.4476,0.4096,0.4394,0.4194,0.3192,0.269,0.0,0.0,0.0,0.0,-0.5049,-0.4913,-0.4922,-0.5133,-0.4521,-0.4244,-0.4321,-0.4478,-0.4535,-0.4563,-0.4695,-0.4393,-0.3771,-0.3617,-0.3286,-0.2955,-0.4312,-0.3773,-0.2354,0.0,0.0,0.0,0.0,0.0,0.0,0.0,0.0,0.0,0.0,0.0,0.0,0.0,0.0,0.0,0.0,0.0,0.0,0.0,0.0,0.0,0.0,0.0,0.0,0.0,0.0,0.0,0.0,0.0,0.0,0.0,0.0,0.0,-2.4526,-2.37,-2.2528,-2.0667,-1.8967,-1.7027,-1.454,-1.2628,-1.0517,-0.8198,-0.6552,-0.6711,-0.9037,-0.8444,-0.9907,-1.3983,-1.3392,-1.2974,-1.2952,-1.2192,-1.1335,-1.0361,-1.0234,-0.9967,-0.9551,-0.7298,-0.7209,-0.888,-0.8055,-0.7957,-0.8496,-0.9765,-1.1217,-1.2896,-1.5271,-1.6841,-1.8361,-2.2992,-2.5111,-2.6074,0.0,0.0,0.0,0.0,0.0,0.0,0.0,0.0,0.0,0.0,0.5496,0.5853,0.59,0.5683,0.5471,0.5316,0.5049,0.4581,0.3869,0.0,0.0,0.0,0.0,0.0,-0.4427,-0.3417,-0.3131,-0.368,-0.2776,-0.2433,-0.2589,-0.2969,-0.3266,-0.346,-0.364,-0.3492,-0.3132,-0.2793,-0.2251,-0.1733,-0.3373,-0.3934,-0.397,0.0,0.0,0.0,0.0,0.0,0.0,0.0,0.0,0.0,0.0,0.0,0.0,0.0,0.0,0.0,0.0,0.0,0.0,0.0,0.0,0.0,0.0,0.0,0.0,0.0,0.0,0.0,0.0,0.0,0.0,0.0,-2.5573,-2.5138,-2.5168,-2.3921,-2.2586,-2.1549,-1.9091,-1.6789,-1.4903,-1.2869,-1.0651,-0.8238,-0.6349,-0.5458,-0.5931,-0.6213,-0.7499,-1.0045,-1.2113,-1.353,-1.4111,-1.2724,-1.1875,-1.1547,-0.8693,-0.7522,-0.7791,-0.7547,-0.7261,-0.6985,-0.7603,-0.8236,-0.8862,-0.9217,-1.0514,-1.2496,-1.4676,-1.647,-1.8356,-2.2887,-2.5033,-2.611,0.0,0.0,0.0,0.0,0.0,0.0,0.0,0.0,0.0,0.0,0.5703,0.6154,0.6512,0.6495,0.6301,0.592,0.5618,0.5012,0.3959,0.0,0.0,0.0,0.0,-0.2789,-0.344,-0.2338,-0.1928,-0.2273,-0.1178,-0.0749,-0.0934,-0.115,-0.1425,-0.1731,-0.2146,-0.2158,-0.1858,-0.1911,-0.1236,-0.0289,-0.2067,-0.3283,-0.4269,-0.6451,-0.838,-1.003,-1.0905,-1.2036,-1.3053,-1.2517,0.0,0.0,0.0,0.0,0.0,0.0,0.0,0.0,0.0,0.0,0.0,0.0,0.0,0.0,0.0,0.0,0.0,0.0,0.0,0.0,0.0,0.0,0.0,0.0,-2.5227,-2.4821,-2.4891,-2.3994,-2.2983,-2.2088,-1.9603,-1.7303,-1.5492,-1.3303,-1.0965,-0.8423,-0.6184,-0.4687,-0.4141,-0.4622,-0.6157,-0.9004,-1.1025,-1.2698,-1.3989,-1.2435,-1.149,-1.0998,-0.7747,-0.6109,-0.6046,-0.6707,-0.6712,-0.6273,-0.7192,-0.8094,-0.892,-0.8981,-1.003,-1.1811,0.0,0.0,0.0,0.0,-2.6139,-2.7835,0.0,0.0,0.0,0.0,0.0,0.0,0.0,0.0,0.0,0.0,0.0,0.6233,0.6825,0.7077,0.6912,0.6188,0.603,0.5287,0.0,0.0,0.0,-0.0325,-0.1218,-0.1869,-0.2276,-0.1581,-0.1111,-0.0933,0.0201,0.0708,0.0632,0.0715,0.0607,0.0282,-0.0424,-0.0562,-0.0282,-0.0879,-0.018,0.118,-0.0499,-0.202,-0.359,-0.6307,-0.8585,-1.0475,-1.1523,-1.2912,-1.4276,-1.4448,0.0,0.0,0.0,0.0,0.0,0.0,0.0,0.0,0.0,0.0,0.0,0.0,0.0,0.0,0.0,0.0,0.0,0.0,0.0,0.0,0.0,0.0,0.0,0.0,-2.5129,-2.4716,-2.4019,-2.3836,-2.3393,-2.2283,-2.0266,-1.8165,-1.6158,-1.3919,-1.1478,-0.8708,-0.6263,-0.4408,-0.3307,-0.3599,0.0,0.0,0.0,-1.1254,-1.2998,-1.1783,-1.0546,-0.94,-0.7351,-0.575,-0.4752,-0.5428,-0.5896,-0.6209,-0.681,-0.7652,-0.8657,-0.8946,-0.9851,-1.1303,-1.3998,-1.7968,-2.2436,-2.4833,-2.7585,-2.9982,0.0,0.0,0.0,0.0,0.0,0.0,0.0,0.0,0.0,0.5439,0.6119,0.6638,0.688,0.7029,0.7082,0.6967,0.5797,0.4707,0.0,0.0,0.1446,0.1108,-0.0196,-0.1128,-0.1579,-0.0978,-0.0411,0.011,0.078,0.1408,0.2017,0.1869,0.1755,0.1601,0.1038,0.0757,0.0709,0.0542,0.1093,0.2007,0.1172,-0.0317,-0.2404,-0.567,-0.7898,-0.9569,-1.1755,-1.2878,-1.3454,-1.4185,-1.3775,-1.3094,-1.3741,0.0,0.0,0.0,0.0,0.0,0.0,0.0,0.0,0.0,0.0,0.0,0.0,0.0,0.0,0.0,0.0,0.0,0.0,0.0,0.0,-2.4839,-2.474,-2.4417,-2.3488,-2.3252,-2.2857,-2.205,-1.9969,-1.7981,-1.6525,-1.4543,-1.2184,-0.9426,-0.724,-0.5113,-0.313,-0.4096,-0.6065,-0.9134,-1.0055,-1.0907,-1.1851,-1.157,-1.0377,-0.8278,-0.7542,0.0,-0.6151,-0.5632,-0.5614,-0.5996,-0.6598,-0.7087,-0.7546,-0.8891,-1.0445,-1.2187,-1.5403,-1.9829,-2.4482,-2.5371,-2.691,-2.8663,0.0,0.0,0.0,0.0,0.0,0.0,0.0,0.0,0.0,0.0,0.5777,0.6322,0.6796,0.6996,0.6933,0.6483,0.4894,0.0,0.0,0.1998,0.1413,0.1345,0.0299,-0.0354,-0.0497,-0.0049,0.0474,0.1047,0.179,0.2457,0.305,0.3013,0.2989,0.2922,0.249,0.2142,0.1844,0.1817,0.2302,0.3052,0.2443,0.1598,0.03,-0.3442,-0.6025,-0.7986,-1.0192,-1.1581,-1.2419,-1.2884,-1.2734,-1.2419,-1.2812,-1.2304,-1.1666,0.0,0.0,0.0,0.0,0.0,0.0,0.0,0.0,0.0,0.0,0.0,0.0,0.0,0.0,-2.4667,-2.4401,0.0,-2.5008,-2.4505,-2.4051,-2.3491,-2.2606,-2.1924,-2.147,-2.1436,-1.9761,-1.8003,-1.6468,-1.4585,-1.2365,-0.968,-0.758,-0.5709,-0.3903,-0.4478,-0.6194,-0.9239,-0.9902,-1.063,-1.1471,-1.1235,-1.0296,-0.8748,-0.7845,-0.7083,-0.6299,-0.5509,-0.5324,-0.5698,-0.6346,-0.6797,-0.7292,-0.9961,-1.2351,-1.455,-1.7223,-2.1007,-2.5089,-2.588,-2.7102,-2.8575,0.0,0.0,0.0,0.0,0.0,0.0,0.0,0.0,0.0,0.0,0.5284,0.5824,0.6514,0.6724,0.6367,0.0,0.0,0.0,0.0,0.1445,0.1228,0.1218,0.0626,0.0377,0.0579,0.0837,0.123,0.1786,0.2574,0.3176,0.3585,0.3798,0.3907,0.3953,0.3693,0.3379,0.3034,0.2995,0.3402,0.3989,0.3494,0.3271,0.285,-0.0841,-0.3784,-0.6217,-0.8389,-1.0039,-1.1262,-1.1553,-1.1586,-1.1491,-1.168,-1.1638,-1.1622,-1.2099,-1.2457,0.0,0.0,0.0,0.0,0.0,0.0,0.0,0.0,-2.2162,-2.2743,-2.332,-2.3724,-2.396,-2.3919,-2.3962,-2.3919,-2.3677,-2.3051,-2.2295,-2.1566,-2.0581,-2.006,-2.0329,-1.9146,-1.7734,-1.6187,-1.4472,-1.2334,-0.9717,-0.7812,-0.6135,-0.4819,-0.4847,-0.6193,-0.9045,-0.9704,-1.0456,-1.1346,-1.097,-1.0271,-0.9403,-0.8138,-0.7056,-0.6065,-0.5465,-0.5207,-0.5357,-0.6147,-0.689,-0.7741,-1.1022,-1.3971,-1.6661,-1.8835,-2.1746,-2.4879,-2.6135,-2.742,-2.8722,0.0,0.0,0.0,0.0,0.0,0.0,0.0,0.0,0.0,0.0,0.0,0.0,0.0,0.0,0.0,0.0,0.0,0.0,0.1699,0.1409,0.1298,0.1292,0.1087,0.106,0.1194,0.1165,0.1455,0.2069,0.2338,0.2714,0.3171,0.36,0.3937,0.4173,0.4263,0.4262,0.4204,0.4082,0.4214,0.4522,0.4372,0.4116,0.3541,0.1067,-0.1712,-0.4659,-0.7616,-0.9175,-1.0008,-1.114,-1.0977,-1.0485,-1.1545,-1.1432,-1.0995,-1.1529,-1.2176,-1.2706,-1.2669,-1.3859,-1.5685,-1.8162,-1.8842,-1.9543,0.0,-2.2481,-2.2658,-2.3112,-2.3563,-2.3636,-2.2972,-2.2925,-2.2692,-2.1754,-2.1499,-2.1101,-2.0307,-1.9887,-1.9226,-1.8118,-1.7501,-1.6795,-1.5846,-1.4221,-1.2212,-0.9857,-0.8093,-0.6551,-0.5183,-0.5225,-0.6154,-0.7829,-0.9366,-1.045,-1.0931,-1.0942,-1.0294,-0.8952,-0.8123,-0.7098,-0.6102,-0.5894,-0.5494,-0.5011,-0.6271,-0.7561,-0.8967,-1.1081,-1.3648,-1.6528,-1.9564,-2.1962,-2.3989,-2.5903,-2.7142,-2.8256,0.0,0.0,0.0,0.0,0.0,0.0,0.0,0.0,0.0,0.0,0.0,0.0,0.0,0.0,0.0,0.0,0.0,0.0,0.1368,0.1187,0.1134,0.1116,0.0988,0.0977,0.1076,0.1264,0.1538,0.1871,0.2394,0.2846,0.3289,0.3559,0.3901,0.4261,0.4148,0.4053,0.3939,0.3927,0.3953,0.3999,0.386,0.3605,0.3095,0.1046,-0.1051,-0.3264,-0.6079,-0.7721,0.0,0.0,-0.9247,-0.9407,-0.9744,-0.9896,-1.0051,-1.0752,-1.1505,-1.2423,-1.3799,-1.4912,-1.6077,-1.7718,-1.8949,-2.0084,-2.1508,-2.2111,-2.2535,-2.3058,-2.3397,-2.3396,-2.2667,-2.2556,-2.2254,-2.1296,-2.0699,-2.0216,-1.966,-1.8958,-1.8213,-1.7478,-1.6687,-1.574,-1.4532,-1.3371,-1.1742,-0.9488,-0.8148,-0.6936,-0.5641,-0.5912,-0.6682,-0.7694,-0.9349,-1.0312,-1.0627,-1.0768,-1.0213,-0.8928,-0.8145,-0.7309,-0.6404,-0.594,-0.568,-0.5728,-0.6677,-0.7997,-0.9622,-1.1786,-1.4147,-1.6656,-1.944,-2.1597,-2.3379,-2.5901,-2.7279,-2.8315,0.0,0.0,0.0,0.0,0.0,0.0,0.0,0.0,0.0,0.0,0.0,0.0,0.0,0.0,0.0,0.0,0.0,0.0,0.0,0.0956,0.0941,0.0937,0.0951,0.0959,0.1005,0.136,0.1636,0.1768,0.2386,0.2863,0.3249,0.3407,0.3675,0.4023,0.3871,0.3709,0.3612,0.3573,0.3499,0.3367,0.3102,0.2713,0.2117,0.0588,-0.0917,-0.2482,-0.4816,-0.6294,0.0,0.0,-0.7504,-0.8013,-0.8153,-0.855,-0.9171,-1.0222,-1.1087,-1.2163,-1.4261,-1.5302,-1.6149,-1.7541,-1.904,-2.0425,-2.1357,-2.1917,-2.2384,-2.2895,-2.3091,-2.2929,-2.2166,-2.1834,-2.1416,-2.0582,-2.002,-1.9476,-1.8896,-1.8286,-1.7675,-1.7027,-1.6126,-1.4982,-1.3777,-1.281,-1.1447,-0.9378,-0.8339,-0.7302,-0.626,-0.6535,-0.7129,-0.8024,-0.9238,-1.0118,-1.0539,-1.0462,-1.0018,-0.9071,-0.8275,-0.7588,-0.6868,-0.6225,-0.6073,-0.6384,-0.725,-0.8546,-1.0171,-1.2484,-1.4763,-1.6996,-1.9451,-2.1387,-2.3182,-2.574,-2.72,-2.8379,0.0,0.0,0.0,0.0,0.0,0.0,0.0,0.0,0.0,0.0,0.0,0.0,0.0,0.0,0.0,0.0,0.0,0.0,0.0,0.0734,0.0807,0.0801,0.1117,0.1284,0.1286,0.1556,0.1782,0.2004,0.2282,0.2543,0.2815,0.3072,0.3261,0.3347,0.3445,0.3538,0.3593,0.3334,0.3066,0.278,0.2385,0.163,0.0685,-0.0025,-0.1164,-0.2604,-0.4171,0.0,0.0,-0.6009,-0.6064,-0.6183,-0.7284,-0.7855,-0.8458,-1.0112,-1.1127,-1.1984,-1.3305,-1.4341,-1.5623,-1.8057,-1.9246,-2.0256,-2.1896,-2.2176,-2.2254,-2.2712,-2.2517,-2.1982,-2.1182,-2.0462,-1.9732,-1.9049,-1.9239,-1.8998,-1.7811,-1.8041,-1.7821,-1.6557,-1.5705,-1.4874,-1.4085,-1.294,-1.1578,-0.9901,-0.8672,-0.7772,-0.7209,-0.7003,-0.7456,-0.863,-0.9014,-0.9734,-1.0811,-1.0118,-0.9631,-0.9276,-0.8622,-0.7989,-0.7451,-0.6985,-0.674,-0.6753,-0.8031,-0.9274,-1.057,-1.3064,-1.5365,-1.7589,-1.9756,-2.1675,-2.35,-2.5208,-2.6709,-2.8291,0.0,0.0,0.0,0.0,0.0,0.0,0.0,0.0,0.0,0.0,0.0,0.0,0.0,0.0,0.0,0.0,0.0,0.0,0.0,0.0599,0.0642,0.0602,0.0961,0.1176,0.1163,0.1568,0.1794,0.1877,0.2176,0.2462,0.2671,0.3025,0.3199,0.3225,0.3333,0.3269,0.311,0.2672,0.2317,0.2026,0.1336,0.0663,-0.0029,-0.0654,-0.1289,-0.1906,0.0,0.0,-0.4428,-0.4338,-0.4841,-0.5651,-0.6536,-0.7372,-0.8471,-1.0639,-1.1423,-1.1924,-1.361,-1.4965,-1.6123,-1.6903,-1.8092,-1.9333,-2.0339,-2.0502,-2.0582,-2.1029,-2.1275,-2.1161,-2.041,-2.0186,-1.9879,-1.9147,-1.8787,-1.8486,-1.8157,-1.7897,-1.7576,-1.7201,-1.6522,-1.569,-1.4551,-1.3235,-1.1888,-1.0703,-0.9506,-0.849,-0.7582,-0.7587,-0.7846,-0.8307,-0.9003,-0.9649,-1.0251,-0.9979,-0.9552,-0.9043,-0.8405,-0.7907,-0.7487,-0.7634,-0.7715,-0.774,-0.8985,-1.0229,-1.1567,-1.3822,-1.5773,-1.752,-2.0001,-2.1625,-2.2842,-2.5097,-2.6792,-2.8281,0.0,0.0,0.0,0.0,0.0,0.0,0.0,0.0,0.0,0.0,0.0,0.0,0.0,0.0,0.0,0.0,0.0,0.0586,0.0,0.0,0.0571,0.0572,0.0814,0.1109,0.1409,0.1485,0.1679,0.2018,0.2198,0.2492,0.2851,0.3227,0.3414,0.3419,0.3481,0.3313,0.2934,0.2536,0.1987,0.1289,0.0374,-0.0249,-0.0686,-0.1076,-0.1333,0.0,0.0,0.0,-0.2138,-0.2281,-0.3159,-0.4378,-0.5416,-0.7283,-0.9347,-1.0811,-1.1426,-1.1937,-1.3394,-1.4806,-1.5931,-1.6182,-1.7417,-1.8776,-1.9468,-1.958,-1.9665,-2.0134,-2.0365,-2.0274,-1.9567,-1.9404,-1.9273,-1.887,-1.8464,-1.8221,-1.8338,-1.7977,-1.7654,-1.7503,-1.697,-1.6218,-1.5206,-1.3768,-1.2504,-1.1337,-1.0148,-0.9075,-0.8231,-0.8177,-0.828,-0.856,-0.9031,-0.9556,-1.0251,-0.9967,-0.9633,-0.9327,-0.8851,-0.8487,-0.8166,-0.8574,-0.8758,-0.8747,-0.9881,-1.1123,-1.2493,-1.4519,-1.6378,-1.8136,-2.0431,-2.1935,-2.3033,-2.4904,-2.6618,-2.8259,0.0,0.0,0.0,0.0,0.0,0.0,0.0,0.0,0.0,0.0,0.0,0.0,0.0,0.0,0.0,0.0,0.0,0.0,0.0,0.0,0.0,0.0689,0.0711,0.112,0.1949,0.135,0.1474,0.2371,0.2344,0.2661,0.3293,0.366,0.3799,0.382,0.387,0.3586,0.3053,0.2803,0.1934,0.0666,-0.0488,-0.1077,-0.1311,-0.1309,0.0,0.0,0.0,0.0,0.0944,-0.0056,-0.1294,-0.2667,-0.4231,-0.7594,-1.0908,-1.072,-1.1209,-1.1978,-1.2759,-1.3955,-1.5172,-1.5906,-1.7252,-1.8578,-1.9264,-1.9356,-1.9435,-1.9894,-1.9739,-1.9323,-1.8659,-1.8238,-1.802,-1.8267,-1.8219,-1.8234,-1.8262,-1.8226,-1.8034,-1.7519,-1.694,-1.6327,-1.5861,-1.4505,-1.3149,-1.1896,-1.0591,-0.9594,-0.9034,-0.8711,-0.8761,-0.9349,-0.9159,-0.9586,-1.0798,-1.0172,-0.9959,-1.0079,-0.9925,-0.9688,-0.9446,-0.9729,-0.9799,-0.9681,-1.0653,-1.1877,-1.3287,-1.5101,-1.717,-1.9321,-2.0917,-2.2492,-2.3928,-2.4593,-2.6184,-2.8156,0.0,0.0,0.0,0.0,0.0,0.0,0.0,0.0,0.0,0.0,0.0,0.0,0.0,0.0,0.0,0.0,0.0,0.0,0.0,0.0,0.0,0.0,0.0,0.0,0.0,0.0,0.0,0.0,0.239,0.2741,0.3156,0.3746,0.3965,0.3883,0.3789,0.3361,0.2661,0.1603,0.0758,0.0026,0.0,-0.1473,-0.153,0.0,0.0,0.0,0.0,0.0,0.1015,-0.0041,-0.25,-0.5271,-0.6177,-0.8112,-1.0232,-1.133,-1.1759,-1.218,-1.3502,-1.4963,-1.6088,-1.6098,-1.7251,-1.8397,-1.8375,-1.8322,-1.8268,-1.8232,-1.8493,-1.8522,-1.7947,-1.8362,-1.8631,-1.815,-1.8172,-1.8099,-1.7813,-1.7539,-1.7219,-1.666,-1.6077,-1.5457,-1.4824,-1.3893,-1.3041,-1.2325,-1.0974,-0.9937,-0.9472,-0.8864,-0.8781,-0.9285,-0.9142,-0.952,-1.0591,-1.0058,-0.9962,-1.0265,-0.9953,-0.9792,-0.9716,-1.025,-1.0409,-1.0379,-1.1416,-1.2628,-1.3975,-1.5719,-1.7349,-1.8897,-2.1089,-2.2468,-2.3385,-2.4588,-2.5918,-2.7161,0.0,0.0,0.0,0.0,0.0,0.0,0.0,0.0,0.0,0.0,0.0,0.0,0.0,0.0,0.0,0.0,0.0,0.0,0.0,0.0,0.0,0.0,0.0,0.0,0.0,0.0,0.0,0.0,0.0,0.0,0.2935,0.3485,0.3722,0.3673,0.3545,0.3087,0.2332,0.0931,0.0,0.0,0.0,0.0,0.0,0.0,0.0,0.0,0.0,0.0,0.0485,-0.021,-0.2421,-0.5151,-0.6694,-0.8141,-0.9563,-1.1117,-1.1727,-1.2162,-1.3352,-1.5013,-1.6369,-1.6202,-1.7269,-1.82,-1.7582,-1.7386,-1.7175,-1.6575,-1.6633,-1.6604,-1.6103,-1.6613,-1.7026,-1.6642,-1.6703,-1.6805,-1.6854,-1.6622,-1.6346,-1.6026,-1.5712,-1.5216,-1.4546,-1.3681,-1.2924,-1.2241,-1.1221,-1.036,-0.9729,-0.9091,-0.887,-0.9233,-0.9224,-0.9792,-1.0963,-1.0601,-1.0643,-1.1063,-1.0594,-1.0439,-1.0578,-1.0971,-1.1259,-1.146,-1.2227,-1.3311,-1.4653,-1.612,-1.765,-1.928,-2.1351,-2.2678,-2.3615,-2.4726,-2.5868,-2.6851,0.0,0.0,0.0,0.0,0.0,0.0,0.0,0.0,0.0,0.0,0.0,0.0,0.0,0.0,0.0,0.0,0.0,0.0,0.0,0.0,0.0,0.0,0.0,0.0,0.0,0.0,0.0,0.0,0.0,0.0,0.0,0.0,0.0,0.0,0.0,0.0,0.0,0.0,0.0,0.0,0.0,0.0,0.0,0.0,0.0,0.0,0.0,0.0,-0.0043,-0.0317,-0.1778,-0.3933,-0.6486,-0.7934,-0.8984,-1.0527,-1.1397,-1.2032,-1.2771,-1.4528,-1.6145,-1.6167,-1.7095,-1.7757,-1.6905,-1.653,-1.6104,-1.5158,-1.4792,-1.4505,-1.4056,-1.4333,-1.4673,-1.4668,-1.4836,-1.5138,-1.5551,-1.5453,-1.5311,-1.5308,-1.5269,-1.5046,-1.4479,-1.3613,-1.2796,-1.2039,-1.1436,-1.0683,-0.9837,-0.9332,-0.9119,-0.927,-0.961,-1.0301,-1.1487,-1.1331,-1.1483,-1.1912,-1.1364,-1.1173,-1.1429,-1.161,-1.1987,-1.258,-1.2936,-1.3882,-1.5276,-1.6473,-1.8089,-1.9986,-2.1597,-2.302,-2.4192,-2.4937,-2.5853,-2.6734,0.0,0.0,0.0,0.0,0.0,0.0,0.0,0.0,0.0,0.0,-0.4711,-0.421,0.0,0.0,0.0,0.0,0.0,0.0,0.0,0.0,0.0,0.0,0.0,0.0,0.0,0.0406,0.059,0.0754,0.0742,0.0,0.0,0.0,0.0,0.0,0.0,0.0,0.0,0.0,0.0,0.0,0.0,0.0,0.0,0.0,0.0,0.0,0.0,0.0,0.0,0.0,-0.198,-0.4844,-0.666,-0.7831,-0.8836,-1.0372,-1.1256,-1.1907,-1.2624,-1.4097,-1.5504,-1.5993,-1.6272,-1.6436,-1.6576,-1.5873,-1.5114,-1.4808,-1.459,-1.4319,-1.383,-1.449,-1.484,-1.4103,-1.4492,-1.4739,-1.4229,-1.4088,-1.3936,-1.3714,-1.3616,-1.3528,-1.3458,-1.2982,-1.2645,-1.2567,-1.1794,-1.0887,-0.9958,-0.9466,-0.9356,-0.9719,-1.0601,-1.1234,-1.1511,-1.1692,-1.1674,-1.1403,-1.1096,-1.0997,-1.1177,-1.1358,-1.1918,-1.2792,-1.3292,-1.4261,-1.562,-1.7096,-1.8616,-2.0217,-2.1803,-2.3174,-2.4264,-2.4957,-2.5468,-2.5828,0.0,0.0,0.0,0.0,0.0,0.0,0.0,-0.507,-0.5251,-0.5664,-0.5154,-0.4604,-0.4218,-0.3838,-0.3355,0.0,0.0,0.0,0.0,0.0,0.0,0.0,0.0,0.0,0.0,-0.0503,-0.02,0.0496,0.0,0.0906,0.0921,0.1427,0.1734,0.1861,0.1484,0.0839,-0.0032,0.0,0.0,-0.3188,-0.3449,-0.3603,0.0,0.0,0.0,0.0,0.0,0.0,0.0,0.0,-0.1176,-0.3704,-0.5725,-0.6971,-0.7957,-0.9429,-1.0617,-1.1541,-1.2002,-1.3592,-1.5178,-1.5501,-1.5732,-1.579,-1.5389,-1.4742,-1.4047,-1.3418,-1.3082,-1.2795,-1.2458,-1.3143,-1.3532,-1.2865,-1.3361,-1.3619,-1.298,-1.2963,-1.2903,-1.2626,-1.301,-1.3257,-1.3135,-1.2939,-1.2763,-1.2636,-1.1921,-1.1204,-1.0514,-0.9977,-0.9912,-1.0503,-1.1383,-1.2173,-1.2804,-1.2702,-1.2627,-1.2572,-1.2063,-1.1743,-1.1711,-1.1946,-1.2456,-1.3205,-1.3846,-1.4549,-1.5397,-1.7329,-1.8724,-1.9893,-2.1829,-2.3253,-2.4289,-2.4985,-2.5393,-2.5605,0.0,0.0,0.0,0.0,0.0,0.0,0.0,-0.5072,-0.5329,-0.5957,-0.5428,-0.4938,-0.4753,-0.4419,-0.405,0.0,0.0,0.0,0.0,0.0,0.0,0.0,0.0,0.0,0.0,0.0,0.0,0.0263,0.0834,0.0,0.0,0.0,0.0,0.0,0.0563,-0.0109,-0.0872,-0.1567,-0.2589,0.0,0.0,-0.3738,0.0,0.0,0.0,0.0,0.0,0.0,0.1532,0.1331,0.0136,-0.1701,-0.4139,-0.5701,-0.6894,-0.8292,-0.9664,-1.0788,-1.1113,-1.2816,-1.4539,-1.4761,-1.5072,-1.5098,-1.4247,-1.3642,-1.3016,-1.2082,-1.1659,-1.1392,-1.1178,-1.1729,-1.2136,-1.178,-1.2172,-1.2412,-1.2018,-1.2121,-1.214,-1.1951,-1.2807,-1.3378,-1.3197,-1.3144,-1.3037,-1.2841,-1.2197,-1.1552,-1.0961,-1.0485,-1.0533,-1.1272,-1.2157,-1.2978,-1.3776,-1.3719,-1.3646,-1.3557,-1.3047,-1.269,-1.2487,-1.2751,-1.3168,-1.3769,-1.4504,-1.5011,-1.5479,-1.7443,-1.8682,-1.9529,-2.1644,-2.304,-2.4017,-2.4935,-2.5408,-2.5598,0.0,0.0,0.0,0.0,0.0,0.0,0.0,-0.51,-0.5133,-0.5206,-0.509,-0.4978,-0.4881,-0.4843,-0.48,0.0,0.0,0.0,0.0,0.0,0.0,0.0,0.0,0.0,0.0,0.0,0.0,-0.0136,0.0692,0.0,0.0,0.0,0.0,0.0,0.0,-0.0828,-0.1286,-0.1846,0.0,0.0,0.0,0.0,0.0,0.0,0.0,0.0,0.0,0.2057,0.2715,0.2512,0.184,0.064,-0.1895,-0.4081,-0.5977,-0.7332,-0.8385,-0.927,-1.0039,-1.1494,-1.2979,-1.3659,-1.3762,-1.3752,-1.3886,-1.3054,-1.2085,-1.1557,-1.137,-1.1247,-1.0968,-1.1335,-1.1629,-1.1551,-1.1628,-1.1664,-1.156,-1.1582,-1.1665,-1.1948,-1.2792,-1.3384,-1.3531,-1.3537,-1.358,-1.3704,-1.2889,-1.192,-1.0863,-1.0737,-1.1066,-1.1722,-1.2834,-1.331,-1.3168,-1.4131,-1.3998,-1.2893,-1.3331,-1.3373,-1.3111,-1.3213,-1.3687,-1.4543,-1.514,-1.5889,-1.6709,-1.7726,-1.8612,-1.9531,-2.1105,-2.2186,-2.31,-2.4651,-2.5376,-2.56,0.0,0.0,0.0,0.0,0.0,0.0,-0.5037,-0.5082,-0.5267,-0.576,-0.5381,-0.5231,-0.5696,-0.5316,-0.4996,-0.4959,0.0,0.0,0.0,0.0,0.0,0.0,0.0,0.0,0.0,0.0,-0.0561,0.0823,0.1092,0.0,0.0,0.0,0.0,0.0,0.0,-0.0879,-0.1516,-0.1974,0.0,0.0,0.0,0.0,0.0,0.0,0.0,0.0,0.0,0.0,0.3417,0.3213,0.2446,0.1404,0.0341,-0.1495,-0.3815,-0.6685,-0.8216,-0.9094,-0.964,-1.0751,-1.194,-1.2712,-1.2796,-1.2707,-1.2896,-1.2406,-1.179,-1.1324,-1.1132,-1.1015,-1.0873,-1.1466,-1.1834,-1.1482,-1.1838,-1.2037,-1.1704,-1.166,-1.17,-1.193,-1.2839,-1.3508,-1.3586,-1.3813,-1.3728,-1.3195,-1.2856,-1.2544,-1.2151,-1.1903,-1.2181,-1.3018,-1.3621,-1.4147,-1.4671,-1.4914,-1.4726,-1.4132,-1.4241,-1.41,-1.3756,-1.3927,-1.4289,-1.4738,-1.5257,-1.553,-1.5729,-1.7238,-1.805,-1.8546,-2.0305,-2.1466,-2.2253,-2.3266,-2.3785,-2.4053,0.0,0.0,0.0,0.0,0.0,-0.5037,-0.5025,-0.5073,-0.5303,-0.5872,-0.5447,-0.5301,-0.5859,-0.5427,-0.5082,-0.5026,-0.4805,0.0,0.0,0.0,0.0,0.0,0.0,0.0,0.0,0.0,-0.0835,0.1058,0.1104,0.0904,0.0,0.0,0.0274,0.011,0.0,0.0,0.0,0.0,0.0,0.0,0.0,0.0,0.0,0.0,0.0,0.0,0.0,0.0,0.0,0.0,0.0,0.2093,0.1315,0.0,0.0,-0.5266,-0.6924,-0.7824,-0.8434,-0.9526,-1.0628,-1.1213,-1.1542,-1.1729,-1.1876,-1.1627,-1.1293,-1.1066,-1.0944,-1.0849,-1.0801,-1.1428,-1.1804,-1.1324,-1.181,-1.2119,-1.1765,-1.1816,-1.2011,-1.2261,-1.3131,-1.3773,-1.3882,-1.4076,-1.3811,-1.2887,-1.3033,-1.3216,-1.326,-1.3252,-1.3483,-1.4127,-1.4557,-1.5083,-1.569,-1.5719,-1.551,-1.4972,-1.5068,-1.4879,-1.4374,-1.4627,-1.4859,-1.507,-1.5542,-1.557,-1.5447,-1.6903,-1.756,-1.7867,-1.9573,-2.0693,-2.1417,-2.2272,-2.2882,-2.3405,0.0,0.0,0.0,0.0,0.0,0.0,-0.5106,-0.51,-0.511,-0.5118,-0.5107,-0.5069,-0.5011,-0.5056,-0.5096,-0.5101,-0.5094,0.0,0.0,0.0,0.0,0.0,0.0,0.0,0.0,0.0,-0.0809,0.0013,0.0484,0.0562,0.0293,0.0098,-0.0167,-0.0519,0.0,0.0,0.0,0.0,0.0,0.0,0.0,0.0,0.0,0.0,0.0,0.0,0.0,0.0,0.0,0.0,0.0,0.0,0.0,0.0,0.0,0.0,-0.3914,-0.4881,-0.5943,-0.7508,-0.8851,-0.8914,-0.9835,-1.0768,-1.0968,-1.0653,-1.042,-1.0819,-1.0849,-1.0801,-1.0801,-1.1117,-1.1295,-1.0954,-1.1376,-1.1654,-1.1511,-1.2001,-1.2602,-1.321,-1.3706,-1.4117,-1.4441,-1.4324,-1.3897,-1.305,-1.3616,-1.401,-1.401,-1.4538,-1.4815,-1.4678,-1.5593,-1.5977,-1.5712,-1.66,-1.6329,-1.4916,-1.5546,-1.5558,-1.5013,-1.5255,-1.5448,-1.561,-1.6093,-1.6402,-1.6604,-1.6879,-1.7293,-1.7802,-1.8956,-1.9812,-2.0573,-2.1989,-2.3267,-2.429,0.0,0.0,0.0,0.0,0.0,0.0,0.0,-0.51,-0.5103,-0.5109,-0.5058,-0.5014,-0.4997,-0.4977,-0.4961,-0.4957,-0.5047,0.0,0.0,0.0,0.0,0.0,0.0,0.0,0.0,0.0,-0.1005,-0.0203,0.0268,0.0223,-0.0317,-0.0424,-0.0824,-0.1479,-0.1921,-0.2248,0.0,0.0,0.0,0.0,0.0,0.0,0.0308,0.0,0.0,0.0,0.0,0.0,0.0,0.0,0.0,0.0,0.0,0.0,0.0,-0.1653,-0.3641,-0.5654,-0.6401,-0.741,-0.839,-0.9019,-0.9322,-0.9606,-1.0061,-1.0205,-1.0257,-1.0353,-1.1019,-1.1607,-1.1571,-1.217,-1.2532,-1.2066,-1.2635,-1.2972,-1.2515,-1.3338,-1.3951,-1.3902,-1.4304,-1.4507,-1.4384,-1.4274,-1.3961,-1.3322,-1.3962,-1.4469,-1.4824,-1.4783,-1.4857,-1.5037,-1.5348,-1.5646,-1.5766,-1.5728,-1.5657,-1.552,-1.5785,-1.5834,-1.5769,-1.5924,-1.6065,-1.6151,-1.6109,-1.6128,-1.6143,-1.6471,-1.6799,-1.7175,-1.8193,-1.8986,-1.9662,-2.0442,-2.1454,-2.2539,0.0,0.0,0.0,0.0,0.0,0.0,0.0,-0.5096,-0.5097,-0.5075,-0.5031,-0.5007,-0.4999,-0.4912,-0.4881,-0.4897,-0.4943,0.0,0.0,0.0,0.0,0.0,0.0,0.0,0.0,-0.1917,-0.1081,0.0381,-0.0088,-0.0379,-0.049,-0.0817,-0.1349,-0.2065,-0.2345,-0.2602,0.0,0.0,0.0,0.0,0.0,0.0,0.0194,0.0,0.0,0.0,0.0,0.0,0.0,0.0,0.0,0.0,0.0,0.0,0.0,0.0,-0.344,-0.5267,-0.579,-0.6622,-0.7518,-0.8211,-0.8467,-0.8681,-0.9191,-0.9614,-0.9939,-1.0102,-1.0982,-1.1721,-1.178,-1.2331,-1.2667,-1.2252,-1.2892,-1.3347,-1.3119,-1.3876,-1.4487,-1.4524,-1.4832,-1.484,-1.4236,-1.4337,-1.4184,-1.3648,-1.4364,-1.4876,-1.4936,-1.4959,-1.4949,-1.4917,-1.5311,-1.5487,-1.5402,-1.5612,-1.5667,-1.5581,-1.5891,-1.5979,-1.5806,-1.6177,-1.6049,-1.5557,-1.5894,-1.5846,0.0,-1.6138,-1.6538,-1.6894,-1.7812,-1.8592,-1.9268,-2.009,-2.1101,-2.2209,0.0,0.0,0.0,0.0,0.0,0.0,0.0,-0.5097,-0.5076,-0.5014,-0.4983,-0.4977,-0.4981,-0.4848,-0.4778,-0.4843,0.0,0.0,0.0,0.0,0.0,0.0,0.0,0.0,0.0,-0.2117,-0.1148,0.1223,-0.0647,-0.1168,-0.0436,-0.1185,-0.1868,-0.246,-0.2533,-0.2861,0.0,0.0,0.0,0.0,0.0,0.0,0.0,0.0,0.0,0.0,0.0,0.0,0.0,0.0,0.0,0.0,0.0,0.0,0.0,0.0,0.0,0.0,0.0,-0.5401,-0.6416,-0.6803,-0.7441,-0.8063,-0.8377,-0.8957,0.0,-1.0073,-1.0753,-1.1362,-1.1664,-1.1839,-1.1958,-1.1869,-1.2485,-1.3076,-1.342,-1.3892,-1.4437,-1.5101,-1.5362,-1.5108,-1.4157,-1.446,-1.451,-1.4019,-1.4885,-1.5167,-1.4551,-1.5069,-1.5108,-1.4495,-1.5286,-1.5394,-1.4778,-1.5954,-1.6075,-1.518,-1.5883,-1.5888,-1.5311,-1.5983,-1.55,-1.4245,-1.5507,-1.5628,-1.4977,-1.5914,-1.6501,-1.6901,-1.7834,-1.8572,-1.9264,-2.0688,-2.1907,-2.2972,0.0,0.0,0.0,0.0,0.0,0.0,0.0,0.0,0.0,0.0,-0.4905,-0.4744,-0.4708,-0.4491,-0.4319,0.0,0.0,0.0,0.0,0.0,0.0,0.0,0.0,0.0,0.0,-0.2306,-0.2031,-0.1492,-0.1909,-0.1941,-0.1616,-0.2513,-0.3309,-0.3988,-0.4151,-0.3692,0.0,0.0,0.0,0.0,0.0,0.0,0.0,0.0,0.0,0.0,0.3149,0.3531,0.0,0.0,0.0,0.0,0.0,0.0,0.0,0.0,-0.3159,-0.3747,-0.4463,0.0,-0.6651,-0.6852,-0.7335,-0.7812,0.0,0.0,0.0,0.0,0.0,0.0,0.0,-1.2709,-1.2914,-1.3393,-1.4031,-1.4349,-1.4052,-1.4625,-1.5311,-1.5862,-1.5818,-1.5375,-1.4531,-1.4861,-1.4894,-1.4463,-1.5184,-1.5417,-1.4916,-1.5016,-1.4842,-1.4374,-1.4494,-1.4592,-1.4641,-1.5,-1.5073,-1.4907,-1.5224,-1.5263,-1.5082,-1.5213,-1.5039,-1.4738,-1.5311,-1.5402,-1.5189,-1.6037,-1.6501,-1.6809,-1.7769,-1.8536,-1.9268,-2.0611,-2.1777,-2.2766,0.0,0.0,0.0,0.0,0.0,0.0,0.0,0.0,0.0,0.0,0.0,0.0,0.0,0.0,0.0,0.0,0.0,0.0,0.0,0.0,0.0,0.0,0.0,0.0,-0.1959,-0.2153,-0.2262,-0.2265,-0.2628,-0.2825,-0.2871,-0.327,-0.3737,-0.4287,-0.4602,-0.4188,0.0,0.0,0.0,0.0,0.07,0.0,0.0,0.0,0.0,0.0,0.1582,0.246,0.0,0.3942,0.2977,0.1616,0.0,0.0,0.0,0.0,-0.3341,-0.3764,-0.4323,-0.5514,-0.6672,-0.6882,-0.747,-0.8045,-0.8304,0.0,0.0,0.0,0.0,0.0,0.0,-1.2955,-1.3332,-1.4111,-1.439,-1.4601,-1.4713,-1.5396,-1.5886,-1.5976,-1.5869,-1.5556,-1.4898,-1.5174,-1.522,-1.4897,-1.5292,-1.5289,-1.473,-1.4611,-1.4419,-1.4003,-1.4042,-1.4069,-1.3983,-1.4587,-1.4743,-1.4529,-1.5069,-1.5113,-1.4718,-1.5044,-1.4747,-1.4031,-1.4741,-1.4894,-1.4715,-1.5557,-1.6192,-1.6747,-1.7764,-1.8518,-1.928,-2.1044,-2.2082,-2.2732,0.0,0.0,0.0,0.0,0.0,0.0,0.0,0.0,0.0,0.0,0.0,0.0,0.0,0.0,0.0,0.0,0.0,0.0,0.0,0.0,0.0,0.0,0.0,-0.2495,-0.1624,-0.1975,-0.2098,-0.1963,-0.3039,-0.371,-0.404,-0.3789,-0.3819,-0.4054,-0.4375,-0.428,0.0,0.0,-0.1231,0.002,0.1475,0.0,0.0,0.0,0.0,0.0,0.0,0.0,0.0,0.3379,0.2617,0.1351,0.0141,0.0,0.0,0.0,0.0,0.0,-0.4322,-0.5439,-0.658,-0.6818,-0.7596,-0.84,-0.8697,0.0,0.0,0.0,0.0,0.0,0.0,-1.2925,-1.3496,-1.4349,-1.4309,-1.4434,-1.5323,-1.5893,-1.6088,-1.5748,-1.5753,-1.5612,-1.5154,-1.5374,-1.5464,-1.534,-1.5265,-1.4968,-1.433,-1.4195,-1.3988,-1.3631,-1.3915,-1.3869,-1.3388,-1.4532,-1.4761,-1.4089,-1.5065,-1.5076,-1.4275,-1.4917,-1.4381,-1.299,-1.402,-1.4241,-1.3962,-1.4943,-1.58,-1.6604,-1.7735,-1.8553,-1.931,-2.1566,-2.2463,-2.2772,0.0,0.0,0.0,0.0,0.0,0.0,0.0,0.0,0.0,0.0,0.0,0.0,0.0,0.0,0.0,0.0,0.0,0.0,0.0,0.0,0.0,0.0,-0.3117,-0.2931,-0.2984,-0.2359,-0.1808,-0.1338,-0.3288,-0.4383,-0.4668,-0.4553,-0.442,-0.4238,-0.3865,-0.352,-0.3212,-0.2759,-0.1804,-0.0449,0.119,0.0,0.0,0.0,0.0,0.0,0.0,0.0,0.0,0.2382,0.1594,-0.0017,-0.0351,0.0,0.0,0.0,0.0,0.0,-0.5173,-0.6005,-0.6612,-0.6388,-0.7363,-0.8353,-0.8247,0.0,0.0,0.0,0.0,0.0,-1.2922,-1.3157,-1.3547,-1.438,-1.4711,-1.5019,-1.5477,-1.541,-1.5334,-1.5357,-1.5473,-1.5454,-1.5265,-1.5279,-1.5432,-1.5763,-1.5099,-1.4583,-1.4384,-1.4307,-1.4037,-1.3631,-1.4197,-1.4261,-1.3813,-1.4739,-1.4621,-1.3532,-1.4599,-1.4556,-1.3565,-1.38,-1.3599,-1.3099,-1.3618,-1.3664,-1.3496,-1.4905,-1.5668,-1.6144,-1.7637,-1.8604,-1.9424,-2.1535,-2.2327,-2.2659,0.0,0.0,0.0,0.0,0.0,0.0,0.0,0.0,0.0,0.0,0.0,0.0,0.0,0.0,0.0,0.0,0.0,0.0,0.0,0.0,0.0,-0.3651,-0.351,-0.3415,-0.3352,-0.2892,-0.2672,-0.2712,-0.3669,-0.4278,-0.4582,-0.4443,-0.4215,-0.3908,-0.3626,-0.329,-0.291,-0.2412,-0.1669,-0.067,0.0,0.0,0.0,0.0,0.0,0.0,0.0,0.0,0.0,0.0,0.0755,-0.0308,-0.0949,0.0,0.0,0.0,0.0,0.0,-0.5269,-0.5987,-0.6529,-0.6747,-0.7687,-0.8602,-0.8773,0.0,0.0,0.0,0.0,-1.2939,-1.3262,-1.3533,-1.3828,-1.4126,-1.4937,-1.5355,-1.482,-1.4996,-1.5061,-1.4752,-1.507,-1.5279,-1.5211,-1.5224,-1.5236,-1.5324,-1.4682,-1.4307,-1.4265,-1.4041,-1.3924,-1.3905,-1.4373,-1.4438,-1.4054,-1.4588,-1.4382,-1.342,-1.4116,-1.4165,-1.3634,-1.3786,-1.3713,-1.3412,-1.3385,-1.342,-1.3605,-1.4685,-1.5493,-1.6213,-1.7772,-1.8738,-1.9513,-2.1542,-2.245,-2.2914,0.0,0.0,0.0,0.0,0.0,0.0,0.0,0.0,0.0,0.0,0.0,0.0,0.0,0.0,0.0,0.0,0.0,0.0,0.0,0.0,-0.3736,-0.3636,-0.3795,-0.3721,-0.3403,-0.3298,-0.3423,-0.3762,-0.377,-0.3871,-0.4073,-0.3973,-0.3731,-0.335,-0.3349,-0.3088,-0.2564,-0.1929,-0.1299,-0.0617,0.0,0.0,0.0,0.0,0.0,0.0,0.0,0.0,0.0,0.0,0.0,0.0,0.0,0.0,0.0,-0.3998,-0.4245,-0.4495,-0.5389,-0.5951,-0.6489,-0.7335,-0.8064,-0.8688,0.0,0.0,0.0,0.0,-1.2384,-1.3379,-1.3399,-1.3799,-1.4054,-1.3827,-1.4829,-1.5217,-1.4099,-1.4643,-1.4887,-1.4277,-1.4741,-1.507,-1.5045,-1.4996,-1.4872,-1.4872,-1.4307,-1.4041,-1.4193,-1.3917,-1.3941,-1.4362,-1.4585,-1.4575,-1.4344,-1.43,-1.3991,-1.3485,-1.3865,-1.3955,-1.3827,-1.405,-1.3977,-1.368,-1.3345,-1.3332,-1.3622,-1.4341,-1.5217,-1.6239,-1.7691,-1.8853,-1.9935,-2.1605,-2.2502,-2.3107,0.0,0.0,0.0,0.0,0.0,0.0,0.0,0.0,0.0,0.0,0.0,0.0,0.0,0.0,0.0,0.0,0.0,0.0,0.0,0.0,-0.3703,-0.3698,-0.3764,-0.3679,-0.3403,-0.3387,-0.3281,-0.3064,-0.3256,-0.3261,-0.3112,-0.3346,-0.3135,-0.259,-0.2832,-0.2615,-0.2022,-0.148,-0.0864,-0.0173,0.0681,0.0,0.0,0.0,0.0,0.0,0.0,0.0,0.0,0.0,0.0,0.0,0.0,0.0,-0.4115,-0.4174,-0.4242,-0.4602,-0.5954,-0.6278,-0.6531,-0.7887,-0.823,0.0,-0.8356,-0.9327,0.0,-1.0285,-1.2058,-1.3461,-1.3091,-1.3674,-1.406,-1.3606,-1.4089,-1.4317,-1.3807,-1.425,-1.4545,-1.4243,-1.4586,-1.486,-1.4904,-1.4398,-1.4331,-1.4935,-1.4169,-1.3859,-1.4443,-1.4398,-1.4501,-1.4858,-1.4812,-1.4773,-1.4773,-1.3726,-1.3385,-1.3769,-1.399,-1.4025,-1.3906,-1.4167,-1.4083,-1.3676,-1.3539,-1.3346,-1.3198,-1.3873,-1.4805,-1.5952,-1.7117,-1.8952,-2.1064,-2.1751,-2.2354,-2.2995,0.0,0.0,0.0,0.0,0.0,0.0,0.0,0.0,0.0,0.0,0.0,0.0,0.0,0.0,0.0,0.0,0.0,0.0,0.0,0.0,-0.3151,-0.3018,-0.36,-0.3628,-0.2981,-0.3121,-0.31,-0.2874,-0.2877,-0.2845,-0.2812,-0.2828,-0.2473,-0.182,-0.201,-0.2014,-0.1853,-0.1431,-0.0925,-0.0319,0.0447,0.1105,0.0,0.0,0.0,0.0,0.0,0.0,0.0,0.0,-0.1026,-0.1986,-0.1857,-0.2967,-0.4228,-0.3722,-0.3872,-0.4464,-0.5787,-0.658,-0.7205,-0.8036,-0.9127,0.0,0.0,-1.019,-1.1192,-1.1399,-1.2524,-1.3464,-1.3432,-1.3898,-1.4008,-1.3251,-1.3874,-1.4099,-1.3047,-1.3551,-1.391,-1.3566,-1.3992,-1.4395,-1.4555,-1.4025,-1.3712,-1.3931,-1.3261,-1.3023,-1.3472,-1.3663,-1.3856,-1.4228,-1.4388,-1.4472,-1.4449,-1.3552,-1.3287,-1.366,-1.3509,-1.3582,-1.3906,-1.4185,-1.4141,-1.3874,-1.3615,-1.3442,-1.3396,-1.407,-1.5089,-1.6415,-1.8323,-1.9606,-2.0546,-2.1559,-2.1859,-2.1942,0.0,0.0,0.0,0.0,0.0,0.0,0.0,0.0,0.0,0.0,0.0,0.0,0.0,0.0,0.0,0.0,0.0,0.0,0.0,-0.2634,-0.2708,-0.2604,-0.3235,-0.3301,-0.2713,-0.2812,-0.281,-0.2671,-0.2538,-0.2443,-0.2375,-0.2186,-0.1763,-0.1175,-0.1118,-0.1454,-0.203,-0.1692,-0.1243,-0.0687,0.0032,0.0564,0.0,0.0,0.0,0.0,0.0,0.0,0.0,0.0,-0.0504,-0.1396,-0.151,-0.2537,-0.3682,-0.3549,-0.3805,-0.4363,-0.5418,-0.6409,-0.7351,-0.8161,0.0,0.0,-1.0648,-1.1169,-1.1801,-1.1951,-1.262,-1.3248,-1.3438,-1.3741,-1.373,-1.3074,-1.357,-1.3716,-1.2687,-1.3118,-1.3483,-1.3132,-1.3519,-1.387,-1.4027,-1.3531,-1.3205,-1.3084,-1.2776,-1.2721,-1.3026,-1.3335,-1.3662,-1.4014,-1.4147,-1.4224,-1.4277,-1.3578,-1.3316,-1.3524,-1.3334,-1.3447,-1.387,-1.4185,-1.4255,-1.4114,-1.3795,-1.3676,-1.3726,-1.4171,-1.5117,-1.6536,-1.8788,-1.9597,-1.971,-2.1235,-2.1427,-2.1167,0.0,0.0,0.0,0.0,0.0,0.0,0.0,0.0,0.0,0.0,0.0,0.0,0.0,0.0,0.0,0.0,0.0,0.0,-0.1512,-0.2054,-0.2452,-0.2585,-0.2659,-0.2697,-0.27,-0.251,-0.2403,-0.2393,-0.2265,-0.2033,-0.1699,-0.1354,-0.1012,-0.0677,-0.0209,-0.0965,-0.2548,-0.2237,-0.1792,-0.1242,-0.0576,-0.0225,-0.0,0.0,0.0,0.0,0.0,0.0,0.0,0.0,0.0181,0.0059,-0.1873,-0.2356,-0.2478,-0.3791,-0.4201,-0.4345,-0.4945,-0.5746,-0.6793,-0.8338,0.0,0.0,-1.2221,-1.215,-1.1842,-1.1566,-1.2131,-1.2746,-1.294,-1.3096,-1.3151,-1.3082,-1.3082,-1.3012,-1.2838,-1.3082,-1.3241,-1.3115,-1.3254,-1.3316,-1.3223,-1.3015,-1.2795,-1.2595,-1.2826,-1.3129,-1.3399,-1.3784,-1.4134,-1.4489,-1.4175,-1.4158,-1.4495,-1.3784,-1.3402,-1.3381,-1.3603,-1.3727,-1.3803,-1.4198,-1.4405,-1.4375,-1.4114,-1.4042,-1.41,-1.4047,-1.4782,-1.6127,-1.8127,-1.8742,-1.876,-2.0817,-2.1164,-2.0835,0.0,0.0,0.0,0.0,0.0,0.0,0.0,0.0,0.0,0.0,0.0,0.0,0.0,0.0,0.0,0.0,0.0,0.0,-0.1151,-0.1258,-0.1487,-0.1949,-0.2256,-0.2501,-0.27,-0.282,-0.2681,-0.2255,-0.2027,-0.1892,-0.1816,-0.1018,-0.0483,-0.0203,-0.0062,-0.0289,-0.084,-0.1821,-0.1905,-0.1331,-0.0947,-0.0486,-0.0022,0.0,0.0,0.0,0.0,0.0,0.0,0.0,0.0,0.0,-0.0563,-0.1791,-0.312,-0.3189,-0.4121,-0.5222,-0.5735,-0.7134,-0.8632,-0.9481,-1.1099,-1.2441,-1.235,-1.2618,-1.2765,-1.2411,-1.2197,-1.2102,-1.22,-1.2191,-1.2084,-1.1932,-1.1939,-1.2031,-1.2216,-1.2287,-1.2496,-1.2957,-1.3073,-1.3134,-1.3189,-1.2829,-1.2578,-1.2538,-1.2413,-1.2487,-1.2749,-1.3045,-1.3313,-1.3507,-1.3747,-1.3955,-1.4145,-1.3929,-1.3741,-1.3543,-1.365,-1.365,-1.3596,-1.4019,-1.4198,-1.425,-1.4127,-1.4162,-1.4417,-1.583,-1.6658,-1.7224,-1.8523,-1.9253,-1.9569,-1.9725,-2.0027,-2.0437,0.0,0.0,0.0,0.0,0.0,0.0,0.0,0.0,0.0,0.0,0.0,0.0,0.0,0.0,0.0,0.0,0.0,0.0,0.0,0.0,-0.1541,-0.1693,-0.2242,-0.2659,-0.2898,-0.3102,-0.2988,-0.252,-0.2249,-0.2118,-0.2084,-0.1102,-0.0408,0.0,0.0,0.0117,0.0258,-0.0705,-0.1117,-0.1112,-0.1035,-0.079,-0.0488,0.0,0.0,0.0,0.0,0.0,0.0,0.0,0.0,0.0,-0.0499,0.0,-0.2978,-0.3573,-0.4362,-0.5244,-0.6243,-0.7464,-0.8687,-0.9663,-1.1002,-1.2103,-1.2207,-1.2623,-1.2854,-1.2468,-1.2019,-1.1667,-1.1635,-1.1521,-1.143,-1.1418,-1.1394,-1.1462,-1.1648,-1.1769,-1.2007,-1.2435,-1.2607,-1.2701,-1.2794,-1.2336,-1.209,-1.2127,-1.2094,-1.2164,-1.236,-1.2854,-1.3151,-1.3267,-1.3641,-1.3927,-1.4149,-1.4356,-1.4327,-1.4113,-1.4083,-1.3936,-1.3718,-1.364,-1.3828,-1.4245,-1.4344,-1.4453,-1.4693,-1.5958,-1.6552,-1.6779,-1.8079,-1.8727,-1.9012,-1.97,-2.0047,-2.0223,0.0,0.0,0.0,0.0,0.0,0.0,0.0,0.0,0.0,0.0,0.0,0.0,0.0,0.0,0.0,0.0,0.0,0.0,0.0,0.0,-0.2246,-0.1829,-0.2555,-0.3073,-0.3305,-0.3407,-0.334,-0.3092,-0.2785,-0.2567,-0.2404,-0.1475,-0.0661,0.0002,0.0026,0.0291,0.0723,0.0616,0.0154,-0.0527,-0.0805,-0.0997,-0.1129,-0.1208,0.0,0.0,0.0,0.0,0.0,0.0,0.0,0.0,-0.1312,-0.1831,-0.2447,-0.4471,-0.4809,-0.4887,-0.6527,-0.7202,-0.7782,-0.9336,-1.0249,-1.0998,-1.1829,-1.2166,-1.2211,-1.1885,-1.1613,-1.1371,-1.1018,-1.0865,-1.0876,-1.1136,-1.1064,-1.1028,-1.1125,-1.1443,-1.1682,-1.1678,-1.1931,-1.2082,-1.2129,-1.1676,-1.1419,-1.1564,-1.1796,-1.2025,-1.2143,-1.2897,-1.3382,-1.3437,-1.3769,-1.4111,-1.447,-1.4937,-1.511,-1.4951,-1.4734,-1.4428,-1.4076,-1.324,-1.3408,-1.4332,-1.4671,-1.4856,-1.4942,-1.5132,-1.5272,-1.5483,-1.7077,-1.7579,-1.7699,-2.0155,-2.0594,-2.0111,0.0,0.0,0.0,0.0,0.0,0.0,0.0,0.0,0.0,0.0,0.0,0.0,0.0,0.0,0.0,0.0,0.0,0.0,0.0,0.0,-0.2106,-0.2627,-0.3216,-0.3715,-0.4131,-0.407,-0.3924,-0.3712,-0.3176,-0.2823,-0.2616,-0.1726,-0.0847,0.0009,0.0221,0.026,0.0146,-0.0233,0.0121,0.0883,0.0097,-0.0324,-0.0514,-0.0744,-0.0872,0.0,0.0,0.0,0.0,0.0,0.0,0.0,-0.1858,-0.2575,-0.3279,-0.3913,-0.5165,-0.6411,-0.6754,-0.7947,-0.9326,-1.0363,-1.1021,-1.141,-1.1456,-1.1148,-1.0898,-1.108,-1.1147,-1.0727,-0.9208,-0.9191,-0.9415,-0.9378,-0.9364,-0.9696,-1.0599,-1.0675,-1.0881,-1.1541,-1.1277,-1.1155,-1.1537,-1.1337,-1.1188,-1.1231,-1.1499,-1.1695,-1.1634,-1.2443,-1.2955,-1.3037,-1.3952,-1.4627,-1.4939,-1.5404,-1.5563,-1.537,-1.4948,-1.4541,-1.4167,-1.3648,-1.3809,-1.4478,-1.4757,-1.496,-1.5117,-1.5888,-1.6237,-1.6337,-1.6715,-1.7462,-1.8321,-1.8328,-1.9009,-1.9934,0.0,0.0,0.0,0.0,0.0,0.0,0.0,0.0,0.0,0.0,0.0,0.0,0.0,0.0,0.0,0.0,0.0,0.0,0.0,0.0,0.0,-0.3456,-0.38,-0.4115,-0.4393,-0.4457,-0.4329,-0.3995,-0.3158,-0.2892,-0.3104,-0.1744,-0.0631,0.024,0.0218,0.0359,0.0579,-0.0083,0.0264,0.1215,0.0724,0.0427,0.0231,-0.0168,-0.0461,-0.07,-0.1001,0.0,0.0,0.0,0.0,0.0,0.0,0.0,-0.4599,-0.4803,-0.5424,-0.6245,-0.7218,-0.7953,-0.8668,-0.9573,-0.9881,-1.0016,-1.0164,-1.0149,-1.011,-1.0101,-1.0088,-0.9778,-0.8741,-0.8575,-0.8597,-0.8516,-0.8761,-0.912,-0.9662,-1.0052,-1.0421,-1.0759,-1.0774,-1.09,-1.119,-1.1064,-1.1015,-1.1148,-1.1378,-1.1464,-1.1363,-1.2442,-1.3085,-1.3182,-1.4214,-1.4984,-1.536,-1.5838,-1.6099,-1.6095,-1.5317,-1.4591,-1.3921,-1.3854,-1.389,-1.4011,-1.4651,-1.5015,-1.5133,-1.5704,-1.5947,-1.6025,-1.6405,-1.7144,-1.8047,-1.8554,-1.9312,-2.0085,0.0,0.0,0.0,0.0,0.0,0.0,0.0,0.0,0.0,0.0,0.0,0.0,0.0,0.0,0.0,0.0,0.0,0.0,0.0,0.0,0.0,0.0,-0.4235,-0.4332,-0.4399,-0.463,-0.4429,-0.3753,-0.3024,-0.282,0.0,-0.15,-0.0163,0.0925,0.0258,0.0481,0.1295,0.0436,0.0421,0.0994,0.1132,0.1108,0.0951,0.0517,0.0122,-0.0252,-0.072,-0.1264,-0.1971,-0.3331,0.0,0.0,0.0,0.0,-0.5816,-0.5939,-0.567,-0.5692,-0.7396,-0.7518,-0.7366,-0.822,-0.823,-0.8159,-0.8581,-0.897,-0.9155,-0.8804,-0.8952,-0.901,-0.8617,-0.8329,-0.8165,-0.8144,-0.8509,-0.878,-0.8838,-0.9542,-1.0032,-0.9956,-1.0403,-1.0762,-1.0937,-1.0837,-1.0855,-1.111,-1.1216,-1.1282,-1.1309,-1.2407,-1.3204,-1.3619,-1.451,-1.5242,-1.5839,-1.6254,-1.6617,-1.6901,-1.5895,-1.4807,-1.3652,-1.4139,-1.4089,-1.3671,-1.459,-1.504,-1.5108,-1.5233,-1.5304,-1.536,-1.6018,-1.6706,-1.7482,-1.9114,-1.9905,-2.026,0.0,0.0,0.0,0.0,0.0,0.0,0.0,0.0,0.0,0.0,0.0,0.0,0.0,0.0,0.0,0.0,0.0,0.0,0.0,0.0,0.0,-0.4096,-0.4224,-0.4325,-0.439,-0.4494,-0.3831,-0.2375,-0.3042,0.0,0.0,0.0,0.0,0.2669,0.0701,0.0469,0.1506,0.0688,0.04,0.0553,0.1248,0.1486,0.1416,0.1336,0.103,0.0512,-0.0461,-0.1163,-0.1881,-0.3575,-0.4247,0.0,0.0,0.0,-0.6105,-0.5959,-0.6066,-0.6274,-0.6414,-0.6734,-0.714,-0.7611,-0.7585,-0.7412,-0.7366,-0.7232,-0.707,-0.6898,-0.837,-0.9248,-0.7762,-0.7784,-0.8,-0.7957,-0.7901,-0.8157,-0.8962,-0.907,-0.9336,-1.0002,-0.9988,-1.0158,-1.0672,-1.0611,-1.0618,-1.0767,-1.0729,-1.0994,-1.1664,-1.1855,-1.2608,-1.4127,-1.4608,-1.5306,-1.6301,-1.6644,-1.7002,-1.7337,-1.6986,-1.5766,-1.3811,-1.4905,-1.505,-1.4458,-1.4837,-1.5045,-1.5114,-1.5237,-1.5305,-1.5291,-1.5355,-1.6156,-1.7356,-1.7825,-1.8942,-2.0216,0.0,0.0,0.0,0.0,0.0,0.0,0.0,0.0,0.0,0.0,0.0,0.0,0.0,0.0,0.0,0.0,0.0,0.0,0.0,0.0,0.0,-0.4042,-0.4175,-0.4263,-0.4281,-0.4617,-0.3918,-0.2151,0.0,0.0,0.0,0.0929,0.0756,0.0,0.0,0.0,0.1106,0.1239,0.1316,0.1374,0.162,0.1758,0.1864,0.2125,0.1799,0.1081,0.0186,-0.0686,-0.1774,-0.4012,-0.4667,-0.479,-0.6153,0.0,0.0,0.0,-0.6071,-0.631,-0.5911,-0.6067,-0.6156,-0.5481,-0.5766,-0.6013,-0.521,-0.5787,-0.6487,-0.649,-0.731,-0.7692,-0.6656,-0.6842,-0.7105,-0.6913,-0.7407,-0.7901,-0.8169,-0.8665,-0.9132,-0.9488,-0.9868,-1.0238,-1.0651,-1.0767,-1.0873,-1.0968,-1.1015,-1.1328,-1.1995,-1.2413,-1.3063,-1.3986,-1.5064,-1.5816,-1.6173,-1.6865,-1.7024,-1.6629,-1.66,-1.5691,-1.4072,-1.5116,-1.5221,-1.4574,-1.4876,-1.5045,-1.5152,-1.5767,-1.5731,-1.5331,-1.5725,-1.6464,-1.7353,-1.765,-1.8589,-1.9809,0.0,0.0,0.0,0.0,0.0,0.0,0.0,0.0,0.0,0.0,0.0,0.0,0.0,0.0,0.0,0.0,0.0,0.0,0.0,0.0,0.0,-0.3877,-0.3976,-0.4054,-0.4046,-0.4591,-0.3855,0.0,0.0,0.0,0.1751,0.1868,0.0696,0.0,0.0652,0.1423,0.0,0.1318,0.1657,0.2106,0.1854,0.1923,0.2229,0.268,0.2338,0.1515,0.0672,-0.0249,-0.1476,-0.4108,-0.4788,-0.4795,-0.6392,-0.6966,0.0,0.0,0.0,-0.6035,-0.5253,-0.5016,-0.4716,-0.3564,-0.3871,-0.4233,-0.3368,-0.4333,-0.5496,-0.5808,-0.5947,-0.5889,-0.5451,-0.5915,-0.6345,-0.6242,-0.6921,-0.7513,-0.7585,-0.8274,-0.8886,-0.9256,-0.9907,-1.0454,-1.0818,-1.1094,-1.127,-1.1285,-1.1376,-1.1705,-1.2318,-1.275,-1.3247,-1.3875,-1.5001,-1.5634,-1.5736,-1.667,-1.6748,-1.6045,-1.6217,-1.5577,-1.426,-1.5238,-1.5269,-1.4595,-1.4866,-1.504,-1.5201,-1.618,-1.6229,-1.5674,-1.6211,-1.6919,-1.7614,-1.7554,-1.8324,-1.9433,0.0,0.0,0.0,0.0,0.0,0.0,0.0,0.0,0.0,0.0,0.0,0.0,0.0,0.0,-0.0504,-0.1003,0.0,0.0,0.0,0.0,0.0,-0.3525,-0.3597,0.0,-0.3636,-0.4217,-0.3268,0.0,0.0,0.0,0.1876,0.1004,0.0347,-0.0096,0.0041,0.1001,0.2377,0.0,0.0,0.0,0.1768,0.1921,0.2434,0.2838,0.2567,0.1833,0.0709,-0.0019,-0.0852,-0.3531,-0.4392,-0.4555,-0.5909,-0.6339,-0.6424,0.0,0.0,0.0,-0.4128,-0.3296,-0.2746,-0.2671,-0.2259,-0.2002,-0.2445,-0.2772,-0.3209,-0.3963,-0.4287,-0.4368,-0.4211,-0.5198,-0.6149,-0.6523,-0.6422,-0.6666,-0.7734,-0.7872,-0.8366,-0.9712,-1.0122,-1.0563,-1.1216,-1.1512,-1.163,-1.1489,-1.1482,-1.1873,-1.2724,-1.2156,-1.2509,-1.4137,-1.3834,-1.4106,-1.5033,-1.5722,-1.6079,-1.6098,-1.6411,-1.5767,-1.4324,-1.5408,-1.5479,-1.4785,-1.4863,-1.5011,-1.5265,-1.6202,-1.6562,-1.6524,-1.6497,-1.7294,-1.8309,-1.7235,-1.7894,-1.9337,0.0,0.0,0.0,0.0,0.0,0.0,0.0,0.0,0.0,0.0,0.0,0.0,0.0,0.0594,0.0064,-0.0327,-0.138,0.0,0.0,0.0,0.0,-0.2994,-0.3125,-0.3247,-0.3346,-0.3436,0.0,0.0,0.0,0.2383,0.2036,0.2079,0.2111,0.2064,0.0767,0.0825,0.1837,0.1053,0.1542,0.281,0.2451,0.2452,0.2663,0.272,0.275,0.2626,0.1527,0.0471,-0.0707,-0.2753,-0.3814,-0.4475,-0.552,-0.582,-0.5823,-0.6037,-0.5648,-0.4975,-0.4179,-0.3836,-0.3224,-0.1236,-0.151,-0.1897,-0.0457,-0.1147,-0.2288,-0.2967,-0.3571,-0.3999,-0.4038,-0.4766,-0.5314,-0.5207,-0.5502,-0.5997,-0.6707,-0.7202,-0.7865,-0.8879,-0.9842,-1.056,-1.0946,-1.1408,-1.1703,-1.1696,-1.1681,-1.2052,-1.2863,-1.2765,-1.3021,-1.3791,-1.4195,-1.4787,-1.5564,-1.5471,-1.5497,-1.5655,-1.5352,-1.4921,-1.4458,-1.4956,-1.5095,-1.4936,-1.503,-1.5124,-1.527,-1.6165,-1.623,-1.5814,-1.6261,-1.6979,-1.7656,-1.6985,-1.7623,-1.8854,0.0,0.0,0.0,0.0,0.0,0.0,0.0,0.0,0.0,0.0,0.0,0.0,0.0,0.0,0.0443,0.0031,-0.104,-0.1679,-0.164,-0.2283,-0.2598,-0.2433,-0.264,-0.2798,-0.289,0.0,0.0,0.0,0.0,0.0,0.0,0.3008,0.3261,0.3175,0.1885,0.1519,0.0,0.1463,0.1953,0.2987,0.278,0.2643,0.2589,0.279,0.2852,0.2672,0.1468,0.066,-0.0197,-0.2594,-0.403,-0.4873,-0.5243,-0.5418,-0.543,-0.5258,-0.5276,-0.5242,-0.4634,-0.4343,-0.3612,-0.1174,-0.1301,-0.1483,0.0589,-0.0232,-0.1531,-0.1897,-0.2439,-0.3006,-0.3449,-0.3824,-0.4163,-0.451,-0.4921,-0.5398,-0.5953,-0.6673,-0.7443,-0.8265,-0.9342,-1.0243,-1.0807,-1.1247,-1.1572,-1.1775,-1.1869,-1.2152,-1.2702,-1.2858,-1.3073,-1.3388,-1.4043,-1.4766,-1.5592,-1.5039,-1.4991,-1.5418,-1.4745,-1.4462,-1.4534,-1.4728,-1.4875,-1.5011,-1.5139,-1.5217,-1.5295,-1.6197,-1.6248,-1.5782,-1.6235,-1.6745,-1.7213,-1.6848,-1.7394,-1.8447,0.0,0.0,0.0,0.0,0.0,0.0,0.0,0.0,0.0,0.0,0.0,0.0,0.0,0.0,0.0,0.0098,-0.0371,-0.0761,-0.1023,-0.1481,-0.1782,-0.1848,0.0,0.0,0.0,0.0,0.0,0.0,0.0,0.0,0.0,0.0,0.3542,0.3125,0.3272,0.3076,0.2587,0.1598,0.1756,0.2682,0.2715,0.2484,0.2211,0.3034,0.2817,0.1901,0.0454,0.0481,0.0641,-0.308,-0.4968,-0.5662,-0.5069,-0.5107,-0.5237,-0.4576,-0.5256,-0.6069,0.0,0.0,0.0,-0.2587,-0.1645,-0.0698,0.0515,-0.0079,-0.0836,-0.0688,-0.0821,-0.1275,-0.2332,-0.2299,-0.2714,-0.4524,-0.4688,-0.4839,-0.5573,-0.629,-0.7064,-0.7959,-0.865,-0.9571,-1.0857,-1.1036,-1.1287,-1.1766,-1.1991,-1.2138,-1.2205,-1.2343,-1.26,-1.2979,-1.3278,-1.3919,-1.4956,-1.4389,-1.4571,-1.5456,-1.4818,-1.4541,-1.4614,-1.4747,-1.4883,-1.5021,-1.5146,-1.5241,-1.5363,-1.6288,-1.6629,-1.6541,-1.6414,-1.6693,-1.713,-1.6807,-1.7239,-1.8117,0.0,0.0,0.0,0.0,0.0,0.0,0.0,0.0,0.0,0.0,0.0,0.0,0.0,0.0,0.1445,0.1248,0.0889,0.0562,0.0287,-0.0208,-0.0589,-0.0803,-0.1167,-0.1586,0.0,0.0,0.0,0.0,0.0,0.0,0.0,0.0,0.0,0.0,0.3788,0.3838,0.3862,0.3137,0.3421,0.4299,0.3876,0.3277,0.2558,0.2074,0.1882,0.177,0.0974,0.0021,-0.1049,-0.2203,-0.3671,-0.4941,-0.4629,-0.4609,-0.4607,-0.4271,-0.4358,-0.4543,-0.4485,0.0,0.0,0.0,0.0,0.0,-0.0236,-0.0105,-0.0365,0.0256,0.0189,-0.0105,-0.05,-0.0553,-0.1094,-0.2812,-0.3737,-0.4468,-0.5098,-0.5376,-0.5961,-0.7224,-0.7832,-0.8773,-1.0333,-1.0686,-1.1147,-1.1967,-1.207,-1.2138,-1.2266,-1.2623,-1.2924,-1.314,-1.3462,-1.382,-1.4273,-1.4208,-1.4353,-1.4702,-1.4614,-1.4603,-1.4687,-1.4804,-1.496,-1.5075,-1.522,-1.5283,-1.533,-1.5585,-1.5671,-1.5659,-1.5518,-1.5822,-1.6359,-1.6556,-1.697,-1.7619,0.0,0.0,0.0,0.0,0.0,0.0,-0.0135,0.0084,0.0,0.0,0.0,0.0,0.0,0.0,0.1893,0.2252,0.1851,0.1495,0.1309,0.0857,0.046,0.0193,-0.023,-0.0811,-0.1566,0.0,0.0,0.0,0.0,0.0,0.0,0.0,0.0,0.0,0.0,0.0,0.4063,0.3517,0.3828,0.4572,0.3392,0.2636,0.2128,0.129,0.1029,0.1046,0.0429,-0.0166,-0.081,-0.1812,-0.3054,-0.4235,-0.442,-0.4518,-0.4501,-0.4125,-0.4476,-0.4981,-0.4996,-0.5606,-0.5899,-0.4451,0.0,0.0,-0.0898,-0.0312,-0.0035,0.1389,0.1622,0.1405,0.0881,0.0915,0.0384,-0.1536,-0.2437,-0.3311,-0.454,-0.4921,-0.5379,-0.6218,-0.704,-0.804,-0.9266,-0.9967,-1.0741,-1.1662,-1.1969,-1.2386,-1.2934,-1.3306,-1.3589,-1.3785,-1.4056,-1.4184,-1.4123,-1.4206,-1.4314,-1.4492,-1.4589,-1.4685,-1.4747,-1.4849,-1.5,-1.5133,-1.4869,-1.4973,-1.5307,-1.4941,-1.4978,-1.5241,-1.5112,-1.522,-1.5523,-1.5963,-1.6527,-1.7179,0.0,0.0,0.0,-0.1138,-0.092,-0.0546,0.0115,0.0193,0.056,0.0,0.0,0.0,0.0,0.0,0.0,0.0,0.2629,0.2246,0.2155,0.1795,0.15,0.1288,0.0803,0.0169,-0.0606,-0.118,0.0,0.0,0.0,0.0,0.0,0.0,0.0,0.0,0.0,0.0,0.0,0.3169,0.332,0.366,0.203,0.1265,0.1055,0.0523,0.019,-0.0067,-0.0682,-0.0295,0.0192,-0.1823,-0.2863,-0.345,-0.4342,-0.4583,-0.4463,-0.4074,-0.4998,-0.6106,-0.5964,-0.6664,-0.7285,-0.6639,-0.5963,0.0,-0.1684,-0.0824,-0.0025,0.2247,0.2925,0.2876,0.2066,0.2277,0.1818,-0.0449,-0.0805,-0.1558,-0.3731,-0.459,-0.4992,-0.5037,-0.6244,-0.7347,-0.8063,-0.923,-1.0297,-1.1175,-1.196,-1.2846,-1.3889,-1.4225,-1.4489,-1.4761,-1.488,-1.4783,-1.4425,-1.4356,-1.4409,-1.4585,-1.4683,-1.4736,-1.4804,-1.4857,-1.495,-1.501,-1.441,-1.4568,-1.5195,-1.4508,-1.4623,-1.5183,-1.505,-1.4877,-1.4773,-1.5397,-1.6073,-1.6738,0.0,0.0,0.0,-0.0553,-0.0568,-0.0345,0.0275,0.053,0.0,0.0,0.0,0.0,0.0,0.0,0.0,0.0,0.3508,0.3346,0.3073,0.2866,0.2835,0.3007,0.2364,0.1915,0.1736,0.0183,0.0,0.0,0.0,0.0,0.0,0.0,0.0,0.0,0.0,0.0,0.0,0.2977,0.2398,0.1327,0.1659,0.0788,-0.07,-0.076,-0.0952,-0.1147,-0.0969,-0.11,-0.1491,-0.2313,-0.2345,-0.2384,-0.4248,-0.393,-0.3072,-0.4077,-0.4125,-0.3995,-0.4699,-0.5668,-0.6275,-0.5396,-0.5802,0.0,-0.3408,-0.2275,-0.1088,0.1087,0.2127,0.2901,0.3773,0.4101,0.3495,0.1269,0.1345,0.0728,-0.2057,-0.3147,-0.3743,-0.3957,-0.5317,-0.679,-0.8198,-0.9483,-1.0548,-1.1377,-1.2755,-1.3746,-1.4203,-1.5037,-1.5586,-1.5801,-1.5374,-1.5157,-1.5184,-1.4691,-1.4478,-1.4512,-1.4695,-1.4784,-1.4804,-1.4877,-1.4592,-1.4099,-1.4714,-1.4701,-1.4316,-1.4855,-1.5112,-1.519,-1.5043,-1.4871,-1.4825,-1.5909,-1.6164,-1.6182,0.0,0.0,-0.0342,-0.0692,-0.0496,-0.0108,0.0454,0.0642,0.0,0.0,0.0,0.0,0.0,0.0,0.0,0.0,0.0,0.0,0.3752,0.365,0.3629,0.3698,0.3509,0.3054,0.2317,0.2263,0.2419,0.0,0.0,0.0,0.0,0.0,0.0,0.0,0.0,0.0,0.0,0.1578,0.1082,0.0298,0.087,0.0139,-0.1289,-0.122,-0.1284,-0.1378,-0.125,-0.1089,-0.0954,-0.0988,-0.0804,-0.0767,-0.2015,-0.2701,-0.3126,-0.3529,-0.3773,-0.4035,-0.4678,-0.5616,-0.6363,-0.6239,-0.6265,0.0,0.0,-0.2994,-0.1579,0.0271,0.1397,0.2303,0.3098,0.4037,0.4074,0.2166,0.2043,0.1434,-0.0744,-0.1572,-0.2282,-0.3202,-0.4217,-0.5537,-0.7281,-0.8939,-1.0543,-1.2128,-1.3037,-1.3951,-1.499,-1.5548,-1.6165,-1.6834,-1.6159,-1.5711,-1.5542,-1.4854,-1.4541,-1.4592,-1.4744,-1.4803,-1.4804,-1.4868,-1.4509,-1.3838,-1.4332,-1.4348,-1.4023,-1.4475,-1.5063,-1.5656,-1.5144,-1.5057,-1.5295,-1.5741,-1.6127,-1.6572,-0.0235,0.0,-0.0271,-0.0732,-0.0325,0.0249,0.0754,0.0829,0.0,0.0,0.0,0.0,0.0,0.3528,0.3877,0.0,0.0,0.0,0.4484,0.4313,0.4151,0.4058,0.4324,0.3922,0.2751,0.4048,0.4256,0.3284,0.0,0.0,0.0,0.0,0.0,0.0,0.0,0.0,0.0,0.0062,-0.0149,-0.0265,-0.0174,-0.0604,-0.1289,-0.1341,-0.132,-0.1293,-0.1341,-0.0748,0.0133,0.0496,0.0346,-0.0138,-0.0964,-0.2274,-0.3485,-0.3338,-0.3836,-0.4497,-0.4918,-0.5696,-0.6548,-0.7091,-0.6646,-0.588,0.0,0.0,0.0,-0.0813,0.0312,0.1183,0.1643,0.3102,0.3807,0.2561,0.2081,0.1439,0.0191,-0.0277,-0.1048,-0.2574,-0.3599,-0.4795,-0.6403,-0.8448,-1.0619,-1.2885,-1.3176,-1.3956,-1.5574,-1.6027,-1.6677,-1.761,-1.686,-1.6268,-1.5916,-1.4982,-1.4581,-1.4672,-1.4764,-1.4794,-1.4785,-1.4841,-1.4474,-1.3786,-1.4041,-1.4092,-1.4004,-1.4173,-1.4912,-1.5885,-1.5316,-1.5457,-1.5962,-1.5807,-1.6338,-1.7134,0.0571,0.0577,0.0,0.0282,0.0497,0.0846,0.1257,0.1513,0.0,0.0,0.0,0.3641,0.4324,0.3783,0.3874,0.5112,0.4454,0.4446,0.5553,0.4938,0.4554,0.4602,0.4706,0.4705,0.46,0.4334,0.4358,0.4678,0.0,0.0,0.0,0.0,0.0,0.0,0.0812,0.042,0.0022,-0.0484,-0.0779,-0.0947,-0.1514,-0.1389,-0.0922,-0.1389,-0.1416,-0.1176,-0.0954,-0.0353,0.039,0.0615,-0.0576,-0.2596,-0.5194,-0.4548,-0.3126,-0.4651,-0.4434,-0.3873,-0.4552,-0.5221,-0.5757,-0.5874,-0.6144,-0.6412,-0.658,0.0,-0.4166,-0.2976,0.0,-0.0617,0.0543,0.0,0.0,0.2553,0.1895,0.116,0.0521,0.0145,-0.0595,-0.2029,-0.44,-0.6135,-0.6713,-0.8902,-1.1118,-1.3126,-1.3611,-1.4217,-1.5135,-1.6647,-1.7586,-1.7778,-1.7003,-1.6613,-1.667,-1.5294,-1.46,-1.4611,-1.4736,-1.4775,-1.4698,-1.4785,-1.4407,-1.3766,-1.467,-1.4649,-1.4061,-1.4837,-1.5111,-1.5101,-1.5583,-1.6151,-1.6739,-1.7191,-1.7276,-1.7205,0.1041,0.0931,0.0,0.0,0.1054,0.1344,0.1401,0.2363,0.0,0.0,0.0,0.4683,0.4501,0.4708,0.4979,0.5254,0.539,0.5364,0.5177,0.5274,0.5215,0.4881,0.486,0.4834,0.4778,0.4648,0.4609,0.4719,0.385,0.0,0.0,0.0,0.0,0.0,0.0284,-0.0162,-0.0694,-0.0683,-0.081,-0.1005,-0.1099,-0.09,-0.0652,-0.1421,-0.1548,-0.1304,-0.1185,-0.0527,0.0432,0.1373,-0.1155,-0.4849,-0.5591,-0.4726,-0.3606,-0.4453,-0.4426,-0.4302,-0.508,-0.5476,-0.5742,-0.6088,-0.6106,-0.6249,-0.7021,-0.6101,-0.4922,-0.4379,0.0,0.0,0.0,0.0,0.0,0.0,0.1008,0.0798,-0.0122,-0.1282,-0.2332,-0.3155,-0.4374,-0.6173,-0.8757,-0.9849,-1.1323,-1.3542,-1.3541,-1.4017,-1.5379,-1.6579,-1.7457,-1.7975,-1.7647,-1.7512,-1.7615,-1.6103,-1.5347,-1.534,-1.497,-1.4755,-1.4695,-1.4765,-1.438,-1.3698,-1.4704,-1.4717,-1.4061,-1.4898,-1.539,-1.56,-1.5735,-1.5895,-1.6095,-1.6661,-1.6976,-1.7235,0.1611,0.0,0.0,0.1239,0.1475,0.1655,0.1592,0.2798,0.3636,0.3426,0.4445,0.5112,0.4967,0.5455,0.5844,0.5987,0.6383,0.6279,0.5474,0.5772,0.5707,0.5064,0.4983,0.49,0.4762,0.4828,0.4725,0.4438,0.3742,0.0,0.0,0.0,0.0,0.0,-0.0105,-0.051,-0.0993,-0.0777,-0.0748,-0.0863,-0.09,-0.0918,-0.0958,-0.1331,-0.1485,-0.149,-0.1384,-0.078,0.0121,0.1253,-0.1446,-0.5257,-0.5259,-0.4862,-0.4419,-0.4641,-0.4765,-0.4972,-0.5633,-0.5876,-0.6092,-0.6644,-0.6597,-0.6574,-0.728,-0.6541,-0.5535,-0.4814,-0.4394,0.0,0.0,0.0,-0.0922,-0.0825,0.0,-0.0426,-0.1206,-0.2864,-0.4119,-0.4445,-0.5135,-0.6888,-1.0223,-1.0566,-1.1471,-1.3593,-1.3473,-1.4064,-1.5771,-1.6619,-1.7386,-1.8151,-1.8172,-1.8176,-1.8222,-1.6916,-1.6157,-1.5919,-1.5392,-1.5008,-1.4724,-1.4784,-1.4493,-1.4027,-1.48,-1.483,-1.4372,-1.4954,-1.5438,-1.5732,-1.5476,-1.527,-1.5266,-1.6259,-1.6835,-1.723,0.252,0.2076,0.0,0.2013,0.1812,0.1712,0.2032,0.257,0.3235,0.4057,0.3816,0.4281,0.6142,0.5679,0.5977,0.7851,0.7378,0.705,0.7197,0.6571,0.5868,0.5127,0.5096,0.5035,0.4905,0.4827,0.4541,0.4016,0.3411,0.2648,0.0,0.0,0.0,0.0,-0.0335,-0.0503,-0.0539,-0.0786,-0.0742,-0.0599,-0.1566,-0.2062,-0.2121,-0.1046,-0.1112,-0.1729,-0.1351,-0.098,-0.0637,-0.0389,-0.134,-0.2973,-0.5045,-0.5524,-0.5424,-0.5824,-0.5799,-0.5716,-0.6006,-0.6324,-0.6716,-0.7319,-0.7713,-0.7851,-0.7565,-0.716,-0.6228,-0.4009,-0.4097,-0.398,-0.203,-0.2872,-0.3418,-0.2076,-0.2533,0.0,0.0,-0.4148,-0.5298,-0.5432,-0.7292,-0.9045,-1.029,-1.0805,-1.1648,-1.3039,-1.3581,-1.4585,-1.6195,-1.6987,-1.77,-1.8372,-1.8317,-1.8289,-1.8302,-1.7547,-1.6765,-1.6003,-1.6042,-1.5629,-1.4803,-1.4804,-1.4867,-1.4954,-1.5138,-1.5179,-1.5165,-1.5184,-1.5096,-1.4916,-1.4651,-1.4422,-1.4495,-1.6672,-1.7308,-1.7164,0.308,0.0,0.2336,0.2082,0.2058,0.2194,0.2563,0.2671,0.3112,0.4242,0.477,0.5511,0.6791,0.7359,0.7804,0.8203,0.8005,0.7514,0.6682,0.6356,0.587,0.5135,0.5053,0.4933,0.4702,0.4501,0.4119,0.354,0.2896,0.2268,0.0,0.0,0.0,0.0,-0.0223,-0.0391,-0.0427,-0.0337,-0.0487,-0.0794,-0.1181,-0.1214,-0.1018,-0.0767,-0.103,-0.1554,-0.1729,-0.1581,-0.1378,-0.1934,-0.2796,-0.3761,-0.4529,-0.5213,-0.5776,-0.6009,-0.62,-0.6393,-0.6578,-0.6778,-0.7036,-0.7517,-0.7694,-0.7714,-0.7642,-0.722,-0.6458,-0.5091,-0.485,-0.4613,-0.381,-0.3258,-0.2808,-0.2432,-0.2383,-0.2648,0.0,-0.589,-0.8085,-0.9147,-0.9879,-1.0621,-1.151,-1.1729,-1.2519,-1.4166,-1.4538,-1.5229,-1.6437,-1.775,-1.8505,-1.8593,-1.9039,-1.9276,-1.9218,-1.7881,-1.7094,-1.6846,-1.5759,-1.5056,-1.4747,-1.4785,-1.4859,-1.4944,-1.5069,-1.516,-1.5203,-1.5197,-1.5081,-1.4931,-1.5189,-1.5116,-1.5009,-1.6198,-1.6464,-1.645,0.3553,0.3216,0.2817,0.2449,0.2438,0.2567,0.2858,0.284,0.3201,0.4415,0.5058,0.5938,0.7297,0.8122,0.8638,0.8822,0.8875,0.8276,0.6812,0.6622,0.6071,0.4965,0.4795,0.4588,0.4291,0.3991,0.3595,0.3095,0.2418,0.1935,0.161,0.0,0.0,0.0,-0.0035,-0.0212,-0.0283,-0.0058,-0.0166,-0.0485,-0.0649,-0.0756,-0.0807,-0.0682,-0.0904,-0.1341,-0.1719,-0.1666,-0.1658,-0.3215,-0.3911,-0.4198,-0.4808,-0.549,-0.6101,-0.6426,-0.6778,-0.7092,-0.7222,-0.7377,-0.7529,-0.7668,-0.7756,-0.7674,-0.7127,-0.6823,-0.6327,-0.5108,-0.4928,-0.4913,-0.4619,-0.3831,-0.3277,-0.349,-0.3474,-0.4041,0.0,-0.7951,-0.9941,-1.1484,-1.1351,-1.1441,-1.2157,-1.2546,-1.3249,-1.4454,-1.5221,-1.6055,-1.7043,-1.8338,-1.9093,-1.9239,-1.9629,-1.9804,-1.977,-1.8676,-1.7873,-1.7363,-1.6251,-1.5395,-1.4804,-1.4822,-1.4867,-1.4933,-1.5057,-1.5158,-1.5233,-1.5207,-1.5097,-1.4954,-1.5212,-1.528,-1.538,-1.6287,-1.6582,-1.6695,0.3918,0.3518,0.319,0.3136,0.2954,0.2853,0.2907,0.3032,0.3502,0.4599,0.4757,0.5578,0.7711,0.8024,0.8526,0.9703,0.9877,0.9239,0.7603,0.7264,0.6348,0.4646,0.431,0.4008,0.3658,0.335,0.301,0.2668,0.2036,0.1648,0.1509,0.0,0.0,0.0,0.0221,0.0078,-0.0022,0.0089,0.02,0.0267,-0.0088,-0.0762,-0.1471,-0.077,-0.0745,-0.1108,-0.1341,-0.1309,-0.154,-0.4139,-0.4512,-0.4169,-0.5735,-0.6245,-0.643,-0.707,-0.7474,-0.7725,-0.7869,-0.8052,-0.8125,-0.783,-0.7971,-0.7765,-0.6164,-0.6132,-0.5936,-0.4198,-0.4512,-0.498,-0.4524,-0.4663,-0.4933,-0.5259,-0.5805,-0.7126,-0.979,-1.0263,-1.0899,-1.2441,-1.1901,-1.1666,-1.2364,-1.3284,-1.3896,-1.4089,-1.5722,-1.7109,-1.8018,-1.8763,-1.949,-2.0186,-2.0007,-1.9901,-1.9904,-1.9797,-1.899,-1.751,-1.7388,-1.6526,-1.4998,-1.4928,-1.4944,-1.4996,-1.5063,-1.5173,-1.5285,-1.5232,-1.5115,-1.4985,-1.4757,-1.5001,-1.5648,-1.6905,-1.7547,-1.7799,0.347,0.3399,0.3453,0.3592,0.3334,0.312,0.3184,0.3305,0.386,0.5125,0.5591,0.6491,0.8303,0.8812,0.9239,0.9756,0.9294,0.8492,0.742,0.6473,0.5404,0.42,0.3849,0.3472,0.3044,0.2953,0.2665,0.2182,0.2052,0.1951,0.186,0.0,0.0,0.0,0.1014,0.0878,0.0932,0.0765,0.0542,0.0245,-0.0341,-0.072,-0.0904,-0.061,-0.0626,-0.0892,-0.1539,-0.1809,-0.203,-0.3273,-0.3852,-0.4151,-0.4772,-0.5575,-0.6348,-0.6572,-0.7139,-0.7725,-0.7869,-0.808,-0.8312,-0.8412,-0.8251,-0.7864,-0.7187,-0.7053,-0.6814,-0.5889,-0.6248,-0.6674,-0.6548,-0.663,-0.6755,-0.6894,-0.8064,-0.9465,-1.0872,-1.1649,-1.2693,-1.4389,-1.4331,-1.4233,-1.4365,-1.5057,-1.5863,-1.6807,-1.7772,-1.8471,-1.8868,-1.9687,-2.0174,-2.0277,-2.013,-2.0003,-1.9907,-1.9298,-1.8485,-1.7492,-1.6829,-1.5976,-1.4998,-1.493,-1.4947,-1.4992,-1.5061,-1.5143,-1.5215,-1.5215,-1.514,-1.5105,-1.5376,-1.6032,-1.6835,-1.702,-1.7283,-1.7626,0.3684,0.3614,0.3689,0.3903,0.38,0.3654,0.357,0.3582,0.3918,0.4857,0.5598,0.6539,0.7846,0.8448,0.9,0.9618,0.8669,0.7796,0.7244,0.6045,0.492,0.3914,0.3407,0.2946,0.2504,0.2404,0.2271,0.2088,0.1977,0.2037,0.2248,0.0,0.0,0.0,0.1378,0.1202,0.1161,0.101,0.0696,0.0267,-0.0077,-0.0285,0.0,-0.0542,-0.0544,-0.0575,-0.1258,-0.1674,-0.2019,-0.2944,-0.3486,-0.3921,-0.4622,-0.5489,-0.6318,-0.6776,-0.7323,-0.785,-0.8138,-0.828,-0.8406,-0.8463,-0.8214,-0.7833,-0.7318,-0.7088,-0.6953,-0.6811,-0.6974,-0.7355,-0.8095,-0.7819,-0.7746,-0.8553,-0.9472,-1.0782,-1.2814,-1.3539,-1.4504,-1.619,-1.6382,-1.653,-1.6856,-1.6862,-1.7136,-1.7844,-1.8606,-1.9082,-1.9191,-2.0027,-2.0448,-2.035,-2.0204,-2.0093,-1.9981,-1.9522,-1.8667,-1.7492,-1.7025,-1.6181,-1.4998,-1.4955,-1.4955,-1.4963,-1.5023,-1.5107,-1.5206,-1.5206,-1.5153,-1.5134,-1.5492,-1.6088,-1.6798,-1.6939,-1.7258,-1.7673,0.4134,0.3937,0.3863,0.4068,0.4207,0.4215,0.4014,0.3936,0.4035,0.4436,0.5336,0.6243,0.7086,0.7587,0.8235,0.9201,0.8136,0.7285,0.7006,0.5974,0.4906,0.386,0.3166,0.2617,0.2212,0.2002,0.1987,0.2174,0.1913,0.2065,0.0,0.0,0.0,0.0,0.153,0.1261,0.0931,0.0946,0.0663,0.0229,0.0344,0.0254,0.0011,-0.0372,-0.0342,-0.0176,-0.0662,-0.1124,-0.1679,-0.2776,-0.324,-0.3551,-0.4756,-0.5602,-0.6322,-0.7251,-0.7725,-0.8099,-0.8505,-0.8628,-0.8557,-0.8416,-0.8228,-0.7928,-0.7325,-0.7,-0.6969,-0.7462,-0.7342,-0.7616,-0.9124,-0.8689,-0.8702,-1.0577,-1.0789,-1.1869,-1.5151,-1.5592,-1.6165,-1.7791,-1.803,0.0,-1.9273,-1.8517,-1.8038,-1.8223,-1.8925,-1.9367,-1.9372,-2.009,-2.0465,-2.0401,-2.0283,-2.0183,-2.0107,-2.0048,-1.9181,-1.7499,-1.7572,-1.6698,-1.5006,-1.4995,-1.4971,-1.4921,-1.4976,-1.5075,-1.5197,-1.5197,-1.5131,-1.5072,-1.5188,-1.5538,-1.6011,-1.6524,-1.7079,-1.767,0.4038,0.39,0.3863,0.4068,0.4158,0.4268,0.4443,0.475,0.506,0.5399,0.6142,0.6879,0.752,0.7631,0.7784,0.8068,0.8018,0.7501,0.642,0.6359,0.5778,0.4498,0.3743,0.3171,0.2769,0.2507,0.2267,0.2033,0.2205,0.2354,0.0,0.0,0.0,0.0,0.1933,0.1299,0.0597,0.0652,0.0334,-0.0171,0.0175,0.0322,0.034,0.0424,0.0428,0.0352,0.0138,-0.0401,-0.1158,-0.201,-0.2643,-0.3201,-0.399,-0.5238,-0.6518,-0.6917,-0.7712,-0.8533,-0.8717,-0.8965,-0.917,-0.9183,-0.9132,-0.9085,-0.9169,-0.8618,-0.8247,-0.8831,-0.869,-0.8655,-0.928,-1.0139,-1.1533,-1.4005,-1.3853,-1.4345,-1.6981,-1.6852,-1.709,-1.8758,-1.8926,-1.9249,-2.0176,-1.9364,-1.9144,-1.9971,-2.0127,-2.0215,-2.0269,-2.0426,-2.0465,-2.0408,-2.0315,-2.0249,-2.0175,-2.0173,-1.9277,-1.7499,-1.7581,-1.6685,-1.5,-1.4944,-1.4944,-1.4984,-1.4984,-1.5087,-1.5197,-1.5201,-1.5057,-1.4825,-1.4592,-1.4778,-1.5185,-1.5055,-1.5736,-1.6808,0.3997,0.398,0.4035,0.4277,0.4386,0.4615,0.5098,0.5394,0.5592,0.5693,0.5985,0.6456,0.7196,0.7016,0.6981,0.7397,0.7026,0.6549,0.6074,0.5968,0.5565,0.4739,0.4195,0.3614,0.2974,0.2831,0.246,0.1843,0.2116,0.2215,0.214,0.2035,0.1956,0.1835,0.0843,0.0258,0.0013,-0.0187,-0.0312,-0.0313,0.0201,0.0446,0.0534,0.0806,0.0889,0.0851,0.0743,0.0467,-0.0042,-0.1227,-0.2123,-0.2872,-0.3662,-0.5126,-0.6633,-0.7118,-0.7993,-0.8899,-0.9277,-0.9528,-0.9686,-0.9777,-0.9699,-0.9595,-0.9804,-0.9487,-0.9178,-0.9357,-0.9415,-0.961,-1.0216,-1.1287,-1.2659,-1.4397,-1.4737,-1.5511,-1.7608,-1.7955,-1.8457,-1.9688,-1.9799,-1.9944,-2.0395,-2.0009,-1.993,-2.0458,-2.0433,-2.0428,-2.0508,-2.0501,-2.0474,-2.041,-2.0324,-2.0284,-2.0258,-2.018,-1.9267,-1.7508,-1.756,-1.6693,-1.5003,-1.4979,-1.4944,-1.4955,-1.4979,-1.5071,-1.5149,-1.5196,-1.5065,-1.4828,-1.4489,-1.4647,-1.5021,-1.4795,-1.5507,-1.6644,0.4084,0.4166,0.4273,0.4421,0.4609,0.4923,0.5545,0.5786,0.5877,0.5834,0.5833,0.6032,0.6582,0.622,0.612,0.6569,0.5809,0.5391,0.561,0.5479,0.5202,0.4738,0.4569,0.4037,0.306,0.2886,0.2444,0.1676,0.1854,0.1826,0.1649,0.1621,0.1258,0.0595,-0.0602,-0.1015,-0.084,-0.1065,-0.0949,-0.0529,0.013,0.042,0.0524,0.0949,0.1148,0.1207,0.1201,0.1121,0.0786,-0.067,-0.173,-0.2624,-0.358,-0.5211,-0.6908,-0.7542,-0.8452,-0.9334,-0.9855,-1.0072,-1.0173,-1.0285,-1.0184,-1.0106,-1.0305,-1.0175,-1.0018,-0.9983,-1.0211,-1.067,-1.1579,-1.2401,-1.3321,-1.4432,-1.5204,-1.6256,-1.7991,-1.8797,-1.9492,-2.0316,-2.0429,-2.0497,-2.0681,-2.0515,-2.0502,-2.076,-2.0562,-2.0524,-2.0759,-2.0607,-2.0566,-2.0699,-2.0455,-2.0301,-2.0295,-2.0178,-1.923,-1.7508,-1.7551,-1.6677,-1.5006,-1.4987,-1.4955,-1.4923,-1.4982,-1.5045,-1.513,-1.4996,-1.495,-1.4884,-1.4382,-1.4465,-1.4851,-1.465,-1.5361,-1.6399,0.433,0.4521,0.4581,0.4354,0.458,0.4934,0.5363,0.5694,0.5991,0.6207,0.6451,0.6389,0.5875,0.5552,0.5279,0.5035,0.4764,0.4631,0.4717,0.5363,0.5355,0.4469,0.4868,0.4509,0.3208,0.2523,0.1994,0.1609,0.1452,0.1305,0.1157,0.0795,-0.0011,-0.1177,-0.1668,-0.2011,-0.2167,-0.1606,-0.1317,-0.1139,-0.0295,0.0048,0.0137,0.0894,0.1204,0.1223,0.1473,0.1209,0.0564,-0.0622,-0.1601,-0.2543,-0.3774,-0.5612,-0.744,-0.7988,-0.9027,-1.0034,-1.021,-1.0447,-1.0632,-1.0656,-1.0784,-1.0987,-1.1358,-1.11,-1.0955,-1.148,-1.1651,-1.2078,-1.3259,-1.3649,-1.4327,-1.5992,-1.64,-1.7078,-1.8761,-1.9119,-1.9511,-2.0389,-2.0486,-2.0795,-2.1585,-2.091,-2.0764,-2.1611,-2.0937,-2.0839,-2.164,-2.0937,-2.0857,-2.1637,-2.085,-2.0359,-2.0307,-2.0175,-1.9221,-1.7491,-1.7511,-1.6628,-1.5,-1.4944,-1.4936,-1.4995,-1.4995,-1.5114,-1.5225,-1.4446,-1.4496,-1.4976,-1.3906,-1.3783,-1.4154,-1.3894,-1.4572,-1.5563,0.4309,0.4854,0.5494,0.5911,0.6118,0.617,0.5974,0.5961,0.5859,0.5613,0.5774,0.5908,0.5892,0.528,0.4505,0.3557,0.3081,0.2757,0.2631,0.2997,0.3153,0.3019,0.3305,0.3111,0.2379,0.2072,0.1542,0.0764,0.072,0.0525,0.0184,-0.029,-0.1163,-0.2339,-0.3146,-0.3273,-0.2855,-0.2591,-0.2084,-0.1402,-0.053,-0.0184,-0.0099,0.0618,0.0921,0.0989,0.1267,0.0995,0.0328,-0.0986,-0.2035,-0.3001,-0.4328,-0.6149,-0.793,-0.8456,-0.9564,-1.064,-1.0845,-1.1071,-1.1256,-1.1256,-1.1415,-1.1674,-1.1961,-1.1958,-1.1939,-1.2025,-1.2419,-1.2928,-1.3531,-1.4207,-1.5089,-1.6295,-1.6997,-1.7808,-1.8982,-1.9626,-2.0116,-2.0468,-2.0506,-2.0831,-2.1723,-2.0955,-2.0988,-2.2411,-2.1269,-2.0874,-2.1758,-2.1464,-2.144,-2.1784,-2.1359,-2.0853,-2.0318,-2.0161,-1.9249,-1.7556,-1.7556,-1.6654,-1.4995,-1.4971,-1.4955,-1.4947,-1.4987,-1.5095,-1.5171,-1.4332,-1.4424,-1.4998,-1.3883,-1.377,-1.4196,-1.3934,-1.4555,-1.5455,0.4321,0.5315,0.6357,0.6931,0.6986,0.684,0.6528,0.626,0.5782,0.4915,0.4702,0.4782,0.5172,0.4473,0.3511,0.2346,0.1582,0.1078,0.0849,0.0583,0.0676,0.1195,0.1102,0.1078,0.1149,0.1114,0.0757,0.0087,0.0054,-0.013,-0.0483,-0.1357,-0.2336,-0.3404,-0.418,-0.408,-0.3296,-0.3059,-0.24,-0.1452,-0.067,-0.0422,-0.0434,0.0236,0.0458,0.0439,0.0669,0.0386,-0.0325,-0.1678,-0.282,-0.3854,-0.4999,-0.6599,-0.8196,-0.8918,-0.9933,-1.094,-1.1379,-1.1637,-1.1753,-1.1753,-1.1897,-1.2123,-1.2352,-1.2569,-1.2691,-1.2743,-1.3243,-1.3726,-1.3948,-1.4627,-1.5386,-1.6014,-1.691,-1.773,-1.8342,-1.9407,-2.0129,-2.0116,-2.0563,-2.1216,-2.2069,-2.1546,-2.1671,-2.2905,-2.1667,-2.1233,-2.2107,-2.1933,-2.1796,-2.1774,-2.1679,-2.1184,-2.0277,-1.9887,-1.9002,-1.7566,-1.7291,-1.64,-1.4963,-1.4947,-1.4921,-1.4885,-1.4706,-1.4692,-1.4743,-1.3686,-1.371,-1.4316,-1.3525,-1.3522,-1.4009,-1.3962,-1.453,-1.5212,0.4455,0.5893,0.7042,0.6911,0.6569,0.643,0.6841,0.6557,0.5767,0.4302,0.3373,0.295,0.3294,0.2856,0.2227,0.148,0.0501,-0.0135,-0.0268,-0.1392,-0.1702,-0.0902,-0.1557,-0.1457,-0.0393,-0.0505,-0.0447,-0.0192,-0.0456,-0.0592,-0.0627,-0.2305,-0.3582,-0.449,-0.4573,-0.423,-0.3538,-0.2747,-0.1977,-0.125,-0.0709,-0.0698,-0.0911,-0.0248,-0.0192,-0.0461,-0.0327,-0.0751,-0.1561,-0.2771,-0.398,-0.5093,-0.5776,-0.6869,-0.8145,-0.934,-1.0173,-1.0902,-1.1763,-1.2086,-1.2169,-1.2107,-1.2149,-1.2291,-1.2633,-1.2799,-1.3124,-1.3924,-1.4283,-1.4571,-1.483,-1.4996,-1.5133,-1.5203,-1.5999,-1.6618,-1.6627,-1.8125,-1.922,-1.9214,-2.0737,-2.2109,-2.2904,-2.2979,-2.2971,-2.2995,-2.2174,-2.2076,-2.2944,-2.2238,-2.178,-2.1691,-2.1702,-2.1214,-2.0207,-1.9285,-1.8365,-1.7482,-1.6563,-1.5697,-1.4902,-1.4832,-1.4832,-1.4866,-1.4062,-1.3793,-1.3797,-1.2192,-1.1991,-1.2712,-1.256,-1.2835,-1.3373,-1.3829,-1.4299,-1.4641,0.4764,0.5413,0.6034,0.6135,0.6112,0.5951,0.5532,0.4742,0.3689,0.2308,0.2555,0.2591,0.1872,0.185,0.137,0.0079,-0.1413,-0.2395,-0.2675,-0.3735,-0.4031,-0.3315,-0.3295,-0.2978,-0.2326,-0.1639,-0.1223,-0.1086,-0.1262,-0.1637,-0.2174,-0.2668,-0.323,-0.3818,-0.3844,-0.3455,-0.2751,-0.2312,-0.1776,-0.1192,-0.0742,-0.0794,-0.1125,-0.1005,-0.1041,-0.1221,-0.1545,-0.2014,-0.263,-0.357,-0.4686,-0.5801,-0.6524,-0.7803,-0.918,-0.9798,-1.0897,-1.2007,-1.2313,-1.251,-1.2588,-1.2591,-1.2649,-1.2815,-1.3106,-1.341,-1.3754,-1.411,-1.4374,-1.4627,-1.4849,-1.4981,-1.5254,-1.5963,-1.6372,-1.6807,-1.7408,-1.8488,-1.9205,-1.9202,-2.0215,-2.1226,-2.2031,-2.1626,-2.1753,-2.2848,-2.1653,-2.1266,-2.2131,-2.194,-2.1764,-2.1705,-2.1666,-2.1166,-2.0207,-1.9221,-1.8268,-1.7348,-1.6507,-1.5649,-1.4813,-1.4195,-1.3952,-1.3977,-1.3118,-1.2845,-1.2988,-1.2502,-1.246,-1.276,-1.3202,-1.3373,-1.343,-1.3997,-1.4391,-1.4503,0.4232,0.4357,0.4217,0.3361,0.3278,0.3252,0.3039,0.2337,0.1413,0.0229,0.0844,0.1136,0.0421,0.1075,0.1014,-0.0356,-0.1649,-0.279,-0.373,-0.4478,-0.4692,-0.4271,-0.3983,-0.3582,-0.3062,-0.2322,-0.1731,-0.1314,-0.1424,-0.1933,-0.2825,-0.2682,-0.289,-0.3369,-0.3123,-0.2706,-0.2183,-0.1871,-0.1482,-0.1063,-0.0734,-0.0923,-0.1404,-0.1507,-0.1755,-0.2086,-0.2513,-0.2934,-0.3433,-0.4251,-0.5245,-0.6234,-0.6959,-0.8416,-0.9962,-1.0236,-1.1294,-1.2417,-1.2808,-1.298,-1.3051,-1.3018,-1.3106,-1.3261,-1.3493,-1.3833,-1.4119,-1.4224,-1.4439,-1.4687,-1.484,-1.4962,-1.5255,-1.5904,-1.6077,-1.6308,-1.686,-1.7937,-1.8675,-1.8667,-2.0016,-2.1145,-2.1618,-2.1557,-2.175,-2.2408,-2.1527,-2.1048,-2.1262,-2.1569,-2.1584,-2.1182,-2.1396,-2.0893,-1.9609,-1.8639,-1.7713,-1.6757,-1.5928,-1.5073,-1.4173,-1.3661,-1.3281,-1.2956,-1.2151,-1.1897,-1.2011,-1.1813,-1.175,-1.1875,-1.2961,-1.3233,-1.3126,-1.4035,-1.432,-1.4093,0.2918,0.2719,0.174,-0.0798,-0.1164,-0.0872,-0.0185,-0.0291,-0.0821,-0.1811,-0.1513,-0.1198,-0.1185,0.0389,0.0962,-0.0247,-0.0669,-0.1688,-0.3631,-0.3944,-0.4041,-0.4047,-0.3855,-0.3477,-0.2921,-0.2606,-0.1964,-0.098,-0.1022,-0.1556,-0.2551,-0.2285,-0.2475,-0.2959,-0.2367,-0.1968,-0.1758,-0.1402,-0.1107,-0.0863,-0.0709,-0.1077,-0.1723,-0.1842,-0.232,-0.2944,-0.3245,-0.3578,-0.3971,-0.4846,-0.5676,-0.6452,-0.7119,-0.8755,-1.0447,-1.0652,-1.1397,-1.2371,-1.3193,-1.3445,-1.3495,-1.3445,-1.3476,-1.3586,-1.3786,-1.4033,-1.4237,-1.4306,-1.4526,-1.4728,-1.4803,-1.4966,-1.512,-1.5201,-1.5263,-1.5299,-1.5292,-1.6743,-1.7796,-1.7785,-2.005,-2.1586,-2.1522,-2.2363,-2.2557,-2.1671,-2.1614,-2.1262,-2.0439,-2.1162,-2.1196,-2.0328,-2.0905,-2.0375,-1.8606,-1.7678,-1.6694,-1.5695,-1.4947,-1.4051,-1.3117,-1.3179,-1.2725,-1.1874,-1.1198,-1.0934,-1.0967,-1.0404,-1.0194,-1.0368,-1.2058,-1.2579,-1.2573,-1.3924,-1.4076,-1.3522,0.0511,0.0111,-0.0708,-0.2409,-0.1808,-0.104,-0.0862,-0.093,-0.1581,-0.3189,-0.2692,-0.2605,-0.3748,-0.1028,-0.0118,-0.2628,-0.1472,-0.1405,-0.3285,-0.4114,-0.4532,-0.4528,-0.4248,-0.4061,-0.4025,-0.2665,-0.1596,-0.0842,-0.0607,-0.0676,-0.1024,-0.0956,-0.0917,-0.0907,-0.0958,-0.084,-0.0606,-0.0669,-0.0679,-0.0698,-0.1007,-0.1388,-0.1861,-0.2589,-0.2917,-0.3069,-0.3742,-0.4099,-0.4381,-0.5211,-0.5982,-0.673,-0.7444,-0.9003,-1.0591,-1.0792,-1.1873,-1.3092,-1.3442,-1.3605,-1.3652,-1.3684,-1.383,-1.3983,-1.4083,-1.427,-1.4422,-1.4451,-1.4624,-1.4804,-1.4925,-1.5028,-1.5132,-1.5265,-1.5336,-1.5332,-1.5235,-1.6673,-1.7727,-1.7716,-1.9442,-2.0655,-2.0687,-2.0957,-2.0991,-2.0729,-2.0768,-2.0666,-2.04,-2.0557,-2.0514,-2.0227,-1.9707,-1.9116,-1.8535,-1.7001,-1.5425,-1.3842,-1.4156,-1.3551,-1.2209,-1.2173,-1.1711,-1.0882,-1.022,-0.9995,-1.0145,-1.0765,-1.0694,-1.0374,-1.2051,-1.2617,-1.258,-1.3374,-1.3671,-1.358,-0.1701,-0.2198,-0.2821,-0.3772,-0.3015,-0.2146,-0.1707,-0.1502,-0.1712,-0.2634,-0.2416,-0.3152,-0.5712,-0.3509,-0.2414,-0.3806,-0.1133,-0.0361,-0.2737,-0.3482,-0.3881,-0.3961,-0.3738,-0.3599,-0.3586,-0.2555,-0.1688,-0.0988,-0.0247,-0.0033,-0.0314,0.0,0.017,0.0209,0.0062,-0.0015,-0.0041,-0.0294,-0.0486,-0.0635,-0.0972,-0.1441,-0.2008,-0.2673,-0.313,-0.3497,-0.4107,-0.4547,-0.4924,-0.5628,-0.6338,-0.7112,-0.8109,-0.9465,-1.0749,-1.1371,-1.2448,-1.351,-1.3702,-1.3791,-1.3862,-1.3966,-1.406,-1.4175,-1.4264,-1.4399,-1.4511,-1.4541,-1.4677,-1.4832,-1.4976,-1.5082,-1.5052,-1.4748,-1.5338,-1.5652,-1.516,-1.6816,-1.7949,-1.7646,-1.8813,-1.9535,-1.9233,-1.9294,-1.9328,-1.9263,-1.9297,-1.9288,-1.9221,-1.913,-1.9227,-1.9596,-1.9019,-1.8268,-1.7319,-1.588,-1.4464,-1.3081,-1.3387,-1.2698,-1.1119,-1.1092,-1.0656,-0.9897,-0.9601,-0.9552,-0.9754,-1.0398,-1.0475,-1.0325,-1.1638,-1.2078,-1.2079,-1.3081,-1.3351,-1.3168,-0.3584,-0.4076,-0.4483,-0.4783,-0.426,-0.3467,-0.2576,-0.2133,-0.1841,-0.1731,-0.1912,-0.3407,-0.6935,-0.6092,-0.5082,-0.4624,-0.1678,-0.0601,-0.2358,-0.2702,-0.2871,-0.2958,-0.281,-0.2653,-0.2481,-0.2226,-0.172,-0.0958,0.0203,0.0596,0.0265,0.0867,0.1081,0.0948,0.0865,0.064,0.0264,-0.0074,-0.0363,-0.0624,-0.0883,-0.1441,-0.2159,-0.2572,-0.3213,-0.3952,-0.4406,-0.4884,-0.542,-0.6089,-0.6724,-0.7469,-0.8848,-0.9934,-1.0908,-1.1889,-1.2871,-1.3702,-1.3859,-1.3955,-1.4046,-1.4185,-1.4219,-1.4252,-1.4392,-1.4469,-1.4545,-1.4592,-1.4707,-1.485,-1.4976,-1.5101,-1.4983,-1.4318,-1.5394,-1.6011,-1.5127,-1.693,-1.8087,-1.7387,-1.8147,-1.8487,-1.787,-1.7911,-1.7969,-1.7929,-1.7907,-1.7877,-1.7805,-1.7676,-1.7872,-1.8466,-1.8317,-1.7396,-1.5681,-1.4605,-1.361,-1.2679,-1.2608,-1.1666,-1.0008,-1.0106,-0.9743,-0.9047,-0.9191,-0.9349,-0.9562,-0.9782,-0.9986,-1.0254,-1.1006,-1.1311,-1.1457,-1.2693,-1.2863,-1.2499,-0.4584,-0.4981,-0.5253,-0.5069,-0.4544,-0.3881,-0.3175,-0.3148,-0.3195,-0.3169,-0.3202,-0.4163,-0.663,-0.6973,-0.6823,-0.6359,-0.7585,-0.681,-0.3066,-0.2913,-0.2774,-0.2358,-0.2047,-0.1898,-0.1928,-0.1392,-0.0696,0.015,0.1076,0.1643,0.1854,0.2128,0.2205,0.2108,0.1655,0.1176,0.0677,0.0354,-0.0112,-0.0648,-0.1187,-0.1717,-0.2268,-0.2995,-0.3536,-0.3986,-0.46,-0.5068,-0.5526,-0.6478,-0.7046,-0.7635,-0.9137,-1.0158,-1.0887,-1.1394,-1.2491,-1.3575,-1.3763,-1.3938,-1.4119,-1.4255,-1.4338,-1.4392,-1.4476,-1.4585,-1.4661,-1.4614,-1.4755,-1.4914,-1.4987,-1.5101,-1.5183,-1.5101,-1.5862,-1.6135,-1.5133,-1.6521,-1.7344,-1.6495,-1.7283,-1.7883,-1.7886,-1.7895,-1.793,-1.7988,-1.7928,-1.7862,-1.781,-1.7729,-1.7363,-1.6637,-1.6517,-1.5855,-1.455,-1.3549,-1.2581,-1.1709,-1.1582,-1.0684,-0.9112,-0.9626,-0.9459,-0.8773,-0.8912,-0.9069,-0.9287,-0.9603,-0.9887,-1.0124,-1.0339,-1.0809,-1.1392,-1.146,-1.1665,-1.1935,-0.533,-0.5214,-0.5117,-0.5108,-0.4604,-0.4145,-0.3924,-0.389,-0.3793,-0.3527,-0.4389,-0.5621,-0.7269,-0.7836,-0.7771,-0.6941,-0.8372,-0.8067,-0.5083,-0.4685,-0.3991,-0.2682,-0.2591,-0.2463,-0.2231,-0.1642,-0.095,-0.0192,0.0998,0.1828,0.2271,0.2818,0.298,0.276,0.2223,0.1688,0.1151,0.0708,0.0187,-0.0374,-0.0869,-0.1411,-0.2028,-0.2913,-0.3626,-0.4277,-0.5059,-0.5697,-0.6313,-0.6953,-0.7474,-0.8159,-0.9748,-1.025,-1.0549,-1.2037,-1.2736,-1.3152,-1.3748,-1.398,-1.4091,-1.426,-1.435,-1.4428,-1.4533,-1.4632,-1.4705,-1.4707,-1.4776,-1.4886,-1.4981,-1.5088,-1.5004,-1.4607,-1.5526,-1.5952,-1.4977,-1.6215,-1.6958,-1.6177,-1.6576,-1.6791,-1.6529,-1.6508,-1.6534,-1.6599,-1.654,-1.6475,-1.6389,-1.6298,-1.5795,-1.4828,-1.4985,-1.4757,-1.4101,-1.3461,-1.2491,-1.1273,-1.1082,-1.0212,-0.88,-0.8981,-0.8923,-0.8712,-0.8761,-0.8932,-0.9143,-0.9,-0.9386,-1.0019,-0.9637,-0.9985,-1.0724,-1.0956,-1.11,-1.1248,-0.5793,-0.5349,-0.4961,-0.4952,-0.4805,-0.4745,-0.4894,-0.4904,-0.4748,-0.4384,-0.5657,-0.7023,-0.8106,-0.8567,-0.8452,-0.7623,-0.8387,-0.8368,-0.7116,-0.6593,-0.5344,-0.3166,-0.3168,-0.3001,-0.2577,-0.2327,-0.1904,-0.1331,-0.0099,0.0941,0.18,0.2524,0.289,0.2907,0.2406,0.1852,0.1285,0.09,0.0324,-0.0312,-0.0644,-0.1295,-0.2169,-0.3068,-0.3944,-0.4847,-0.5704,-0.6449,-0.7075,-0.7459,-0.7921,-0.8589,-1.006,-1.031,-1.0428,-1.2316,-1.274,-1.2791,-1.3729,-1.3995,-1.405,-1.4247,-1.4356,-1.4439,-1.456,-1.4656,-1.4746,-1.4785,-1.4794,-1.4822,-1.4927,-1.5005,-1.4862,-1.4247,-1.524,-1.5771,-1.4821,-1.5762,-1.6228,-1.5507,-1.5382,-1.5183,-1.4727,-1.4866,-1.5022,-1.5068,-1.5049,-1.4998,-1.4912,-1.4615,-1.4125,-1.3467,-1.3712,-1.3806,-1.3736,-1.3098,-1.2163,-1.0951,-1.04,-0.9609,-0.862,-0.8454,-0.8467,-0.8604,-0.8455,-0.8638,-0.8967,-0.8305,-0.8683,-0.9617,-0.9095,-0.9273,-0.987,-1.0474,-1.0542,-1.044,-0.5756,-0.5606,-0.5253,-0.4646,-0.5422,-0.6141,-0.6171,-0.6583,-0.6868,-0.6838,-0.7223,-0.7868,-0.8824,-0.9007,-0.9122,-0.9208,-0.9752,-0.9589,-0.8426,-0.787,-0.6285,-0.3399,-0.3052,-0.2803,-0.2514,-0.3245,-0.3496,-0.3204,-0.2721,-0.1539,0.0273,0.0516,0.128,0.2432,0.2026,0.1438,0.0762,0.0777,0.016,-0.0857,-0.094,-0.1863,-0.3271,-0.4026,-0.4876,-0.5812,-0.6623,-0.7097,-0.7429,-0.7966,-0.8298,-0.8663,-0.964,-1.0361,-1.0893,-1.1268,-1.1918,-1.2731,-1.3729,-1.3998,-1.404,-1.4252,-1.4344,-1.4434,-1.4581,-1.4695,-1.4784,-1.4803,-1.4804,-1.4794,-1.4802,-1.4868,-1.492,-1.4919,-1.5581,-1.577,-1.4832,-1.4907,-1.4719,-1.3784,-1.3202,-1.2856,-1.2793,-1.3594,-1.4106,-1.4093,-1.416,-1.4165,-1.4089,-1.3243,-1.2832,-1.295,-1.287,-1.2959,-1.3244,-1.1677,-1.0781,-1.0527,-0.9139,-0.8459,-0.8409,-0.8343,-0.8311,-0.83,-0.7735,-0.8006,-0.8731,-0.7633,-0.7787,-0.8715,-0.8846,-0.889,-0.897,-0.9574,-0.9666,-0.9547,-0.7749,-0.6858,-0.5734,-0.547,-0.613,-0.6693,-0.6794,-0.6977,-0.7171,-0.7376,-0.784,-0.8322,-0.876,-0.9028,-0.9171,-0.9215,-0.9811,-0.9109,-0.6559,-0.7178,-0.6658,-0.4452,-0.3503,-0.3032,-0.3056,-0.371,-0.3592,-0.2657,-0.3301,-0.2868,-0.1435,-0.09,-0.0422,0.0017,0.0771,0.0793,0.0292,0.055,0.0082,-0.0869,-0.1278,-0.2231,-0.3541,-0.4567,-0.5529,-0.6473,-0.7314,-0.7816,-0.813,-0.8418,-0.8624,-0.8876,-0.9613,-0.9703,-0.9749,-1.0859,-1.217,-1.335,-1.3853,-1.4026,-1.4082,-1.4203,-1.3981,-1.3725,-1.379,-1.3903,-1.399,-1.3999,-1.442,-1.4654,-1.4147,-1.4454,-1.4621,-1.4141,-1.4691,-1.5037,-1.4629,-1.4231,-1.384,-1.3531,-1.2936,-1.258,-1.2646,-1.2974,-1.3201,-1.3246,-1.328,-1.3251,-1.3196,-1.2192,-1.1729,-1.1961,-1.1681,-1.1761,-1.2255,-1.1355,-1.0418,-0.9499,-0.8896,-0.8452,-0.815,-0.8125,-0.8109,-0.8088,-0.7557,-0.756,-0.7846,-0.6745,-0.6854,-0.7751,-0.8007,-0.8385,-0.8877,-0.9426,-0.95,-0.9375,-0.8156,-0.7241,-0.6224,-0.6336,-0.6681,-0.7026,-0.7235,-0.7314,-0.7484,-0.7841,-0.8229,-0.8596,-0.8811,-0.9222,-0.9384,-0.9146,-0.978,-0.8723,-0.527,-0.6119,-0.6395,-0.5594,-0.4578,-0.4143,-0.4329,-0.4779,-0.4628,-0.3835,-0.475,-0.468,-0.3671,-0.3194,-0.2722,-0.2231,-0.1079,-0.0767,-0.1068,-0.0634,-0.0984,-0.1876,-0.2451,-0.3405,-0.4585,-0.562,-0.6519,-0.7285,-0.8018,-0.8412,-0.8613,-0.8749,-0.8858,-0.8998,-0.9404,-0.9326,-0.9388,-1.0758,-1.2032,-1.3069,-1.3472,-1.3671,-1.3806,-1.4175,-1.3926,-1.3567,-1.3366,-1.3606,-1.3812,-1.3579,-1.4176,-1.4503,-1.3709,-1.3943,-1.399,-1.3161,-1.3438,-1.3768,-1.3716,-1.3094,-1.2667,-1.274,-1.2148,-1.1746,-1.1836,-1.2115,-1.2323,-1.2382,-1.2383,-1.2223,-1.1879,-1.1011,-1.0675,-1.0983,-1.0514,-1.0429,-1.0745,-1.0642,-0.9953,-0.8731,-0.8521,-0.8227,-0.7884,-0.7942,-0.7957,-0.7895,-0.7193,-0.7079,-0.727,-0.6001,-0.6,-0.6811,-0.7064,-0.7664,-0.8447,-0.8943,-0.9161,-0.9224,-0.6343,-0.6465,-0.6706,-0.7042,-0.7107,-0.7219,-0.7545,-0.7768,-0.8055,-0.8444,-0.8508,-0.8652,-0.9067,-0.9699,-0.9857,-0.9258,-0.9797,-0.8659,-0.5125,-0.4919,-0.5483,-0.6752,-0.6346,-0.6198,-0.6407,-0.666,-0.7004,-0.7397,-0.7537,-0.7234,-0.6519,-0.6582,-0.5681,-0.4016,-0.3534,-0.3402,-0.3491,-0.2942,-0.3257,-0.4157,-0.4623,-0.5539,-0.6669,-0.7357,-0.7903,-0.8348,-0.8761,-0.8852,-0.883,-0.8953,-0.8996,-0.899,-0.8913,-0.9409,-1.0148,-1.0885,-1.1254,-1.1594,-1.2455,-1.2785,-1.314,-1.4143,-1.4338,-1.4125,-1.352,-1.4044,-1.4474,-1.3746,-1.411,-1.4357,-1.3617,-1.3373,-1.3006,-1.2139,-1.1991,-1.2001,-1.2002,-1.143,-1.1013,-1.1091,-1.0434,-0.9992,-0.9996,-1.0822,-1.1416,-1.1477,-1.147,-1.1044,-1.0052,-0.9681,-0.9681,-1.0071,-0.944,-0.8957,-0.8695,-0.9281,-0.9177,-0.8379,-0.7847,-0.7605,-0.7605,-0.7797,-0.7856,-0.7723,-0.6522,-0.6488,-0.7152,-0.5486,-0.5228,-0.5906,-0.6124,-0.6727,-0.754,-0.795,-0.8478,-0.8947,-0.6313,-0.6574,-0.6924,-0.7251,-0.7123,-0.7075,-0.7407,-0.7783,-0.8082,-0.8205,-0.8467,-0.8712,-0.8942,-0.9393,-0.9717,-0.9823,-0.7787,-0.6061,-0.5038,-0.6558,-0.7375,-0.71,-0.6221,-0.6088,-0.6811,-0.7372,-0.7443,-0.7044,-0.8459,-0.8718,-0.7914,-0.7928,-0.7544,-0.6827,-0.5606,-0.5095,-0.5142,-0.4553,-0.4617,-0.5133,-0.5647,-0.6334,-0.7099,-0.7772,-0.8379,-0.8889,-0.904,-0.9159,-0.9208,-0.9151,-0.9088,-0.8968,-0.8748,-0.9263,-0.997,-1.0249,-1.0804,-1.1408,-1.1759,-1.1972,-1.2425,-1.3999,-1.353,-1.2652,-1.2586,-1.2324,-1.2192,-1.2547,-1.2816,-1.2909,-1.2641,-1.2521,-1.216,-1.1231,-1.1515,-1.1873,-1.1921,-1.1342,-1.0982,-1.1156,-0.9973,-0.9171,-0.9229,-0.9523,-0.9705,-0.9673,-1.0107,-1.0228,-0.987,-0.9496,-0.9193,-0.8987,-0.9101,-0.8682,-0.7657,-0.8195,-0.8107,-0.7347,-0.7188,-0.7153,-0.7246,-0.7359,-0.7469,-0.7532,-0.637,-0.6037,-0.6233,-0.5118,-0.4794,-0.5071,-0.5938,-0.6403,-0.6708,-0.7734,-0.8075,-0.8044,-0.6295,-0.6488,-0.6794,-0.7219,-0.7219,-0.7298,-0.7621,-0.7926,-0.8203,-0.846,-0.8835,-0.9068,-0.9033,-0.9359,-0.9655,-0.9855,-0.7849,-0.6574,-0.6627,-0.7723,-0.8259,-0.8045,-0.7287,-0.7148,-0.7741,-0.812,-0.8122,-0.7696,-0.8835,-0.9292,-0.909,-0.9111,-0.8977,-0.8638,-0.7467,-0.6945,-0.6938,-0.6472,-0.6418,-0.6698,-0.7204,-0.7631,-0.8007,-0.8487,-0.8881,-0.9181,-0.9257,-0.9321,-0.9349,-0.9261,-0.9102,-0.8913,-0.8665,-0.8961,-0.9396,-0.943,-0.9874,-1.0441,-1.0864,-1.1112,-1.158,-1.3055,-1.2712,-1.1985,-1.1735,-1.1574,-1.1517,-1.1687,-1.201,-1.2148,-1.1781,-1.1627,-1.1251,-1.0322,-1.0463,-1.0742,-1.0859,-1.0494,-1.0221,-1.0175,-0.9311,-0.8633,-0.8409,-0.8425,-0.8565,-0.8844,-0.9211,-0.9499,-0.9675,-0.925,-0.8805,-0.8396,-0.8401,-0.8015,-0.7171,-0.7336,-0.7184,-0.6744,-0.6744,-0.6841,-0.702,-0.7009,-0.7034,-0.7056,-0.6122,-0.5646,-0.5461,-0.4845,-0.46,-0.4679,-0.5454,-0.5919,-0.6274,-0.7162,-0.7525,-0.7625,-0.6278,-0.6278,-0.647,-0.7026,-0.7376,-0.768,-0.7997,-0.8121,-0.8422,-0.906,-0.9448,-0.9559,-0.9275,-0.9522,-0.9635,-0.9483,-0.9214,-0.9078,-0.913,-0.8526,-0.8538,-0.9334,-0.9062,-0.8924,-0.9022,-0.8963,-0.8954,-0.901,-0.8951,-0.9298,-1.0017,-1.0083,-0.9948,-0.9606,-0.9065,-0.8788,-0.8713,-0.846,-0.8407,-0.8544,-0.8972,-0.9128,-0.9156,-0.9321,-0.9367,-0.9331,-0.9376,-0.9358,-0.9312,-0.9273,-0.9113,-0.8858,-0.866,-0.8604,-0.8604,-0.8612,-0.8745,-0.9055,-0.9864,-1.0243,-1.0592,-1.1461,-1.178,-1.171,-1.1064,-1.1475,-1.1797,-1.1132,-1.1521,-1.178,-1.1105,-1.0783,-1.034,-0.952,-0.9171,-0.9046,-0.9161,-0.9115,-0.8911,-0.8515,-0.8485,-0.8211,-0.7539,-0.7471,-0.7851,-0.8726,-0.8704,-0.8892,-0.9443,-0.8959,-0.851,-0.8182,-0.7563,-0.7162,-0.7075,-0.6689,-0.65,-0.6493,-0.6458,-0.6596,-0.6861,-0.6731,-0.6621,-0.6492,-0.5857,-0.5335,-0.4919,-0.4687,-0.459,-0.4612,-0.481,-0.5322,-0.5987,-0.6346,-0.6809,-0.7296,-0.6081,-0.6189,-0.651,-0.7219,-0.7392,-0.7469,-0.7545,-0.8313,-0.9022,-0.9358,-0.9447,-0.9497,-0.9586,-0.9661,-0.9559,-0.9214,-0.8835,-0.8824,-0.931,-0.9438,-0.9644,-0.9983,-0.9675,-0.9629,-0.9912,-0.9902,-0.9896,-0.991,-0.9905,-0.995,-1.0076,-1.0154,-1.0073,-0.9909,-0.9831,-0.9761,-0.9689,-0.9581,-0.9481,-0.9414,-0.9408,-0.9376,-0.935,-0.9385,-0.9448,-0.9527,-0.943,-0.9394,-0.9349,-0.9133,-0.8992,-0.8869,-0.8665,-0.8592,-0.8612,-0.8657,-0.8705,-0.8821,-0.9173,-0.9369,-0.9547,-0.9869,-1.0085,-1.0344,-1.0851,-1.0647,-1.0428,-1.0846,-1.0591,-1.0432,-1.0848,-1.0365,-0.9808,-0.9457,-0.9132,-0.8768,-0.8338,-0.8134,-0.7873,-0.747,-0.7524,-0.7291,-0.6567,-0.6542,-0.7169,-0.8607,-0.8461,-0.8594,-0.9224,-0.8706,-0.8252,-0.7979,-0.7562,-0.7178,-0.6785,-0.6693,-0.6599,-0.6495,-0.6171,-0.623,-0.6579,-0.6401,-0.6494,-0.6753,-0.5793,-0.5333,-0.5248,-0.4726,-0.4483,-0.4475,-0.4715,-0.4831,-0.4899,-0.5284,-0.5383,-0.5391,-0.6045,-0.6318,-0.6765,-0.7392,-0.7575,-0.7636,-0.7629,-0.8572,-0.932,-0.9439,-0.95,-0.954,-0.9549,-0.9607,-0.9508,-0.9167,-0.8913,-0.8968,-0.9412,-0.9705,-0.9969,-1.0231,-1.0054,-1.0011,-1.0191,-1.0195,-1.0213,-1.0249,-1.0213,-1.0173,-1.0109,-1.0166,-1.0145,-1.0057,-1.007,-1.0076,-1.0049,-0.9976,-0.9903,-0.9825,-0.9669,-0.9578,-0.9538,-0.9448,-0.9466,-0.9536,-0.9403,-0.9301,-0.9226,-0.8992,-0.8886,-0.8816,-0.8604,-0.8504,-0.8467,-0.8504,-0.8551,-0.8636,-0.8807,-0.9026,-0.9218,-0.9331,-0.9508,-0.9782,-1.0272,-1.0083,-0.9916,-1.0309,-1.0101,-0.9954,-1.0302,-1.0002,-0.9518,-0.8962,-0.8564,-0.8058,-0.7302,-0.7039,-0.674,-0.6207,-0.6356,-0.6259,-0.5676,-0.5655,-0.6156,-0.7319,-0.7214,-0.7475,-0.8293,-0.7886,-0.7629,-0.7606,-0.7254,-0.6885,-0.651,-0.6413,-0.6272,-0.6117,-0.5863,-0.587,-0.6064,-0.5852,-0.5971,-0.6276,-0.5462,-0.506,-0.4942,-0.4634,-0.446,-0.4431,-0.4651,-0.4583,-0.4404,-0.4841,-0.5061,-0.5147,-0.6081,-0.6561,-0.7139,-0.7605,-0.7912,-0.8125,-0.8162,-0.8884,-0.943,-0.9438,-0.9562,-0.9609,-0.9466,-0.9543,-0.9483,-0.9169,-0.9102,-0.9221,-0.962,-0.978,-0.9995,-1.0284,-1.0249,-1.0214,-1.0215,-1.0215,-1.0234,-1.0272,-1.0234,-1.0175,-1.0136,-1.017,-1.0174,-1.0112,-1.0117,-1.0108,-1.0106,-1.0021,-0.999,-0.9965,-0.9733,-0.9655,-0.9651,-0.9448,-0.9412,-0.9439,-0.9329,-0.9194,-0.9043,-0.8897,-0.8821,-0.8745,-0.8546,-0.8403,-0.8293,-0.828,-0.8383,-0.8534,-0.8703,-0.8962,-0.9199,-0.9312,-0.9466,-0.9595,-0.9646,-0.9717,-0.9772,-0.9758,-0.9815,-0.9849,-0.9798,-0.9736,-0.9382,-0.8416,-0.7918,-0.7277,-0.6205,-0.5907,-0.5541,-0.4842,-0.5087,-0.5279,-0.5173,-0.5071,-0.5274,-0.5941,-0.6023,-0.6439,-0.735,-0.7195,-0.7134,-0.73,-0.6908,-0.6569,-0.6313,-0.6122,-0.5904,-0.5649,-0.5537,-0.5526,-0.5609,-0.5366,-0.5383,-0.5611,-0.508,-0.4724,-0.4496,-0.4482,-0.4455,-0.444,-0.461,-0.4474,-0.4195,-0.443,-0.4771,-0.5072,-0.6224,-0.6848,-0.7484,-0.7955,-0.8534,-0.9009,-0.9242,-0.9206,-0.9259,-0.9543,-0.955,-0.9557,-0.9641,-0.9625,-0.9421,-0.8979,-0.8925,-0.9292,-1.0136,-1.0151,-1.0187,-1.031,-1.0247,-1.0226,-1.029,-1.0287,-1.0268,-1.0214,-1.0194,-1.0233,-1.0273,-1.0227,-1.02,-1.0182,-1.0195,-1.0153,-1.0107,-1.0022,-0.9973,-0.988,-0.9557,-0.9471,-0.9506,-0.9294,-0.9273,-0.9319,-0.9251,-0.9092,-0.8942,-0.8953,-0.8851,-0.8681,-0.8479,-0.8361,-0.828,-0.824,-0.8358,-0.8571,-0.8874,-0.9026,-0.9177,-0.9421,-0.9501,-0.9509,-0.9525,-0.9575,-0.9633,-0.9631,-0.9684,-0.9714,-0.9725,-0.9649,-0.929,-0.829,-0.7744,-0.6892,-0.531,-0.4766,-0.4252,-0.3462,-0.3868,-0.4643,-0.5755,-0.533,-0.5273,-0.5942,-0.6423,-0.6885,-0.7372,-0.7636,-0.7621,-0.7314,-0.6858,-0.6535,-0.6383,-0.6183,-0.5874,-0.5442,-0.5136,-0.5241,-0.5667,-0.5242,-0.5165,-0.5329,-0.4847,-0.4582,-0.45,-0.4442,-0.4436,-0.4504,-0.4585,-0.437,-0.3937,-0.3247,-0.3074,-0.3208,-0.6885,-0.7737,-0.8326,-0.8227,-0.8743,-0.9161,-0.9169,-0.9266,-0.9153,-0.8654,-0.9181,-0.926,-0.8351,-0.8419,-0.8726,-0.9202,-0.9033,-0.9282,-1.0193,-1.0252,-1.0243,-1.0232,-1.0212,-1.0215,-1.0245,-0.976,-0.9745,-1.02,-1.0194,-0.996,-0.9529,-0.9992,-1.0184,-1.0148,-1.0173,-1.0149,-1.0035,-1.0016,-0.9936,-0.9825,-0.9636,-0.9586,-0.9594,-0.9438,-0.9331,-0.9292,-0.9133,-0.9028,-0.8946,-0.8953,-0.8834,-0.8672,-0.8551,-0.8415,-0.8298,-0.8267,-0.8431,-0.8663,-0.8841,-0.9047,-0.9274,-0.9492,-0.9527,-0.949,-0.9499,-0.9524,-0.9565,-0.9643,-0.9702,-0.9757,-0.9745,-0.9365,-0.8732,-0.7751,-0.6926,-0.5897,-0.4494,-0.4074,-0.385,-0.3672,-0.3931,-0.4449,-0.5299,-0.5153,-0.5268,-0.5905,-0.5949,-0.6293,-0.7077,-0.7012,-0.6953,-0.6963,-0.6621,-0.6325,-0.6063,-0.5941,-0.5504,-0.4784,-0.4511,-0.4725,-0.529,-0.4622,-0.4604,-0.5038,-0.4342,-0.4235,-0.4552,-0.4357,-0.4381,-0.4492,-0.4492,-0.4079,-0.3423,-0.277,-0.2576,-0.2645]},{"header":{"parameterUnit":"m.s-1","parameterCategory":1,"la1":30.6,"la2":28.766,"lo1":-90.7593,"lo2":-88.6598,"dy":0.0162,"dx":0.0183,"nx":116,"ny":114,"refTime":"2023-05-19T12:00:00:Z","depth":0,"parameterNumber":3,"parameterNumberName":"V-component_of_WINDS"},"data":[0.0,0.0,0.0,0.0,0.0,0.0,0.0,0.0,0.0,0.0,0.0,0.0,0.0,0.0,0.0,0.0,0.0,0.0,0.0,0.0,0.0,0.0,0.0,0.0,0.0,0.0,0.0,0.0,0.0,0.0,0.0,0.0,0.0,0.0,0.0,0.0,0.0,0.0,0.0,0.0,0.0,0.0,0.0,0.0,0.0,0.0,0.0,0.0,0.0,0.0,0.0,0.0,0.0,0.0,0.0,0.0,0.0,0.0,0.0,0.0,0.0,0.0,0.0,0.0,0.0,0.0,0.0,0.0,0.0,0.0,0.0,0.0,0.0,0.0,0.0,0.0,0.0,0.0,0.0,0.0,0.0,0.0,0.0,0.0,0.0,0.0,0.0,0.0,0.0,0.0,0.0,0.0,0.0,0.0,0.0,0.0,0.0,0.0,0.0,0.0,0.0,0.0,0.0,0.0,0.0,0.0,0.0,0.0,0.0,0.0,0.0,0.0,0.0,0.0,0.0,0.0,0.0,0.0,0.0,0.0,0.0,0.0,0.0,0.0,0.0,0.0,0.0,0.0,0.0,0.0,0.0,0.0,0.0,0.0,0.0,0.0,0.0,0.0,0.0,0.0,0.0,0.0,0.0,0.0,0.0,0.0,0.0,0.0,0.0,0.0,0.0,0.0,0.0,0.0,0.0,0.0,0.0,0.0,0.0,0.0,0.0,0.0,0.0,0.0,0.0,0.0,0.0,0.0,0.0,0.0,0.0,0.0,0.0,0.0,0.0,0.0,0.0,0.0,0.0,0.0,0.0,0.0,0.0,0.0,0.0,0.0,0.0,0.0,0.0,0.0,0.0,0.0,0.0,0.0,0.0,0.0,0.0,0.0,0.0,0.0,0.0,0.0,0.0,0.0,0.0,0.0,0.0,0.0,0.0,0.0,0.0,0.0,0.0,0.0,0.0,0.0,0.0,0.0,0.0,0.0,0.0,0.0,0.0,0.0,0.0,0.0,0.0,0.0,0.0,0.0,0.0,0.0,0.0,0.0,0.0,0.0,0.0,0.0,0.0,0.0,0.0,0.0,0.0,0.0,0.0,0.0,0.0,0.0,0.0,0.0,0.0,0.0,0.0,0.0,0.0,0.0,0.0,0.0,0.0,0.0,0.0,0.0,0.0,0.0,0.0,0.0,0.0,0.0,0.0,0.0,0.0,0.0,0.0,0.0,0.0,0.0,0.0,0.0,0.0,0.0,0.0,0.0,0.0,0.0,0.0,0.0,0.0,0.0,0.0,0.0,0.0,0.0,0.0,0.0,0.0,0.0,0.0,0.0,0.0,0.0,0.0,0.0,0.0,0.0,0.0,0.0,0.0,0.0,0.0,0.0,0.0,0.0,0.0,0.0,0.0,0.0,0.0,0.0,0.0,0.0,0.0,0.0,0.0,0.0,0.0,0.0,0.0,0.0,0.0,0.0,0.0,0.0,0.0,0.0,0.0,0.0,0.0,0.0,0.0,0.0,0.0,0.0,0.0,0.0,0.0,0.0,0.0,0.0,0.0,0.0,0.0,0.0,0.0,0.0,0.0,0.0,0.0,0.0,0.0,0.0,0.0,0.0,0.0,0.0,0.0,0.0,0.0,0.0,0.0,0.0,0.0,0.0,0.0,0.0,0.0,0.0,0.0,0.0,0.0,0.0,0.0,0.0,0.0,0.0,0.0,0.0,0.0,0.0,0.0,0.0,0.0,0.0,0.0,0.0,0.0,0.0,0.0,0.0,0.0,0.0,0.0,0.0,0.0,0.0,0.0,0.0,0.0,0.0,0.0,0.0,0.0,0.0,0.0,0.0,0.0,0.0,0.0,0.0,0.0,0.0,0.0,0.0,0.0,0.0,0.0,0.0,0.0,0.0,0.0,0.0,0.0,0.0,0.0,0.0,0.0,0.0,0.0,0.0,0.0,0.0,0.0,0.0,0.0,0.0,0.0,0.0,0.0,0.0,0.0,0.0,0.0,0.0,0.0,0.0,0.0,0.0,0.0,0.0,0.0,0.0,0.0,0.0,0.0,0.0,0.0,0.0,0.0,0.0,0.0,0.0,0.0,0.0,0.0,0.0,0.0,0.0,0.0,0.0,0.0,0.0,0.0,0.0,0.0,0.0,0.0,0.0,0.0,0.0,0.0,0.0,0.0,0.0,0.0,0.0,0.0,0.0,0.0,0.0,0.0,0.0,0.0,0.0,0.0,0.0,0.0,0.0,0.0,0.0,0.0,0.0,0.0,0.0,0.0,0.0,0.0,0.0,0.0,0.0,0.0,0.0,0.0,0.0,0.0,0.0,0.0,0.0,0.0,0.0,0.0,0.0,0.0,0.0,0.0,0.0,0.0,0.0,0.0,0.0,0.0,0.0,0.0,0.0,0.0,0.0,0.0,0.0,0.0,0.0,0.0,0.0,0.0,0.0,0.0,0.0,0.0,0.0,0.0,0.0,0.0,0.0,0.0,0.0,0.0,0.0,0.0,0.0,0.0,0.0,0.0,0.0,0.0,0.0,0.0,0.0,0.0,0.0,0.0,0.0,0.0,0.0,0.0,0.0,0.0,0.0,0.0,0.0,0.0,0.0,0.0,0.0,0.0,0.0,0.0,0.0,0.0,0.0,0.0,0.0,0.0,0.0,0.0,0.0,0.0,0.0,0.0,0.0,0.0,0.0,0.0,0.0,0.0,0.0,0.0,0.0,0.0,0.0,0.0,0.0,0.0,0.0,0.0,0.0,0.0,0.0,0.0,0.0,0.0,0.0,0.0,0.0,0.0,0.0,0.0,0.0,0.0,0.0,0.0,0.0,0.0,0.0,0.0,0.0,0.0,0.0,0.0,0.0,0.0,0.0,0.0,0.0,0.0,0.0,0.0,0.0,0.0,0.0,0.0,0.0,0.0,0.0,0.0,0.0,0.0,0.0,0.0,0.0,0.0,0.0,0.0,0.0,0.0,0.0,0.0,0.0,0.0,0.0,0.0,0.0,0.0,0.0,0.0,0.0,0.0,0.0,0.0,0.0,0.0,0.0,0.0,0.0,0.0,0.0,0.0,0.0,0.0,0.0,0.0,0.0,0.0,0.0,0.0,0.0,0.0,0.0,0.0,0.0,0.0,0.0,0.0,0.0,0.0,0.0,0.0,0.0,0.0,0.0,0.0,0.0,0.0,0.0,0.0,0.0,0.0,0.0,0.0,0.0,0.0,0.0,0.0,0.0,0.0,0.0,0.0,0.0,0.0,0.0,0.0,0.0,0.0,0.0,0.0,0.0,0.0,0.0,0.0,0.0,0.0,0.0,0.0,0.0,0.0,0.0,0.0,0.0,0.0,0.0,0.0,0.0,0.0,0.0,0.0,0.0,0.0,0.0,0.0,0.0,0.0,0.0,0.0,0.0,0.0,0.0,0.0,0.0,0.0,0.0,0.0,0.0,0.0,0.0,0.0,0.0,0.0,0.0,0.0,0.0,0.0,0.0,0.0,0.0,0.0,0.0,0.0,0.0,0.0,0.0,0.0,0.0,0.0,0.0,0.0,0.0,0.0,0.0,0.0,0.0,0.0,0.0,0.0,0.0,0.0,0.0,0.0,0.0,0.0,0.0,0.0,0.0,0.0,0.0,0.0,0.0,0.0,0.0,0.0,0.0,0.0,0.0,0.0,0.0,0.0,0.0,0.0,0.0,0.0,0.0,0.0,0.0,0.0,0.0,0.0,0.0,0.0,0.0,0.0,0.0,0.0,0.0,0.0,0.0,0.0,0.0,0.0,0.0,0.0,0.0,0.0,0.0,0.0,0.0,0.0,0.0,0.0,0.0,0.0,0.0,0.0,0.0,0.0,0.0,0.0,0.0,0.0,0.0,0.0,0.0,0.0,0.0,0.0,0.0,0.0,0.0,0.0,0.0,0.0,0.0,0.0,0.0,0.0,0.0,0.0,0.0,0.0,0.0,0.0,0.0,0.0,0.0,0.0,0.0,0.0,0.0,0.0,0.0,0.0,0.0,0.0,0.0,0.0,0.0,0.0,0.0,0.0,0.0,0.0,0.0,0.0,0.0,0.0,0.0,0.0,0.0,0.0,0.0,0.0,0.0,0.0,0.0,0.0,0.0,0.0,0.0,0.0,0.0,0.0,0.0,0.0,0.0,0.0,0.0,0.0,0.0,0.0,0.0,0.0,0.0,0.0,0.0,0.0,0.0,0.0,0.0,0.0,0.0,0.0,0.0,0.0,0.0,0.0,0.0,0.0,0.0,0.0,0.0,0.0,0.0,0.0,0.0,0.0,0.0,0.0,0.0,0.0,0.0,0.0,0.0,0.0,0.0,0.0,0.0,0.0,0.0,0.0,0.0,0.0,0.0,0.0,0.0,0.0,0.0,0.0,0.0,0.0,0.0,0.0,0.0,0.0,0.0,0.0,0.0,0.0,0.0,0.0,0.0,0.0,0.0,0.0,0.0,0.0,0.0,0.0,0.0,0.0,0.0,0.0,0.0,0.0,0.0,0.0,0.0,0.0,0.0,0.0,0.0,0.0,0.0,0.0,0.0,0.0,0.0,0.0,0.0,0.0,0.0,0.0,0.0,0.0,0.0,0.0,0.0,0.0,0.0,0.0,0.0,0.0,0.0,0.0,0.0,0.0,0.0,0.0,0.0,0.0,0.0,0.0,0.0,0.0,0.0,0.0,0.0,0.0,0.0,0.0,0.0,0.0,0.0,0.0,0.0,0.0,0.0,0.0,0.0,0.0,0.0,0.0,0.0,0.0,0.0,0.0,0.0,0.0,0.0,0.0,0.0,0.0,0.0,0.0,0.0,0.0,0.0,0.0,0.0,0.0,0.0,0.0,0.0,0.0,0.0,0.0,0.0,0.0,0.0,0.0,0.0,0.0,0.0,0.0,0.0,0.0,0.0,0.0,0.0,0.0,0.0,0.0,0.0,0.0,0.0,0.0,0.0,0.0,0.0,0.0,0.0,0.0,0.0,0.0,0.0,0.0,0.0,0.0,0.0,0.0,0.0,0.0,0.0,0.0,0.0,0.0,0.0,0.0,0.0,0.0,0.0,0.0,0.0,0.0,0.0,0.0,0.0,0.0,0.0,0.0,0.0,0.0,0.0,0.0,0.0,0.0,0.0,0.0,0.0,0.0,0.0,0.0,0.0,0.0,0.0,0.0,0.0,0.0,0.0,0.0,0.0,0.0,0.0,0.0,0.0,0.0,0.0,0.0,0.0,0.0,0.0,0.0,0.0,0.0,0.0,0.0,0.0,0.0,0.0,0.0,0.0,0.0,0.0,0.0,0.0,0.0,0.0,0.0,0.0,0.0,0.0,0.0,0.0,0.0,0.0,0.0,0.0,0.0,0.0,0.0,0.0,0.0,0.0,0.0,0.0,0.0,0.0,0.0,0.0,0.0,0.0,0.0,0.0,0.0,0.0,0.0,0.0,0.0,0.0,0.0,0.0,0.0,0.0,0.0,0.0,0.0,0.0,0.0,0.0,0.0,0.0,0.0,0.0,0.0,0.0,0.0,0.0,0.0,0.0,0.0,0.0,0.0,0.0,0.0,0.0,0.0,0.0,0.0,0.0,0.0,0.0,0.0,0.0,0.0,0.0,0.0,0.0,0.0,0.0,0.0,0.0,0.0,0.0,0.0,0.0,0.0,0.0,0.0,0.0,0.0,0.0,0.0,0.0,0.0,0.0,0.0,0.0,0.0,0.0,0.0,0.0,0.0,0.0,0.0,0.0,0.0,0.0,0.0,0.0,0.0,0.0,0.0,0.0,0.0,0.0,0.0,0.0,0.0,0.0,0.0,0.0,0.0,0.0,0.0,0.0,0.0,0.0,0.0,0.0,0.0,0.0,0.0,0.0,0.0,0.0,0.0,0.0,0.0,0.0,0.0,0.0,0.0,0.0,0.0,0.0,0.0,0.0,0.0,0.0,0.0,0.0,0.0,0.0,0.0,0.0,0.0,0.0,0.0,0.0,0.0,0.0,0.0,0.0,0.0,0.0,0.0,0.0,0.0,0.0,0.0,0.0,0.0,0.0,0.0,0.0,0.0,0.0,0.0,0.0,0.0,0.0,0.0,0.0,0.0,0.0,0.0,0.0,-0.1333,-0.1647,0.0,0.0,0.0,0.0,0.0,0.0,0.0,0.0,0.0,0.0,0.0,0.0,0.0,0.0,0.0,0.0,0.0,0.0,0.0,0.0,0.0,0.0,0.0,0.0,0.0,0.0,0.0,0.0,0.0,0.0,0.0,0.0,0.0,0.0,0.0,0.0,0.0,0.0,0.0,0.0,0.0,0.0,0.0,0.0,0.0,0.0,0.0,0.0,0.0,0.0,0.0,0.0,0.0,0.0,0.0,0.0,0.0,0.0,0.0,0.0,0.0,0.0,0.0,0.0,0.0,0.0,0.0,0.0,0.0,0.0,0.0,0.0,0.0,0.0,0.0,0.0,0.0,0.0,0.0,0.0,0.0,0.0,0.0,0.0,0.0,0.0,0.0,0.0,0.0,0.0,0.0,0.0,0.0,0.0,0.0,0.0,0.0,0.0,0.0,0.0,0.0,0.0,0.0,0.0,0.0,0.0,0.0,0.0,0.0,0.0,0.0,0.0,0.0,0.0,-0.0889,-0.1687,0.0,0.0,0.0,0.0,0.0,0.0,0.0,0.0,0.0,0.0,0.0,0.0,0.0,0.0,0.0,0.0,0.0,0.0,0.0,0.0,0.0,0.0,0.0,0.0,0.0,0.0,0.0,0.0,0.0,0.0,0.0,0.0,0.0,0.0,0.0,0.0,0.0,0.0,0.0,0.0,0.0,0.0,0.0,0.0,0.0,0.0,0.0,0.0,0.0,0.0,0.0,0.0,0.0,0.0,0.0,0.0,0.0,0.0,0.0,0.0,0.0,0.0,0.0,0.0,0.0,0.0,0.0,0.0,0.0,0.0,0.0,0.0,0.0,0.0,0.0,0.0,0.0,0.0,0.0,0.0,0.0,0.0,0.0,0.0,0.0,0.0,0.0,0.0,0.0,0.0,0.0,0.0,0.0,0.0,0.0,0.0,0.0,0.0,0.0,0.0,0.0,0.0,0.0,0.0,0.0,0.0,0.0,0.0,0.3596,0.4273,0.4471,0.355,0.2477,0.1239,-0.0714,-0.1982,-0.2729,-0.3266,0.0,0.0,0.0,0.0,0.0,0.0,0.0,0.0,0.0,0.0,0.0,0.0,0.0,0.0,0.0,0.0,0.0,0.0,0.0,0.0,0.0,0.0,0.0,0.0,0.0,0.0,0.0,0.0,0.0,0.0,0.0,0.0,0.0,0.0,0.0,0.0,0.0,0.0,-0.25,-0.2322,-0.2117,-0.1898,-0.094,0.0,0.0,0.0,0.0,0.0,0.0,0.0,0.0,0.0,0.0,0.0,0.0,0.0,0.0,0.0,0.0,0.0,0.0,0.0,0.0,0.0,0.0,0.0,0.0,0.0,0.0,0.0,0.0,0.0,0.0,0.0,0.0,0.0,0.0,0.0,0.0,0.0,0.0,0.0,0.0,0.0,0.0,0.0,-0.9255,-0.9207,0.0,0.0,0.0,0.0,0.0,0.0,0.0,0.0,0.0,0.0,0.0,0.0,0.0,-0.1414,-0.091,-0.1023,-0.1745,-0.3027,0.01,0.1896,0.2451,0.1632,0.1206,0.104,-0.0686,0.0,-0.225,-0.3138,0.0,0.0,0.0,0.0,0.0,0.0,0.0,0.0,0.0,0.0,0.0,0.0,0.0,0.0,0.0,0.0,0.0,0.0,0.0,0.0,0.0,0.0,0.0,0.0,0.0,0.0,0.0,0.0,0.0,0.0,0.0,0.0,0.0,0.0,0.0,0.0,-0.4157,-0.3943,-0.3591,-0.3392,-0.3235,-0.3099,-0.2225,-0.1684,-0.1399,-0.1035,0.0,0.0,0.0,0.0,0.0,0.0,0.0,0.0,0.0,0.0,0.0,0.0,0.0,0.0,0.0,0.0,0.0,0.0,0.0,0.0,0.0,0.0,0.0,0.0,0.0,0.0,0.0,0.0,0.0,0.0,0.0,0.0,0.0,0.0,0.0,0.0,0.0,0.0,0.0,-0.9967,-1.0108,-1.0228,-0.9101,-0.8258,0.0,0.0,0.0,0.0,0.0,0.0,0.0,0.0,0.0,-0.1586,-0.1841,-0.2287,-0.294,-0.398,-0.4882,-0.565,-0.4132,-0.3019,-0.2353,-0.2704,-0.2767,-0.264,-0.3117,-0.3292,-0.3317,-0.3723,-0.3499,-0.2794,0.0,0.0,0.0,0.0,0.2669,0.4405,0.0,0.0,0.0,0.0,0.0,0.0,0.0,0.0,0.0,0.0,0.0,0.0,0.0,0.0,0.0,-0.3237,0.0,0.0,0.0,0.0,0.0,0.0,0.0,0.0,0.0,0.0,0.0,-0.5165,-0.5173,-0.5039,-0.4779,-0.451,-0.4367,-0.4313,-0.3582,-0.2938,-0.2347,-0.1892,-0.1075,0.0,0.0,0.0,0.0,0.0,0.0,0.0,0.0,0.0,0.0,0.0,0.0,0.0,0.0,0.0,0.0,0.0,0.0,0.0,0.0,0.0,0.0,0.0,0.0,0.0,0.0,0.0,0.0,0.0,0.0,0.0,0.0,0.0,0.0,0.0,0.0,0.0,0.0,-1.1379,-1.1305,-1.1185,-1.0259,-0.9404,0.0,0.0,0.0,0.0,0.0,0.0,-0.5696,-0.4869,-0.4122,-0.3572,-0.3181,-0.3499,-0.4562,-0.6476,-0.7618,-0.7973,-0.8104,-0.7854,-0.7252,-0.7317,-0.6914,-0.6142,-0.5698,-0.5288,-0.4933,-0.4736,-0.4224,-0.345,-0.2644,-0.1573,-0.0256,0.1384,0.3392,0.5504,0.0,0.0,0.0,0.0,0.0,0.0,0.0,0.0,0.0,0.0,0.0,0.0,0.0,0.0,-0.2301,-0.3484,-0.3776,-0.4128,0.0,0.0,0.0,0.0,0.0,0.0,0.0,0.0,0.0,-0.6136,-0.6005,-0.5994,-0.6106,-0.5828,-0.5744,-0.5749,-0.4894,-0.3892,-0.2845,-0.2428,-0.1715,-0.0788,0.0,0.0,0.0,0.0,0.0,0.0,0.0,0.0,0.0,0.0,0.0,0.0,0.0,0.0,0.0,0.0,0.0,0.0,0.0,0.0,0.0,0.0,0.0,0.0,0.0,0.0,0.0,0.0,0.0,0.0,0.0,0.0,0.0,0.0,0.0,0.0,0.0,0.0,0.0,-1.1981,-1.1698,0.0,0.0,0.0,0.0,-0.9758,-0.8838,-0.8613,-0.9381,-0.7766,-0.6676,-0.6401,-0.5531,-0.5134,-0.5338,-0.8252,-1.0128,-1.0879,-1.1337,-1.1424,-1.1219,-1.1402,-1.0219,-0.7954,-0.7606,-0.7268,-0.6901,-0.6201,-0.5327,-0.4386,-0.3965,-0.2938,-0.1433,0.0796,0.3601,0.6606,0.0,0.0,0.0,0.0,0.0,0.0,0.0,0.0,0.0,0.0,0.0,0.0,0.0,-0.1761,-0.2436,-0.3207,-0.3692,-0.4094,-0.4416,0.0,0.0,0.0,0.0,0.0,0.0,0.0,-0.5781,-0.69,-0.6592,-0.6622,-0.6983,-0.691,-0.6847,-0.6678,-0.5413,-0.4735,-0.4433,-0.3345,-0.2537,-0.1921,-0.1056,0.0214,0.0,0.0,0.0,0.0,0.0,0.0,0.0,0.0,0.0,0.0,0.0,0.0,0.0,0.0,0.0,0.0,0.0,0.0,0.0,0.0,0.0,0.0,0.0,0.0,0.0,0.0,0.0,0.0,0.0,0.0,0.0,0.0,0.0,0.0,0.0,0.0,0.0,-1.4216,-1.3275,0.0,-1.2512,-1.2068,-1.206,-1.2666,-1.2722,-1.2719,-1.2775,-1.2269,-1.1341,-0.9992,-0.695,-0.5853,-0.6933,-1.1003,-1.3697,-1.4952,-1.5113,-1.5177,-1.5066,-1.3612,-1.249,-1.1615,-1.1303,-1.0843,-1.0379,-1.0243,-0.9202,-0.7691,-0.7372,-0.6447,-0.5026,-0.2941,0.0672,0.4991,0.0,0.0,0.0,0.0,0.0,0.0,0.0,0.0,0.0,0.0,0.0,-0.0032,-0.0907,-0.1496,-0.2128,-0.2861,-0.3581,-0.4042,-0.4163,0.0,0.0,0.0,0.0,0.0,0.0,-0.625,-0.6288,-0.7746,-0.72,-0.7272,-0.7903,-0.7898,-0.7845,-0.768,-0.6361,-0.5763,-0.5666,-0.4415,-0.356,-0.3035,-0.2548,-0.1624,-0.0483,0.0,0.0,0.0,0.0,0.0,0.0,0.0,0.0,0.0,0.0,0.0,0.0,0.0,0.0,0.0,0.0,0.0,0.0,0.0,0.0,0.0,0.0,0.0,0.0,0.0,0.0,0.0,0.0,0.0,0.0,0.0,0.0,0.0,0.0,-1.5582,-1.5905,-1.611,-1.536,-1.4756,-1.4745,-1.4726,-1.4986,-1.562,-1.6723,-1.7443,-1.762,-1.7468,-1.6511,-1.4639,-1.1397,-0.9566,-0.9295,-1.2667,-1.5357,-1.7338,-1.7338,-1.7386,-1.7472,-1.7453,-1.6637,-1.5245,-1.5159,-1.4856,-1.4417,-1.4325,-1.3306,-1.1669,-1.0692,-0.9454,-0.8013,-0.5974,-0.2141,0.2637,0.0,0.0,0.0,0.0,0.0,0.0,0.0,0.0,0.0,0.0,0.0537,0.0367,-0.0642,-0.0817,-0.1326,-0.2473,-0.3449,-0.398,-0.3924,-0.4828,0.0,0.0,0.0,0.0,-0.879,-0.7824,-0.7726,-0.8628,-0.7831,-0.7941,-0.891,-0.8788,-0.8759,-0.8766,-0.7775,-0.6997,-0.637,-0.5569,-0.4781,-0.4105,-0.4604,-0.4172,-0.3166,0.0,0.0,0.0,0.0,0.0,0.0,0.0,0.0,0.0,0.0,0.0,0.0,0.0,0.0,0.0,0.0,0.0,0.0,0.0,0.0,0.0,0.0,0.0,0.0,0.0,0.0,0.0,0.0,0.0,0.0,0.0,0.0,0.0,-1.6935,-1.7618,-1.8081,-1.7574,-1.792,-1.7632,-1.6291,-1.7381,-1.8308,-1.8521,-2.0625,-2.2476,-2.3853,-2.3199,-2.1993,-2.0251,-1.8949,-1.6384,-1.2399,-1.3306,-1.518,-1.7946,-1.7997,-1.8168,-1.8544,-2.297,-2.2691,-1.8723,-1.9093,-1.9092,-1.8751,-1.8078,-1.7191,-1.5996,-1.363,-1.1737,-1.0021,-0.7917,-0.4484,0.0057,0.0,0.0,0.0,0.0,0.0,0.0,0.0,0.0,0.0,0.0,0.1447,0.1473,0.0464,0.0037,-0.0635,-0.1779,-0.3124,-0.4107,-0.453,0.0,0.0,0.0,0.0,0.0,-0.9076,-0.7906,-0.7898,-0.9109,-0.8545,-0.8628,-0.9335,-0.9344,-0.9286,-0.9132,-0.8321,-0.7531,-0.6793,-0.6025,-0.5642,-0.5495,-0.5145,-0.4525,-0.3817,0.0,0.0,0.0,0.0,0.0,0.0,0.0,0.0,0.0,0.0,0.0,0.0,0.0,0.0,0.0,0.0,0.0,0.0,0.0,0.0,0.0,0.0,0.0,0.0,0.0,0.0,0.0,0.0,0.0,0.0,0.0,-1.7412,-1.8432,-1.8623,-1.9371,-2.007,-2.0449,-2.0118,-1.9745,-1.951,-2.0007,-2.068,-2.1461,-2.3088,-2.4877,-2.6753,-2.6909,-2.6153,-2.44,-2.3023,-2.0345,-1.6304,-1.8864,-2.0568,-2.1378,-2.25,-2.298,-2.2952,-2.412,-2.4126,-2.321,-2.3056,-2.1316,-1.8581,-1.8385,-1.7585,-1.6285,-1.4296,-1.2187,-1.0071,-0.833,-0.4245,0.1083,0.0,0.0,0.0,0.0,0.0,0.0,0.0,0.0,0.0,0.0,0.2034,0.2044,0.1488,0.0611,-0.0316,-0.1272,-0.2956,-0.4206,-0.476,0.0,0.0,0.0,0.0,-0.9196,-0.9452,-0.8432,-0.8435,-0.9558,-0.8946,-0.9012,-0.9701,-0.9717,-0.9681,-0.9571,-0.9026,-0.8197,-0.7185,-0.6665,-0.6286,-0.6009,-0.596,-0.5773,-0.5513,-0.5559,-0.5313,-0.4919,-0.4601,-0.456,-0.4622,-0.4556,0.0,0.0,0.0,0.0,0.0,0.0,0.0,0.0,0.0,0.0,0.0,0.0,0.0,0.0,0.0,0.0,0.0,0.0,0.0,0.0,0.0,0.0,0.0,0.0,-1.8077,-1.9306,-2.0067,-2.1042,-2.2001,-2.2873,-2.2451,-2.2147,-2.2437,-2.2697,-2.3117,-2.3787,-2.5511,-2.7276,-2.9003,-2.9602,-2.9281,-2.792,-2.6616,-2.4393,-2.1236,-2.2784,-2.3428,-2.3188,-2.4385,-2.4966,-2.4942,-2.4813,-2.4832,-2.4926,-2.4676,-2.3178,-2.0762,-1.9151,-1.791,-1.6789,0.0,0.0,0.0,0.0,-0.1656,0.311,0.0,0.0,0.0,0.0,0.0,0.0,0.0,0.0,0.0,0.0,0.0,0.2346,0.2317,0.101,-0.0181,-0.1008,-0.3007,-0.4516,0.0,0.0,0.0,-0.8763,-0.9571,-0.9963,-0.9858,-0.9201,-0.9211,-0.9917,-0.9217,-0.925,-0.998,-0.9916,-0.9923,-0.9957,-0.9717,-0.8869,-0.7592,-0.7429,-0.6892,-0.6217,-0.6916,-0.7345,-0.7484,-0.6883,-0.6618,-0.6419,-0.5466,-0.5217,-0.5373,-0.5188,0.0,0.0,0.0,0.0,0.0,0.0,0.0,0.0,0.0,0.0,0.0,0.0,0.0,0.0,0.0,0.0,0.0,0.0,0.0,0.0,0.0,0.0,0.0,0.0,-1.8936,-2.0374,-2.125,-2.2521,-2.3701,-2.4747,-2.4476,-2.4437,-2.4882,-2.5111,-2.5333,-2.5652,-2.7679,-2.9497,-3.0819,-3.1592,0.0,0.0,0.0,-2.8209,-2.6212,-2.5559,-2.4995,-2.4488,-2.5017,-2.5412,-2.5638,-2.5263,-2.5038,-2.4902,-2.4764,-2.4456,-2.3786,-2.0453,-1.8431,-1.7158,-1.488,-1.3478,-1.1804,-0.3767,0.1687,0.5085,0.0,0.0,0.0,0.0,0.0,0.0,0.0,0.0,0.0,0.2999,0.3219,0.3095,0.2453,0.1591,0.034,-0.1417,-0.3622,-0.5864,0.0,0.0,-0.9678,-0.9722,-0.9959,-1.0093,-1.0112,-0.9932,-0.9913,-1.0058,-0.9911,-0.9861,-0.9914,-0.9844,-0.9825,-0.9831,-0.9671,-0.9109,-0.831,-0.8264,-0.8031,-0.7692,-0.7843,-0.765,-0.729,-0.749,-0.7019,-0.6244,-0.5925,-0.56,-0.5334,-0.5339,-0.5426,-0.5592,-0.5868,0.0,0.0,0.0,0.0,0.0,0.0,0.0,0.0,0.0,0.0,0.0,0.0,0.0,0.0,0.0,0.0,0.0,0.0,0.0,0.0,-1.8047,-1.9504,-2.0762,-2.1807,-2.3151,-2.4298,-2.5033,-2.477,-2.4863,-2.5691,-2.5836,-2.6278,-2.7182,-2.8771,-3.0552,-3.2506,-3.3363,-3.3538,-3.2937,-3.2381,-3.0801,-2.809,-2.7933,-2.8127,-2.8632,-2.7905,0.0,-2.7744,-2.5939,-2.5063,-2.4974,-2.4842,-2.4117,-2.3054,-2.2863,-2.039,-1.647,-1.3272,-1.0213,-0.702,-0.1997,0.1116,0.3076,0.0,0.0,0.0,0.0,0.0,0.0,0.0,0.0,0.0,0.0,0.3352,0.3032,0.2457,0.1265,-0.0076,-0.1527,-0.4254,0.0,0.0,-0.9399,-1.0057,-1.0047,-1.0523,-1.0814,-1.0848,-1.125,-1.1435,-1.1397,-1.1304,-1.1198,-1.1092,-1.0595,-1.0338,-1.0276,-0.9806,-0.9187,-0.8493,-0.8459,-0.83,-0.8055,-0.8117,-0.8126,-0.808,-0.7917,-0.7309,-0.6525,-0.6245,-0.5837,-0.5432,-0.5337,-0.534,-0.5432,-0.5604,-0.564,-0.5753,0.0,0.0,0.0,0.0,0.0,0.0,0.0,0.0,0.0,0.0,0.0,0.0,0.0,0.0,-1.2636,-1.3946,0.0,-1.7027,-1.8466,-1.9738,-2.0875,-2.183,-2.3003,-2.4268,-2.5433,-2.5407,-2.571,-2.6742,-2.6862,-2.729,-2.8313,-2.9309,-3.0803,-3.2973,-3.3451,-3.3832,-3.4183,-3.3428,-3.2238,-3.068,-2.985,-2.9484,-2.9532,-2.8774,-2.8408,-2.8412,-2.7381,-2.6462,-2.5704,-2.5693,-2.493,-2.3668,-2.3185,-2.0354,-1.6019,-1.3038,-0.9574,-0.585,-0.3178,-0.0651,0.181,0.0,0.0,0.0,0.0,0.0,0.0,0.0,0.0,0.0,0.0,0.3113,0.2669,0.2259,0.0677,-0.0867,0.0,0.0,0.0,0.0,-0.9125,-1.0003,-1.0103,-1.1017,-1.1517,-1.1528,-1.2354,-1.2773,-1.2707,-1.2511,-1.2392,-1.2301,-1.1519,-1.111,-1.1011,-1.0357,-0.9743,-0.92,-0.9151,-0.8862,-0.8506,-0.8594,-0.8807,-0.8972,-0.8356,-0.7672,-0.6965,-0.6584,-0.6122,-0.5646,-0.5357,-0.5189,-0.5116,-0.517,-0.5121,-0.5205,-0.6198,-0.6313,0.0,0.0,0.0,0.0,0.0,0.0,0.0,0.0,-0.9067,-0.9654,-1.0383,-1.1507,-1.2807,-1.423,-1.571,-1.7219,-1.8582,-1.9775,-2.0882,-2.1661,-2.2757,-2.4013,-2.5557,-2.5874,-2.6416,-2.7618,-2.7653,-2.8031,-2.9042,-2.9672,-3.0841,-3.2733,-3.2926,-3.3415,-3.4356,-3.3567,-3.291,-3.249,-3.1194,-3.0257,-2.9597,-2.9098,-2.8837,-2.8842,-2.8783,-2.8096,-2.6933,-2.6624,-2.5714,-2.4366,-2.2852,-2.0045,-1.6373,-1.3684,-1.0256,-0.6608,-0.4962,-0.2339,0.0689,0.0,0.0,0.0,0.0,0.0,0.0,0.0,0.0,0.0,0.0,0.0,0.0,0.0,0.0,0.0,0.0,0.0,0.0,-0.8544,-0.8893,-0.9383,-1.0153,-1.104,-1.1533,-1.1599,-1.2387,-1.2769,-1.2704,-1.2617,-1.2502,-1.2373,-1.2154,-1.2028,-1.1949,-1.1792,-1.1709,-1.171,-1.169,-1.1123,-1.0216,-1.0238,-0.9816,-0.9164,-0.9019,-0.8322,-0.7384,-0.704,-0.6544,-0.5984,-0.5584,-0.5295,-0.5057,-0.4841,-0.4446,-0.4276,-0.5315,-0.5775,-0.6026,-0.6455,-0.6872,-0.7356,-0.7897,-0.8047,-0.8245,0.0,-0.9369,-0.9852,-1.0839,-1.1877,-1.3035,-1.4285,-1.5609,-1.6945,-1.8254,-1.9614,-2.0827,-2.1682,-2.2877,-2.4063,-2.5053,-2.5464,-2.6237,-2.7725,-2.7761,-2.8085,-2.9037,-3.0204,-3.1155,-3.1827,-3.2532,-3.2807,-3.2609,-3.2932,-3.2646,-3.1745,-3.1555,-3.1218,-3.0714,-3.0054,-2.9851,-2.9991,-2.9296,-2.8936,-2.8786,-2.6896,-2.5321,-2.3984,-2.2845,-2.1016,-1.86,-1.5217,-1.1862,-0.8495,-0.5329,-0.2793,-0.0555,0.0,0.0,0.0,0.0,0.0,0.0,0.0,0.0,0.0,0.0,0.0,0.0,0.0,0.0,0.0,0.0,0.0,0.0,-0.7295,-0.8314,-0.907,-0.9426,-1.0755,-1.1756,-1.2297,-1.3123,-1.3762,-1.4213,-1.4115,-1.3991,-1.3833,-1.3281,-1.2961,-1.2826,-1.2308,-1.2113,-1.2213,-1.2175,-1.19,-1.1451,-1.0899,-1.0471,-1.0123,-0.9552,-0.8883,-0.8181,-0.7643,-0.6983,0.0,0.0,-0.5073,-0.4897,-0.4136,-0.3973,-0.4215,-0.49,-0.5274,-0.5662,-0.6362,-0.7073,-0.7668,-0.7888,-0.8044,-0.8319,-0.8964,-0.9443,-1.0033,-1.0998,-1.2115,-1.3304,-1.451,-1.5867,-1.7231,-1.8431,-1.9557,-2.0662,-2.1931,-2.2998,-2.406,-2.5195,-2.5819,-2.6589,-2.7621,-2.7877,-2.8348,-2.92,-2.9886,-3.0651,-3.159,-3.1898,-3.2125,-3.2359,-3.2876,-3.2956,-3.2465,-3.2418,-3.2147,-3.1656,-3.0938,-3.0443,-3.0128,-2.9864,-2.9219,-2.8154,-2.6052,-2.4612,-2.3666,-2.2401,-2.0778,-1.8826,-1.5812,-1.2785,-0.9804,-0.6638,-0.3773,-0.1174,0.0,0.0,0.0,0.0,0.0,0.0,0.0,0.0,0.0,0.0,0.0,0.0,0.0,0.0,0.0,0.0,0.0,0.0,0.0,-0.7518,-0.8424,-0.8916,-1.0347,-1.1542,-1.242,-1.3506,-1.436,-1.4935,-1.5066,-1.5082,-1.4964,-1.4327,-1.3958,-1.3801,-1.3173,-1.2936,-1.3024,-1.2994,-1.2832,-1.2565,-1.1887,-1.1521,-1.1287,-1.0354,-0.9742,-0.9263,-0.8383,-0.7467,0.0,0.0,-0.5254,-0.4791,-0.4176,-0.3987,-0.4083,-0.4605,-0.4965,-0.5479,-0.6574,-0.7298,-0.7789,-0.7948,-0.8229,-0.8617,-0.912,-0.9644,-1.0319,-1.129,-1.2278,-1.3372,-1.4602,-1.5936,-1.7188,-1.8209,-1.9418,-2.0614,-2.1642,-2.2989,-2.4216,-2.5125,-2.6059,-2.6889,-2.7482,-2.7946,-2.8511,-2.9297,-2.9569,-3.0124,-3.1115,-3.1078,-3.1188,-3.1595,-3.2217,-3.2586,-3.2678,-3.2683,-3.2515,-3.2163,-3.1429,-3.0717,-3.0045,-2.9926,-2.888,-2.711,-2.5493,-2.4303,-2.3392,-2.1953,-2.032,-1.8467,-1.5892,-1.317,-1.0261,-0.7381,-0.443,-0.1487,0.0,0.0,0.0,0.0,0.0,0.0,0.0,0.0,0.0,0.0,0.0,0.0,0.0,0.0,0.0,0.0,0.0,0.0,0.0,-0.6443,-0.7221,-0.8929,-0.98,-1.0646,-1.151,-1.315,-1.4008,-1.4037,-1.4825,-1.5199,-1.519,-1.5101,-1.5021,-1.4942,-1.492,-1.4878,-1.4825,-1.4885,-1.4424,-1.3665,-1.37,-1.3279,-1.254,-1.1602,-1.1072,-1.0643,-0.926,0.0,0.0,-0.7322,-0.6171,-0.4744,-0.5489,-0.4674,-0.3568,-0.437,-0.4925,-0.5588,-0.6926,-0.7347,-0.7577,-0.8229,-0.8822,-0.9338,-0.9692,-1.0165,-1.0734,-1.1697,-1.2353,-1.3208,-1.449,-1.549,-1.6411,-1.7227,-1.9155,-2.0552,-2.0489,-2.2885,-2.4641,-2.4547,-2.5881,-2.6971,-2.7348,-2.7908,-2.8478,-2.9166,-2.9514,-2.9784,-3.0026,-3.0034,-2.9905,-2.9608,-3.0431,-3.111,-3.1621,-3.1849,-3.2,-3.2084,-3.1356,-3.0615,-2.9886,-2.9095,-2.7808,-2.6113,-2.5667,-2.4641,-2.3193,-2.1635,-1.9844,-1.7821,-1.5574,-1.2768,-0.9614,-0.7109,-0.441,-0.1668,0.0,0.0,0.0,0.0,0.0,0.0,0.0,0.0,0.0,0.0,0.0,0.0,0.0,0.0,0.0,0.0,0.0,0.0,0.0,-0.6084,-0.6668,-0.7241,-0.8599,-0.9754,-1.062,-1.1712,-1.2568,-1.3148,-1.3359,-1.3448,-1.3428,-1.3933,-1.3854,-1.3306,-1.3883,-1.4159,-1.4175,-1.4244,-1.4424,-1.4646,-1.4195,-1.3812,-1.3418,-1.1974,-1.1313,-1.0949,0.0,0.0,-0.7297,-0.6166,-0.526,-0.4535,-0.4244,-0.4023,-0.4018,-0.482,-0.5266,-0.5624,-0.6166,-0.682,-0.7433,-0.7793,-0.834,-0.8913,-0.9484,-0.9779,-1.015,-1.1122,-1.1976,-1.2904,-1.4027,-1.5142,-1.617,-1.7089,-1.8221,-1.948,-2.0887,-2.22,-2.3537,-2.4912,-2.5809,-2.6505,-2.708,-2.7747,-2.835,-2.8819,-2.9256,-2.9608,-2.9853,-2.9872,-3.0067,-3.047,-3.0638,-3.1075,-3.1786,-3.1893,-3.1738,-3.1278,-3.0565,-2.9769,-2.895,-2.8001,-2.6904,-2.5716,-2.4685,-2.3665,-2.2581,-2.1182,-1.922,-1.6919,-1.4868,-1.2111,-0.8998,-0.6549,-0.4004,-0.1482,0.0,0.0,0.0,0.0,0.0,0.0,0.0,0.0,0.0,0.0,0.0,0.0,0.0,0.0,0.0,0.0,0.0,-0.5044,0.0,0.0,-0.6067,-0.6381,-0.7436,-0.8423,-0.9288,-1.0087,-1.0907,-1.1742,-1.2007,-1.2249,-1.2471,-1.2944,-1.2855,-1.2328,-1.2878,-1.3164,-1.3233,-1.3355,-1.3921,-1.4729,-1.4272,-1.4256,-1.428,-1.261,-1.1702,0.0,0.0,0.0,-0.6678,-0.5903,-0.4842,-0.3806,-0.3775,-0.3731,-0.3872,-0.4673,-0.5117,-0.5409,-0.5685,-0.6553,-0.7429,-0.7675,-0.8261,-0.8906,-0.9495,-0.9709,-1.002,-1.0932,-1.1758,-1.2668,-1.3701,-1.4688,-1.5677,-1.6695,-1.7599,-1.8787,-2.0546,-2.1807,-2.3111,-2.4652,-2.5517,-2.6208,-2.674,-2.7465,-2.8084,-2.8597,-2.906,-2.9454,-2.9681,-2.9736,-3.0113,-3.0866,-3.0487,-3.0777,-3.1786,-3.161,-3.1264,-3.0745,-2.9644,-2.8652,-2.779,-2.6786,-2.58,-2.4874,-2.3855,-2.2933,-2.2082,-2.0735,-1.8758,-1.6402,-1.4306,-1.154,-0.844,-0.6036,-0.3563,-0.111,0.0,0.0,0.0,0.0,0.0,0.0,0.0,0.0,0.0,0.0,0.0,0.0,0.0,0.0,0.0,0.0,0.0,0.0,0.0,0.0,0.0,-0.629,-0.6367,-0.6783,-0.7606,-0.8408,-0.9179,-0.9876,-1.0683,-1.1413,-1.2079,-1.1972,-1.1868,-1.1758,-1.1824,-1.1914,-1.2021,-1.2262,-1.2942,-1.3871,-1.3976,-1.4491,-1.4982,-1.3295,0.0,0.0,0.0,0.0,-0.5287,-0.6406,-0.4789,-0.2553,-0.3997,-0.3766,-0.3128,-0.3955,-0.4529,-0.5023,-0.5581,-0.6582,-0.7564,-0.793,-0.8601,-0.9313,-0.9816,-1.0022,-1.0334,-1.1084,-1.1744,-1.2489,-1.3494,-1.4185,-1.4987,-1.602,-1.7289,-1.8474,-1.9584,-2.1625,-2.3187,-2.3676,-2.4996,-2.6002,-2.6266,-2.6994,-2.7723,-2.8368,-2.8902,-2.931,-2.9548,-2.9645,-3.0058,-3.082,-2.9959,-3.0174,-3.1584,-3.0847,-3.0423,-3.0342,-2.8621,-2.7359,-2.6491,-2.5512,-2.4563,-2.3663,-2.3241,-2.2574,-2.1682,-2.0315,-1.8412,-1.6141,-1.3976,-1.1092,-0.789,-0.5565,-0.3099,-0.0676,0.0,0.0,0.0,0.0,0.0,0.0,0.0,0.0,0.0,0.0,0.0,0.0,0.0,0.0,0.0,0.0,0.0,0.0,0.0,0.0,0.0,0.0,0.0,0.0,0.0,0.0,0.0,0.0,-0.8133,-0.7959,-0.7572,-0.808,-0.7909,-0.7226,-0.8125,-0.8814,-0.9356,-1.0266,-1.1185,-1.2129,0.0,-1.318,-1.3173,0.0,0.0,0.0,0.0,0.0,-0.4034,-0.375,-0.25,-0.1217,-0.2097,-0.2461,-0.279,-0.3929,-0.4573,-0.5045,-0.5731,-0.6584,-0.7416,-0.7939,-0.8648,-0.9323,-0.9873,-1.0052,-1.023,-1.0686,-1.1388,-1.2144,-1.2979,-1.4153,-1.529,-1.627,-1.7396,-1.8661,-2.0045,-2.0902,-2.1842,-2.3142,-2.3835,-2.438,-2.4793,-2.5993,-2.6887,-2.7201,-2.8403,-2.9484,-3.0271,-2.9926,-3.0621,-3.2651,-3.0617,-3.0195,-3.1654,-2.9628,-2.8525,-2.8397,-2.7346,-2.6365,-2.5476,-2.5055,-2.4374,-2.345,-2.2898,-2.2207,-2.1315,-1.994,-1.781,-1.5303,-1.3242,-1.0417,-0.7149,-0.4835,-0.2667,-0.0593,0.0,0.0,0.0,0.0,0.0,0.0,0.0,0.0,0.0,0.0,0.0,0.0,0.0,0.0,0.0,0.0,0.0,0.0,0.0,0.0,0.0,0.0,0.0,0.0,0.0,0.0,0.0,0.0,0.0,0.0,-0.4498,-0.444,-0.4244,-0.4026,-0.5406,-0.6295,-0.6819,-0.8504,0.0,0.0,0.0,0.0,0.0,0.0,0.0,0.0,0.0,0.0,-0.0893,-0.0547,-0.0313,-0.0225,-0.0571,-0.1289,-0.2252,-0.3452,-0.4326,-0.5038,-0.5633,-0.6567,-0.746,-0.7859,-0.861,-0.9323,-0.9696,-0.9886,-1.0016,-1.0257,-1.075,-1.1358,-1.2025,-1.3156,-1.4287,-1.5316,-1.6414,-1.7709,-1.9303,-2.0165,-2.1111,-2.2468,-2.3185,-2.377,-2.4208,-2.5197,-2.5922,-2.6251,-2.7949,-2.9255,-2.9943,-2.9735,-3.0433,-3.2198,-3.0409,-2.9697,-3.0325,-2.8544,-2.7547,-2.7381,-2.6222,-2.5357,-2.4769,-2.4213,-2.3605,-2.2985,-2.252,-2.1828,-2.0927,-1.9642,-1.765,-1.5199,-1.2892,-1.0097,-0.6995,-0.4527,-0.2377,-0.0469,0.0,0.0,0.0,0.0,0.0,0.0,0.0,0.0,0.0,0.0,0.0,0.0,0.0,0.0,0.0,0.0,0.0,0.0,0.0,0.0,0.0,0.0,0.0,0.0,0.0,0.0,0.0,0.0,0.0,0.0,0.0,0.0,0.0,0.0,0.0,0.0,0.0,0.0,0.0,0.0,0.0,0.0,0.0,0.0,0.0,0.0,0.0,0.0,0.2832,0.2578,0.1673,0.064,0.0482,-0.0485,-0.1787,-0.2969,-0.4092,-0.5045,-0.5454,-0.6506,-0.7571,-0.7798,-0.8523,-0.9244,-0.9467,-0.9688,-0.9868,-0.9938,-1.0167,-1.0539,-1.1131,-1.2027,-1.3039,-1.4164,-1.5296,-1.6593,-1.8208,-1.9428,-2.0597,-2.166,-2.2637,-2.3391,-2.3861,-2.4432,-2.4979,-2.5526,-2.7439,-2.8764,-2.9188,-2.9373,-2.9828,-3.0558,-2.9797,-2.9089,-2.8431,-2.7525,-2.6889,-2.6445,-2.4935,-2.4098,-2.3827,-2.291,-2.2427,-2.2235,-2.1961,-2.1376,-2.055,-1.9373,-1.7622,-1.5405,-1.2785,-0.995,-0.7109,-0.4453,-0.2319,-0.0467,0.0,0.0,0.0,0.0,0.0,0.0,0.0,0.0,0.0,0.0,-0.1207,-0.2274,0.0,0.0,0.0,0.0,0.0,0.0,0.0,0.0,0.0,0.0,0.0,0.0,0.0,-0.5023,-0.5083,-0.52,-0.2285,0.0,0.0,0.0,0.0,0.0,0.0,0.0,0.0,0.0,0.0,0.0,0.0,0.0,0.0,0.0,0.0,0.0,0.0,0.0,0.0,0.0,0.3138,0.1823,0.051,-0.0789,-0.2101,-0.3471,-0.4519,-0.5333,-0.5786,-0.6462,-0.7189,-0.7887,-0.8246,-0.8693,-0.957,-0.987,-1.0004,-1.0178,-1.0455,-1.079,-1.135,-1.2596,-1.3899,-1.4862,-1.6308,-1.7565,-1.8377,-1.878,-1.9448,-2.0622,-2.0967,-2.144,-2.2287,-2.342,-2.442,-2.5205,-2.6647,-2.7997,-2.9126,-2.9351,-2.9448,-2.9474,-2.9729,-2.9077,-2.745,-2.6415,-2.5179,-2.3774,-2.2751,-2.1819,-2.0911,-2.0702,-2.0746,-2.0978,-2.0665,-2.0462,-2.0265,-1.8904,-1.7209,-1.5166,-1.2588,-0.9837,-0.7072,-0.4457,-0.2452,-0.0789,0.0,0.0,0.0,0.0,0.0,0.0,0.0,0.0288,0.0183,0.0012,-0.0656,-0.1375,-0.2046,-0.2552,-0.3074,0.0,0.0,0.0,0.0,0.0,0.0,0.0,0.0,0.0,0.0,-0.4994,-0.4155,-0.241,0.0,0.4718,0.3595,0.4115,0.4292,0.4131,0.2706,0.1004,-0.0917,0.0,0.0,-0.6091,-0.7032,-0.7348,0.0,0.0,0.0,0.0,0.0,0.0,0.0,0.0,0.3126,0.1669,0.0438,-0.1057,-0.2624,-0.393,-0.5007,-0.5786,-0.5822,-0.6483,-0.724,-0.756,-0.8059,-0.8618,-0.9201,-0.9574,-0.9836,-0.9974,-1.0221,-1.0547,-1.0973,-1.231,-1.3592,-1.4225,-1.5713,-1.6969,-1.7462,-1.8007,-1.8599,-1.9257,-2.0033,-2.071,-2.1226,-2.2299,-2.3384,-2.4403,-2.5711,-2.7218,-2.8888,-2.9181,-2.941,-2.966,-2.9271,-2.8505,-2.7303,-2.59,-2.4517,-2.3155,-2.1875,-2.0756,-1.9782,-1.9686,-1.9646,-1.967,-1.9775,-1.9484,-1.8846,-1.8182,-1.6712,-1.4586,-1.2225,-0.9751,-0.7195,-0.4631,-0.2613,-0.1006,0.0,0.0,0.0,0.0,0.0,0.0,0.0,0.0255,0.0174,0.0039,-0.013,-0.0475,-0.1119,-0.1785,-0.2398,0.0,0.0,0.0,0.0,0.0,0.0,0.0,0.0,0.0,0.0,0.0,0.0,-0.0076,0.6332,0.0,0.0,0.0,0.0,0.0,0.4004,0.2165,0.0521,-0.1637,-0.3405,0.0,0.0,-0.6253,0.0,0.0,0.0,0.0,0.0,0.0,0.4451,0.4065,0.2829,0.1247,0.0117,-0.1435,-0.3051,-0.4248,-0.5247,-0.5918,-0.5723,-0.6425,-0.717,-0.716,-0.7762,-0.8455,-0.886,-0.9288,-0.9631,-0.9784,-1.0046,-1.0348,-1.0608,-1.1832,-1.2958,-1.3491,-1.4898,-1.6103,-1.6617,-1.7311,-1.7914,-1.8228,-1.9349,-2.0212,-2.0517,-2.1449,-2.2581,-2.3898,-2.5429,-2.7051,-2.8742,-2.9003,-2.9338,-2.9753,-2.864,-2.7674,-2.6892,-2.5399,-2.3875,-2.2341,-2.0981,-1.9728,-1.86,-1.8467,-1.8292,-1.8189,-1.8733,-1.8455,-1.7573,-1.7443,-1.6169,-1.4124,-1.1874,-0.9602,-0.7285,-0.479,-0.2839,-0.1174,0.0,0.0,0.0,0.0,0.0,0.0,0.0,0.0615,0.0664,0.0708,0.0278,-0.0141,-0.0459,-0.0876,-0.1253,0.0,0.0,0.0,0.0,0.0,0.0,0.0,0.0,0.0,0.0,0.0,0.0,-0.0009,0.4774,0.0,0.0,0.0,0.0,0.0,0.0,0.3517,0.1746,0.0186,0.0,0.0,0.0,0.0,0.0,0.0,0.0,0.0,0.0,0.4059,0.4222,0.4119,0.2973,0.123,-0.0732,-0.2057,-0.3111,-0.4254,-0.489,-0.5271,-0.5536,-0.6048,-0.6578,-0.6922,-0.7317,-0.786,-0.8847,-0.9312,-0.9656,-1.0135,-1.0373,-1.0534,-1.0825,-1.1535,-1.247,-1.3585,-1.4684,-1.5763,-1.6821,-1.709,-1.7458,-1.8137,-1.87,-1.9383,-2.0251,-2.1249,-2.2601,-2.4471,-2.6722,-2.8252,-2.8863,-2.891,-2.8828,-2.8652,-2.8,-2.6842,-2.5161,-2.4475,-2.2621,-1.9572,-1.9039,-1.7827,-1.6047,-1.5887,-1.6025,-1.6366,-1.7038,-1.7415,-1.7531,-1.6675,-1.5618,-1.4255,-1.1639,-0.9417,-0.7339,-0.5015,-0.3116,-0.151,0.0,0.0,0.0,0.0,0.0,0.0,0.09,0.0748,0.0693,0.0835,0.0566,0.0183,-0.0286,-0.0407,-0.0658,-0.1179,0.0,0.0,0.0,0.0,0.0,0.0,0.0,0.0,0.0,0.0,0.0702,0.2893,0.6194,0.0,0.0,0.0,0.0,0.0,0.0,0.4006,0.2346,0.1111,0.0,0.0,0.0,0.0,0.0,0.0,0.0,0.0,0.0,0.0,0.3569,0.3386,0.2098,0.0344,-0.1019,-0.2313,-0.3668,-0.5462,-0.6135,-0.625,-0.6024,-0.6145,-0.6416,-0.6795,-0.713,-0.7673,-0.8822,-0.9434,-0.9893,-1.0422,-1.0656,-1.0777,-1.092,-1.1925,-1.2971,-1.3745,-1.5016,-1.6119,-1.6793,-1.6965,-1.7104,-1.7277,-1.8167,-1.8938,-1.9313,-2.0673,-2.2512,-2.4816,-2.6954,-2.8174,-2.8281,-2.8386,-2.8523,-2.8731,-2.732,-2.6055,-2.4906,-2.3637,-2.173,-1.9185,-1.8393,-1.7029,-1.521,-1.5,-1.4927,-1.5063,-1.573,-1.5873,-1.5593,-1.5385,-1.4487,-1.3047,-1.1025,-0.9112,-0.723,-0.5052,-0.3237,-0.1524,0.0,0.0,0.0,0.0,0.0,0.09,0.0965,0.0804,0.0722,0.0878,0.0669,0.0347,-0.0077,-0.0178,-0.04,-0.0852,-0.131,0.0,0.0,0.0,0.0,0.0,0.0,0.0,0.0,0.0,0.1227,0.4245,0.6687,0.7367,0.0,0.0,0.6967,0.6327,0.0,0.0,0.0,0.0,0.0,0.0,0.0,0.0,0.0,0.0,0.0,0.0,0.0,0.0,0.0,0.0,0.0,-0.0388,-0.1699,0.0,0.0,-0.5797,-0.6262,-0.6196,-0.5797,-0.5837,-0.6044,-0.628,-0.6765,-0.7508,-0.8708,-0.9415,-0.9991,-1.064,-1.0849,-1.0944,-1.0991,-1.2042,-1.3052,-1.3496,-1.4914,-1.6082,-1.6342,-1.6642,-1.6839,-1.6876,-1.7909,-1.8698,-1.8933,-2.0967,-2.31,-2.5021,-2.6869,-2.7864,-2.78,-2.7783,-2.7953,-2.8334,-2.6811,-2.5479,-2.451,-2.3086,-2.1153,-1.8738,-1.7799,-1.638,-1.4627,-1.4374,-1.4163,-1.4053,-1.4749,-1.4775,-1.4279,-1.4373,-1.3658,-1.2279,-1.0572,-0.8784,-0.6959,-0.4938,-0.3063,-0.1227,0.0,0.0,0.0,0.0,0.0,0.0,0.0718,0.0762,0.0821,0.0891,0.0548,0.0299,0.0296,-0.0177,-0.0468,-0.0413,-0.0659,0.0,0.0,0.0,0.0,0.0,0.0,0.0,0.0,0.0,0.136,0.293,0.5271,0.6421,0.64,0.6405,0.6365,0.6248,0.0,0.0,0.0,0.0,0.0,0.0,0.0,0.0,0.0,0.0,0.0,0.0,0.0,0.0,0.0,0.0,0.0,0.0,0.0,0.0,0.0,0.0,-0.4542,-0.4357,-0.4478,-0.4899,-0.5292,-0.5224,-0.6116,-0.7297,-0.8454,-0.9179,-0.9845,-1.0725,-1.0944,-1.0991,-1.0991,-1.1664,-1.2326,-1.2656,-1.4111,-1.5257,-1.5415,-1.5999,-1.6647,-1.7215,-1.7942,-1.8734,-1.9515,-2.2485,-2.4564,-2.5068,-2.6579,-2.7496,-2.7496,-2.7198,-2.7004,-2.7034,-2.6471,-2.5322,-2.3515,-2.2848,-2.0901,-1.7697,-1.704,-1.5763,-1.4,-1.3735,-1.3547,-1.345,-1.4175,-1.4385,-1.4181,-1.3853,-1.3269,-1.2407,-1.0399,-0.8461,-0.6586,-0.4674,-0.2651,-0.0583,0.0,0.0,0.0,0.0,0.0,0.0,0.0,0.0424,0.0379,0.0537,0.0088,-0.023,-0.0185,-0.0655,-0.0987,-0.1009,-0.0845,0.0,0.0,0.0,0.0,0.0,0.0,0.0,0.0,0.0,0.1346,0.3314,0.5345,0.6011,0.5381,0.5883,0.5683,0.4838,0.419,0.3934,0.0,0.0,0.0,0.0,0.0,0.0,0.0169,0.0,0.0,0.0,0.0,0.0,0.0,0.0,0.0,0.0,0.0,0.0,0.0,-0.4574,-0.5152,-0.5753,-0.5467,-0.5711,-0.6096,-0.6257,-0.6741,-0.7405,-0.8183,-0.9069,-0.9819,-1.0085,-1.0828,-1.1456,-1.152,-1.2548,-1.3497,-1.3941,-1.5327,-1.6235,-1.5875,-1.6693,-1.7228,-1.6864,-1.8145,-1.9515,-2.0638,-2.2955,-2.455,-2.4925,-2.6398,-2.7213,-2.7021,-2.6396,-2.5995,-2.5914,-2.5046,-2.3863,-2.2412,-2.0967,-1.9163,-1.7011,-1.5924,-1.4637,-1.3173,-1.2953,-1.2779,-1.2733,-1.3221,-1.3413,-1.3426,-1.2926,-1.2431,-1.1804,-1.0084,-0.8206,-0.6294,-0.4345,-0.216,0.0049,0.0,0.0,0.0,0.0,0.0,0.0,0.0,0.0145,0.0056,0.0166,-0.0286,-0.057,-0.0448,-0.0933,-0.1251,-0.1187,-0.1073,0.0,0.0,0.0,0.0,0.0,0.0,0.0,0.0,-0.0833,0.0771,0.2668,0.4491,0.526,0.4976,0.5388,0.5078,0.4143,0.3717,0.3614,0.0,0.0,0.0,0.0,0.0,0.0,0.0131,0.0,0.0,0.0,0.0,0.0,0.0,0.0,0.0,0.0,0.0,0.0,0.0,0.0,-0.5124,-0.5849,-0.5447,-0.5508,-0.5795,-0.6272,-0.6675,-0.7156,-0.7884,-0.8733,-0.9473,-0.9755,-1.0559,-1.1368,-1.178,-1.2881,-1.3824,-1.4219,-1.557,-1.6409,-1.5915,-1.6759,-1.7419,-1.7541,-1.8898,-2.024,-2.1306,-2.3169,-2.4444,-2.4748,-2.6182,-2.6836,-2.64,-2.5779,-2.5128,-2.4463,-2.3918,-2.296,-2.1593,-2.0073,-1.8263,-1.6205,-1.5146,-1.383,-1.2349,-1.2413,-1.2259,-1.1937,-1.2586,-1.2832,0.0,-1.2495,-1.2126,-1.1557,-0.9924,-0.8036,-0.5983,-0.3814,-0.1476,0.0873,0.0,0.0,0.0,0.0,0.0,0.0,0.0,-0.0078,-0.0144,-0.023,-0.0601,-0.0788,-0.0623,-0.1142,-0.1404,-0.1163,0.0,0.0,0.0,0.0,0.0,0.0,0.0,0.0,0.0,-0.2164,-0.0234,0.1207,0.2917,0.4176,0.4981,0.4797,0.4427,0.3898,0.3423,0.3206,0.0,0.0,0.0,0.0,0.0,0.0,0.0,0.0,0.0,0.0,0.0,0.0,0.0,0.0,0.0,0.0,0.0,0.0,0.0,0.0,0.0,0.0,0.0,-0.4593,-0.4791,-0.5534,-0.608,-0.6647,-0.7509,-0.8207,0.0,-0.9559,-1.0204,-1.0924,-1.1869,-1.2808,-1.3516,-1.3775,-1.5146,-1.6076,-1.5713,-1.6337,-1.7436,-1.8984,-2.002,-2.089,-2.1593,-2.3253,-2.4389,-2.4652,-2.5912,-2.6403,-2.572,-2.5329,-2.4414,-2.2862,-2.3095,-2.2504,-2.091,-1.9878,-1.801,-1.5313,-1.4554,-1.3273,-1.1486,-1.199,-1.1787,-1.108,-1.2225,-1.2543,-1.2291,-1.2433,-1.221,-1.1616,-0.9886,-0.7883,-0.566,-0.3092,-0.0574,0.1858,0.0,0.0,0.0,0.0,0.0,0.0,0.0,0.0,0.0,0.0,-0.1065,-0.145,-0.1564,-0.2154,-0.2519,0.0,0.0,0.0,0.0,0.0,0.0,0.0,0.0,0.0,0.0,-0.2388,-0.0759,0.0307,0.1645,0.2837,0.3855,0.3217,0.268,0.2233,0.1666,0.0852,0.0,0.0,0.0,0.0,0.0,0.0,0.0,0.0,0.0,0.0,0.0303,-0.041,0.0,0.0,0.0,0.0,0.0,0.0,0.0,0.0,-0.4026,-0.3983,-0.4291,0.0,-0.5655,-0.575,-0.6237,-0.6732,0.0,0.0,0.0,0.0,0.0,0.0,0.0,-1.3276,-1.4155,-1.4616,-1.6141,-1.7025,-1.638,-1.7507,-1.874,-1.9676,-2.0802,-2.1756,-2.2375,-2.4016,-2.516,-2.5433,-2.6168,-2.6303,-2.5578,-2.4746,-2.3867,-2.2892,-2.2213,-2.1231,-1.9877,-1.869,-1.6888,-1.4395,-1.306,-1.1711,-1.0366,-1.0554,-1.053,-1.0416,-1.1486,-1.1979,-1.2028,-1.2306,-1.221,-1.1715,-1.0002,-0.7868,-0.5434,-0.2805,0.0143,0.3048,0.0,0.0,0.0,0.0,0.0,0.0,0.0,0.0,0.0,0.0,0.0,0.0,0.0,0.0,0.0,0.0,0.0,0.0,0.0,0.0,0.0,0.0,0.0,0.0,-0.4451,-0.3445,-0.2322,-0.1104,0.0387,0.1631,0.262,0.2344,0.1915,0.1341,0.0494,-0.0654,0.0,0.0,0.0,0.0,-0.0499,0.0,0.0,0.0,0.0,0.0,-0.0031,-0.1102,0.0,-0.2572,-0.3364,-0.4129,0.0,0.0,0.0,0.0,-0.3694,-0.3495,-0.366,-0.4425,-0.526,-0.5623,-0.6076,-0.6514,-0.6845,0.0,0.0,0.0,0.0,0.0,0.0,-1.3474,-1.4486,-1.5468,-1.6553,-1.7324,-1.7612,-1.8594,-1.9531,-2.0085,-2.1155,-2.2011,-2.2508,-2.4166,-2.533,-2.5544,-2.5832,-2.5698,-2.5007,-2.4078,-2.3187,-2.241,-2.1831,-2.076,-1.9246,-1.8094,-1.616,-1.343,-1.2148,-1.073,-0.9286,-0.9538,-0.9531,-0.9375,-1.0612,-1.1326,-1.1652,-1.1937,-1.2036,-1.1836,-1.005,-0.786,-0.5392,-0.2491,0.0578,0.355,0.0,0.0,0.0,0.0,0.0,0.0,0.0,0.0,0.0,0.0,0.0,0.0,0.0,0.0,0.0,0.0,0.0,0.0,0.0,0.0,0.0,0.0,0.0,-0.4152,-0.4314,-0.4359,-0.3727,-0.2381,-0.0807,0.039,0.1216,0.1464,0.1204,0.048,-0.0586,-0.1762,0.0,0.0,-0.3126,-0.0781,-0.1339,0.0,0.0,0.0,0.0,0.0,0.0,0.0,0.0,-0.3249,-0.3603,-0.4038,-0.4295,0.0,0.0,0.0,0.0,0.0,-0.3055,-0.3566,-0.4355,-0.5232,-0.5724,-0.6215,-0.7043,0.0,0.0,0.0,0.0,0.0,0.0,-1.3502,-1.46,-1.6147,-1.6828,-1.7666,-1.9007,-1.9626,-2.0045,-2.0339,-2.129,-2.2091,-2.2573,-2.4016,-2.5112,-2.5531,-2.528,-2.4911,-2.445,-2.3508,-2.2604,-2.1814,-2.1634,-2.0659,-1.8856,-1.7787,-1.5691,-1.252,-1.1456,-1.0026,-0.8283,-0.8656,-0.8641,-0.8436,-0.9772,-1.0634,-1.1155,-1.1518,-1.1745,-1.1735,-0.9983,-0.7828,-0.5355,-0.2219,0.0883,0.3913,0.0,0.0,0.0,0.0,0.0,0.0,0.0,0.0,0.0,0.0,0.0,0.0,0.0,0.0,0.0,0.0,0.0,0.0,0.0,0.0,0.0,0.0,-0.3884,-0.3979,-0.3889,-0.3307,-0.2785,-0.2317,-0.1804,-0.1226,-0.0604,-0.0721,-0.1082,-0.1659,-0.2403,-0.3006,-0.3521,-0.4052,-0.4199,-0.3939,-0.244,0.0,0.0,0.0,0.0,0.0,0.0,0.0,0.0,-0.3482,-0.38,-0.3965,-0.4224,0.0,0.0,0.0,0.0,0.0,-0.3032,-0.3467,-0.4012,-0.4599,-0.535,-0.6014,-0.6385,0.0,0.0,0.0,0.0,0.0,-1.2316,-1.3331,-1.4527,-1.6041,-1.7767,-1.9223,-2.0079,-2.0449,-2.0628,-2.066,-2.1494,-2.2486,-2.3506,-2.3868,-2.4696,-2.6234,-2.5129,-2.4391,-2.4418,-2.3462,-2.2573,-2.1814,-2.145,-2.0367,-1.8498,-1.7565,-1.534,-1.1763,-1.051,-0.914,-0.7714,-0.7493,-0.7694,-0.8265,-0.9185,-0.9836,-1.0356,-1.1181,-1.1331,-1.0889,-0.9676,-0.7706,-0.5159,-0.1931,0.1268,0.4713,0.0,0.0,0.0,0.0,0.0,0.0,0.0,0.0,0.0,0.0,0.0,0.0,0.0,0.0,0.0,0.0,0.0,0.0,0.0,0.0,0.0,-0.3557,-0.3588,-0.3679,-0.3789,-0.3539,-0.306,-0.2358,-0.2237,-0.1916,-0.1445,-0.1829,-0.2265,-0.2762,-0.3152,-0.3528,-0.3897,-0.4178,-0.4464,-0.462,0.0,0.0,0.0,0.0,0.0,0.0,0.0,0.0,0.0,0.0,-0.423,-0.4031,-0.4111,0.0,0.0,0.0,0.0,0.0,-0.3213,-0.3687,-0.4219,-0.4835,-0.5333,-0.5829,-0.6433,0.0,0.0,0.0,0.0,-1.2013,-1.2976,-1.3892,-1.4959,-1.6394,-1.8364,-1.9654,-1.9401,-2.0174,-2.0635,-2.0304,-2.1422,-2.2441,-2.2981,-2.3555,-2.4265,-2.513,-2.4195,-2.3577,-2.3625,-2.2801,-2.2068,-2.1617,-2.1309,-2.0242,-1.8315,-1.7156,-1.4893,-1.1564,-0.9976,-0.8469,-0.7098,-0.6798,-0.6987,-0.7588,-0.8323,-0.9094,-0.9884,-1.0523,-1.0698,-1.0429,-0.9301,-0.7428,-0.473,0.0141,0.3706,0.6679,0.0,0.0,0.0,0.0,0.0,0.0,0.0,0.0,0.0,0.0,0.0,0.0,0.0,0.0,0.0,0.0,0.0,0.0,0.0,0.0,-0.3439,-0.3573,-0.3432,-0.3485,-0.3796,-0.3913,-0.3591,-0.2796,-0.2752,-0.2574,-0.2281,-0.2667,-0.3089,-0.3499,-0.3607,-0.3882,-0.4247,-0.4464,-0.4605,-0.4686,0.0,0.0,0.0,0.0,0.0,0.0,0.0,0.0,0.0,0.0,0.0,0.0,0.0,0.0,0.0,-0.2904,-0.2823,-0.2905,-0.35,-0.3995,-0.4523,-0.5256,-0.5542,-0.5805,0.0,0.0,0.0,0.0,-1.0909,-1.2314,-1.3283,-1.4477,-1.5677,-1.6774,-1.8477,-1.939,-1.8625,-1.9609,-2.0303,-1.9924,-2.1151,-2.2134,-2.241,-2.2982,-2.3571,-2.4032,-2.3233,-2.2801,-2.2936,-2.2165,-2.157,-2.1293,-2.0927,-1.9878,-1.8114,-1.645,-1.4237,-1.1518,-0.9619,-0.8016,-0.6669,-0.6329,-0.6443,-0.7008,-0.7589,-0.8371,-0.9318,-0.9719,-0.9882,-0.9758,-0.8772,-0.6676,-0.347,0.2223,0.5819,0.8353,0.0,0.0,0.0,0.0,0.0,0.0,0.0,0.0,0.0,0.0,0.0,0.0,0.0,0.0,0.0,0.0,0.0,0.0,0.0,0.0,-0.356,-0.3509,-0.3495,-0.3584,-0.3796,-0.3862,-0.3927,-0.3976,-0.3795,-0.3686,-0.366,-0.3636,-0.3769,-0.4047,-0.4121,-0.433,-0.4679,-0.4878,-0.4964,-0.4958,-0.4697,0.0,0.0,0.0,0.0,0.0,0.0,0.0,0.0,0.0,0.0,0.0,0.0,0.0,-0.2736,-0.2789,-0.2755,-0.2918,-0.3885,-0.4314,-0.4701,-0.5626,-0.5952,0.0,-0.6043,-0.6965,0.0,-0.7964,-1.0029,-1.1962,-1.2423,-1.4728,-1.6682,-1.7029,-1.7792,-1.8408,-1.8575,-1.917,-1.9657,-1.9877,-2.0639,-2.152,-2.2411,-2.2066,-2.2388,-2.3901,-2.2675,-2.2178,-2.278,-2.1856,-2.1198,-2.0926,-2.0018,-1.8994,-1.7842,-1.5447,-1.3269,-1.13,-0.9436,-0.7854,-0.6595,-0.6014,-0.616,-0.6931,-0.7237,-0.7705,-0.8327,-0.8795,-0.8808,-0.8482,-0.7982,-0.5034,-0.0644,0.3251,0.6147,0.8655,0.0,0.0,0.0,0.0,0.0,0.0,0.0,0.0,0.0,0.0,0.0,0.0,0.0,0.0,0.0,0.0,0.0,0.0,0.0,0.0,-0.3857,-0.3987,-0.3553,-0.3581,-0.4159,-0.4031,-0.4022,-0.4163,-0.4089,-0.4064,-0.4111,-0.4076,-0.3632,-0.287,-0.3281,-0.3506,-0.3637,-0.4505,-0.4874,-0.4872,-0.4862,-0.4836,0.0,0.0,0.0,0.0,0.0,0.0,0.0,0.0,-0.4313,-0.3898,-0.4005,-0.3399,-0.2706,-0.3069,-0.3039,-0.3126,-0.4263,-0.4564,-0.4791,-0.5785,-0.6098,0.0,0.0,-0.7069,-0.802,-0.8629,-1.0416,-1.2337,-1.3909,-1.5503,-1.6547,-1.6437,-1.7364,-1.7884,-1.7314,-1.823,-1.9057,-1.9375,-1.9983,-2.075,-2.1681,-2.1189,-2.1114,-2.1763,-2.0916,-2.0442,-2.0548,-2.0067,-1.9697,-1.9405,-1.8921,-1.8112,-1.6992,-1.5052,-1.3229,-1.1462,-0.9241,-0.7645,-0.6595,-0.6021,-0.6075,-0.6617,-0.705,-0.7375,-0.7695,-0.8247,-0.8065,-0.7309,-0.5733,-0.3061,0.0224,0.3705,0.6527,0.9089,0.0,0.0,0.0,0.0,0.0,0.0,0.0,0.0,0.0,0.0,0.0,0.0,0.0,0.0,0.0,0.0,0.0,0.0,0.0,-0.4018,-0.411,-0.4291,-0.3787,-0.3781,-0.4362,-0.4228,-0.4206,-0.4296,-0.4308,-0.4362,-0.4444,-0.3924,-0.3442,-0.3022,-0.2345,-0.2544,-0.3429,-0.4351,-0.4762,-0.4814,-0.4922,-0.4948,0.0,0.0,0.0,0.0,0.0,0.0,0.0,0.0,-0.4424,-0.4084,-0.4065,-0.354,-0.2995,-0.321,-0.3122,-0.3199,-0.4233,-0.4467,-0.4638,-0.5609,0.0,0.0,-0.6398,-0.715,-0.8035,-0.8803,-1.0636,-1.2682,-1.4601,-1.5668,-1.6219,-1.6002,-1.6757,-1.709,-1.6385,-1.7408,-1.8305,-1.8582,-1.9217,-1.9901,-2.0505,-2.0251,-2.0045,-2.0148,-1.9673,-1.9311,-1.9131,-1.8869,-1.8633,-1.8346,-1.7946,-1.7332,-1.6496,-1.4818,-1.32,-1.1653,-0.9424,-0.7764,-0.6579,-0.6021,-0.5905,-0.6137,-0.6691,-0.6931,-0.6918,-0.7377,-0.7049,-0.6019,-0.3951,-0.1671,0.0817,0.4272,0.7117,0.9646,0.0,0.0,0.0,0.0,0.0,0.0,0.0,0.0,0.0,0.0,0.0,0.0,0.0,0.0,0.0,0.0,0.0,0.0,-0.4043,-0.4235,-0.4312,-0.4303,-0.4234,-0.4233,-0.4301,-0.4437,-0.4496,-0.4501,-0.4567,-0.4675,-0.4765,-0.3096,-0.3285,-0.4895,-0.1509,-0.163,-0.437,-0.4537,-0.4668,-0.4803,-0.4868,-0.4897,-0.4902,0.0,0.0,0.0,0.0,0.0,0.0,0.0,-0.4371,-0.4511,-0.345,-0.3381,-0.3606,-0.3139,-0.2955,-0.3057,-0.3726,-0.3949,-0.4204,-0.5084,0.0,0.0,-0.6635,-0.7157,-0.7727,-0.8136,-1.0546,-1.2914,-1.3998,-1.5065,-1.5812,-1.587,-1.587,-1.5926,-1.6067,-1.682,-1.7413,-1.7483,-1.8327,-1.893,-1.8972,-1.9115,-1.9239,-1.9394,-1.9195,-1.9013,-1.8872,-1.8543,-1.8254,-1.7973,-1.7196,-1.665,-1.6383,-1.4653,-1.3113,-1.1787,-1.002,-0.8289,-0.6584,-0.599,-0.5638,-0.5554,-0.6137,-0.6252,-0.6021,-0.6144,-0.5637,-0.4624,-0.3033,-0.1023,0.1353,0.4902,0.7808,1.0388,0.0,0.0,0.0,0.0,0.0,0.0,0.0,0.0,0.0,0.0,0.0,0.0,0.0,0.0,0.0,0.0,0.0,0.0,-0.4705,-0.4779,-0.4753,-0.4647,-0.455,-0.442,-0.4301,-0.42,-0.429,-0.4572,-0.4635,-0.4712,-0.4763,-0.3181,-0.2113,-0.147,-0.0445,-0.0487,-0.1455,-0.3653,-0.4686,-0.4799,-0.487,-0.4937,-0.4961,0.0,0.0,0.0,0.0,0.0,0.0,0.0,0.0,0.0,-0.4279,-0.3755,-0.3259,-0.3542,-0.3352,-0.3216,-0.4034,-0.4244,-0.4398,-0.5174,-0.5534,-0.5901,-0.6601,-0.7285,-0.8171,-0.9653,-1.1031,-1.2315,-1.3431,-1.3962,-1.4337,-1.4539,-1.4483,-1.466,-1.5289,-1.5656,-1.6285,-1.743,-1.783,-1.8245,-1.8924,-1.8579,-1.8301,-1.8329,-1.7727,-1.7266,-1.7074,-1.6848,-1.6663,-1.6531,-1.6025,-1.5635,-1.5437,-1.4051,-1.2814,-1.1721,-1.0054,-0.8488,-0.7002,-0.6352,-0.599,-0.5866,-0.6106,-0.5975,-0.5606,-0.5067,-0.4464,-0.37,-0.2356,-0.042,0.197,0.501,0.7939,1.0695,0.0,0.0,0.0,0.0,0.0,0.0,0.0,0.0,0.0,0.0,0.0,0.0,0.0,0.0,0.0,0.0,0.0,0.0,0.0,0.0,-0.4674,-0.4684,-0.4447,-0.4234,-0.4026,-0.3796,-0.3911,-0.4364,-0.4487,-0.4594,-0.4652,-0.3132,-0.1549,0.0,0.0,-0.0352,-0.1083,-0.2964,-0.4169,-0.4815,-0.4872,-0.4917,-0.4956,0.0,0.0,0.0,0.0,0.0,0.0,0.0,0.0,0.0,-0.4464,0.0,-0.3441,-0.3636,-0.3362,-0.3104,-0.3678,-0.3721,-0.3777,-0.4557,-0.487,-0.5325,-0.6662,-0.766,-0.8711,-1.0052,-1.111,-1.2029,-1.2809,-1.343,-1.3865,-1.3975,-1.3945,-1.4091,-1.4643,-1.4996,-1.5577,-1.6577,-1.696,-1.7401,-1.7936,-1.7375,-1.695,-1.6924,-1.6344,-1.5925,-1.5749,-1.5803,-1.5812,-1.5741,-1.5418,-1.5133,-1.4845,-1.3924,-1.2956,-1.1895,-1.0421,-0.9094,-0.7841,-0.6653,-0.6012,-0.5828,-0.547,-0.5118,-0.4774,-0.4053,-0.3481,-0.2921,-0.1542,0.0368,0.2672,0.5556,0.8406,1.1095,0.0,0.0,0.0,0.0,0.0,0.0,0.0,0.0,0.0,0.0,0.0,0.0,0.0,0.0,0.0,0.0,0.0,0.0,0.0,0.0,-0.4292,-0.4443,-0.4069,-0.3744,-0.3514,-0.3276,-0.3399,-0.3905,-0.4129,-0.4336,-0.4451,-0.2975,-0.1459,-0.0019,-0.0331,-0.1095,-0.2209,-0.2564,-0.3532,-0.4815,-0.4875,-0.49,-0.4891,-0.4892,0.0,0.0,0.0,0.0,0.0,0.0,0.0,0.0,-0.4194,-0.3995,-0.386,-0.3509,-0.3138,-0.2864,-0.3009,-0.2819,-0.2775,-0.3584,-0.4037,-0.4782,-0.6658,-0.8053,-0.9077,-0.9624,-1.0829,-1.1826,-1.2024,-1.3064,-1.3859,-1.3752,-1.3785,-1.3864,-1.3986,-1.4581,-1.5088,-1.5288,-1.5905,-1.6328,-1.6391,-1.5779,-1.5361,-1.5277,-1.5098,-1.4916,-1.4796,-1.5235,-1.5462,-1.5389,-1.5225,-1.4935,-1.4533,-1.4052,-1.3251,-1.2107,-1.0953,-0.987,-0.8839,-0.6966,-0.59,-0.5501,-0.452,-0.3946,-0.3691,-0.3113,-0.2693,-0.2245,-0.0671,0.1152,0.332,0.6355,0.9062,1.1494,0.0,0.0,0.0,0.0,0.0,0.0,0.0,0.0,0.0,0.0,0.0,0.0,0.0,0.0,0.0,0.0,0.0,0.0,0.0,0.0,-0.4318,-0.4046,-0.37,-0.3258,-0.2747,-0.2837,-0.2971,-0.3142,-0.3605,-0.4032,-0.4398,-0.2859,-0.1382,-0.0117,-0.2804,-0.2702,-0.0688,-0.3332,-0.4627,-0.4882,-0.496,-0.495,-0.4895,-0.4905,-0.4884,0.0,0.0,0.0,0.0,0.0,0.0,0.0,-0.3918,-0.3609,-0.3322,-0.3447,-0.3306,-0.3162,-0.3349,-0.3271,-0.3211,-0.3619,-0.4369,-0.52,-0.5995,-0.7,-0.8027,-0.8973,-1.0037,-1.068,-1.0317,-1.1002,-1.1627,-1.1632,-1.1668,-1.2027,-1.3031,-1.342,-1.4053,-1.5246,-1.5102,-1.5144,-1.5663,-1.4909,-1.4384,-1.4375,-1.4137,-1.4,-1.4051,-1.4441,-1.4643,-1.4543,-1.4574,-1.4374,-1.3992,-1.3509,-1.2716,-1.1635,-1.0761,-0.9808,-0.8767,-0.7526,-0.6293,-0.5163,-0.4301,-0.3695,-0.3282,-0.2801,-0.221,-0.1501,-0.0328,0.1413,0.3603,0.6222,0.8915,1.1567,0.0,0.0,0.0,0.0,0.0,0.0,0.0,0.0,0.0,0.0,0.0,0.0,0.0,0.0,0.0,0.0,0.0,0.0,0.0,0.0,0.0,-0.3532,-0.3189,-0.2736,-0.2131,-0.2222,-0.2302,-0.2377,-0.2232,-0.2769,-0.392,-0.3517,-0.258,-0.1247,-0.2216,-0.2553,-0.2412,-0.2538,-0.3173,-0.4101,-0.4156,-0.4433,-0.4799,-0.4802,-0.4783,-0.4753,-0.4759,0.0,0.0,0.0,0.0,0.0,0.0,0.0,-0.3998,-0.3907,-0.3693,-0.3479,-0.3423,-0.3153,-0.29,-0.3087,-0.3744,-0.4538,-0.5263,-0.6128,-0.7014,-0.7786,-0.8965,-0.9778,-0.9581,-1.004,-1.0429,-1.047,-1.0723,-1.1162,-1.1879,-1.2693,-1.352,-1.4343,-1.4429,-1.453,-1.485,-1.4034,-1.3422,-1.3286,-1.3089,-1.3015,-1.3129,-1.3818,-1.4156,-1.4013,-1.4153,-1.3973,-1.3529,-1.2998,-1.2354,-1.164,-1.0576,-0.934,-0.7997,-0.7097,-0.5967,-0.4722,-0.4029,-0.3467,-0.301,-0.2347,-0.1676,-0.098,0.0215,0.1878,0.396,0.6525,0.9005,1.1421,0.0,0.0,0.0,0.0,0.0,0.0,0.0,0.0,0.0,0.0,0.0,0.0,0.0,0.0,0.0,0.0,0.0,0.0,0.0,0.0,0.0,0.0,-0.2803,-0.2377,-0.1833,-0.1835,-0.1812,-0.175,-0.1222,-0.1753,0.0,-0.4235,-0.3922,-0.249,-0.1343,-0.2194,-0.4302,-0.1703,-0.1545,-0.3106,-0.3432,-0.403,-0.4729,-0.4718,-0.4666,-0.4622,-0.4612,-0.4635,-0.4701,-0.5033,0.0,0.0,0.0,0.0,-0.4858,-0.4516,-0.4158,-0.3785,-0.3548,-0.2924,-0.2358,-0.2299,-0.2734,-0.3421,-0.4325,-0.5127,-0.5804,-0.6222,-0.7713,-0.8971,-0.9001,-0.9373,-0.9645,-0.9663,-1.0096,-1.0557,-1.0913,-1.205,-1.2957,-1.3333,-1.3681,-1.3899,-1.3936,-1.3088,-1.2432,-1.2178,-1.208,-1.2099,-1.2287,-1.3132,-1.3613,-1.356,-1.365,-1.3485,-1.3057,-1.2472,-1.2018,-1.1616,-1.0273,-0.8766,-0.7107,-0.6369,-0.5479,-0.4442,-0.3807,-0.3266,-0.2834,-0.1904,-0.1204,-0.057,0.0734,0.2385,0.4318,0.6816,0.9071,1.123,0.0,0.0,0.0,0.0,0.0,0.0,0.0,0.0,0.0,0.0,0.0,0.0,0.0,0.0,0.0,0.0,0.0,0.0,0.0,0.0,0.0,-0.31,-0.2889,-0.2624,-0.231,-0.2364,-0.2113,-0.1542,-0.242,0.0,0.0,0.0,0.0,-0.2716,-0.3783,-0.3563,-0.2422,-0.2787,-0.2804,-0.2718,-0.405,-0.4713,-0.4856,-0.4737,-0.4693,-0.4679,-0.4684,-0.4581,-0.4485,-0.4765,-0.4717,0.0,0.0,0.0,-0.4685,-0.4869,-0.4509,-0.4074,-0.4145,-0.3212,-0.2098,-0.1583,-0.1873,-0.2408,-0.2883,-0.3528,-0.4082,-0.4331,-0.6481,-0.8146,-0.7595,-0.8096,-0.8617,-0.8683,-0.8813,-0.9342,-1.0633,-1.1102,-1.179,-1.3153,-1.2669,-1.2433,-1.2946,-1.21,-1.1436,-1.1296,-1.1306,-1.1484,-1.1869,-1.2064,-1.2444,-1.3002,-1.2698,-1.2506,-1.2508,-1.1982,-1.1468,-1.0992,-0.9561,-0.8163,-0.6924,-0.6174,-0.5478,-0.4802,-0.3941,-0.3335,-0.2801,-0.1702,-0.0903,-0.0234,0.104,0.274,0.4651,0.6532,0.8782,1.1148,0.0,0.0,0.0,0.0,0.0,0.0,0.0,0.0,0.0,0.0,0.0,0.0,0.0,0.0,0.0,0.0,0.0,0.0,0.0,0.0,0.0,-0.3201,-0.2992,-0.2651,-0.2181,-0.1761,-0.1455,-0.1274,0.0,0.0,0.0,-0.335,-0.3373,0.0,0.0,0.0,-0.3378,-0.3869,-0.3905,-0.3698,-0.4482,-0.4764,-0.4703,-0.4505,-0.4539,-0.4682,-0.4488,-0.4459,-0.4591,-0.5044,-0.4833,-0.4486,-0.5095,0.0,0.0,0.0,-0.5162,-0.493,-0.3587,-0.2451,-0.1379,-0.0287,-0.0416,-0.0858,-0.1036,-0.1714,-0.2393,-0.2705,-0.4136,-0.5461,-0.5889,-0.6636,-0.723,-0.7414,-0.8048,-0.8813,-0.9564,-1.0372,-1.1127,-1.1769,-1.1709,-1.1674,-1.1777,-1.1296,-1.092,-1.0825,-1.0777,-1.0987,-1.1533,-1.1831,-1.2023,-1.2104,-1.2308,-1.2081,-1.143,-1.1216,-1.0535,-0.936,-0.8549,-0.7526,-0.6376,-0.6069,-0.5578,-0.4947,-0.4021,-0.3335,-0.2808,-0.1518,-0.0584,0.0167,0.1549,0.3126,0.4812,0.6555,0.8521,1.0588,0.0,0.0,0.0,0.0,0.0,0.0,0.0,0.0,0.0,0.0,0.0,0.0,0.0,0.0,0.0,0.0,0.0,0.0,0.0,0.0,0.0,-0.34,-0.3191,-0.2825,-0.2289,-0.1603,-0.1006,0.0,0.0,0.0,-0.3492,-0.2932,-0.3207,0.0,-0.395,-0.3992,0.0,-0.4559,-0.4614,-0.4492,-0.4707,-0.47,-0.4519,-0.4268,-0.4397,-0.4662,-0.4303,-0.4387,-0.4716,-0.5118,-0.4851,-0.4452,-0.5016,-0.5131,0.0,0.0,0.0,-0.541,-0.3203,-0.2129,-0.1264,0.0265,0.0347,0.0203,0.0778,0.0161,-0.059,-0.0777,-0.1649,-0.2762,-0.3961,-0.5074,-0.5969,-0.6408,-0.7326,-0.8163,-0.8649,-0.9603,-1.0313,-1.0509,-1.0764,-1.092,-1.0865,-1.0667,-1.051,-1.0523,-1.0424,-1.0585,-1.1189,-1.138,-1.1465,-1.1387,-1.1667,-1.1411,-1.0515,-1.0215,-0.9427,-0.8132,-0.7692,-0.6935,-0.5943,-0.5811,-0.5445,-0.4884,-0.3983,-0.3266,-0.2646,-0.1273,-0.0248,0.0547,0.1955,0.3442,0.4968,0.6476,0.8206,1.017,0.0,0.0,0.0,0.0,0.0,0.0,0.0,0.0,0.0,0.0,0.0,0.0,0.0,0.0,-0.4896,-0.4619,0.0,0.0,0.0,0.0,0.0,-0.3682,-0.3612,0.0,-0.3051,-0.2686,-0.1296,0.0,0.0,0.0,-0.1682,-0.3185,-0.4067,-0.4393,-0.4687,-0.4379,-0.3696,0.0,0.0,0.0,-0.4698,-0.4637,-0.439,-0.4188,-0.4359,-0.4652,-0.4238,-0.4394,-0.4768,-0.4602,-0.4528,-0.4476,-0.4393,-0.4397,-0.4582,0.0,0.0,0.0,-0.3557,-0.2994,-0.2408,-0.0747,-0.0348,0.0197,0.2361,0.2033,0.1387,0.1806,0.065,-0.076,-0.1777,-0.3506,-0.5069,-0.5977,-0.6394,-0.7056,-0.833,-0.8628,-0.905,-0.9926,-0.9818,-0.9893,-1.0368,-1.0185,-1.011,-1.0299,-1.0248,-1.0367,-1.0724,-1.0337,-1.0403,-1.0996,-1.033,-0.9923,-0.995,-0.894,-0.8281,-0.7982,-0.7221,-0.6491,-0.5787,-0.5343,-0.4881,-0.4415,-0.3844,-0.3122,-0.2247,-0.0955,0.0,0.0794,0.2026,0.3558,0.5164,0.5977,0.7827,1.0228,0.0,0.0,0.0,0.0,0.0,0.0,0.0,0.0,0.0,0.0,0.0,0.0,0.0,-0.4925,-0.4902,-0.4676,-0.448,0.0,0.0,0.0,0.0,-0.3955,-0.3928,-0.3802,-0.3556,-0.3605,0.0,0.0,0.0,0.001,-0.194,-0.1243,-0.1917,-0.3724,-0.4406,-0.4296,-0.3645,-0.4427,-0.4385,-0.3849,-0.4246,-0.4312,-0.4139,-0.4149,-0.4058,-0.393,-0.3953,-0.3838,-0.3683,-0.3914,-0.3557,-0.3075,-0.3366,-0.3549,-0.3836,-0.4867,-0.4413,-0.3451,-0.2953,-0.2104,-0.1134,-0.0187,0.1112,0.2385,0.3249,0.3693,0.3866,0.373,0.2319,0.0714,-0.0595,-0.2642,-0.4361,-0.5095,-0.5574,-0.6183,-0.7098,-0.749,-0.7934,-0.8575,-0.9178,-0.955,-0.9557,-0.983,-0.9995,-1.0034,-1.0021,-1.0158,-1.0557,-1.0337,-1.0173,-1.0159,-1.0032,-0.9649,-0.8941,-0.8054,-0.7433,-0.7093,-0.632,-0.5765,-0.5334,-0.4787,-0.4257,-0.3793,-0.3126,-0.2633,-0.2214,-0.0918,0.0071,0.0898,0.2322,0.3725,0.5104,0.6098,0.7617,0.9503,0.0,0.0,0.0,0.0,0.0,0.0,0.0,0.0,0.0,0.0,0.0,0.0,0.0,0.0,-0.4941,-0.4805,-0.4551,-0.446,-0.4599,-0.4294,-0.4157,-0.4256,-0.4246,-0.4167,-0.4032,0.0,0.0,0.0,0.0,0.0,0.0,0.0033,-0.0723,-0.2688,-0.3265,-0.3556,0.0,-0.4309,-0.4261,-0.3738,-0.3774,-0.3918,-0.4024,-0.337,-0.3369,-0.3611,-0.2913,-0.2915,-0.3217,-0.2894,-0.2543,-0.2259,-0.2389,-0.2613,-0.2933,-0.3415,-0.285,-0.2145,-0.2477,-0.1711,-0.054,0.0532,0.1734,0.3058,0.4631,0.5053,0.5087,0.4941,0.3466,0.1824,0.0569,-0.143,-0.3238,-0.4299,-0.4857,-0.5374,-0.5979,-0.6473,-0.691,-0.7312,-0.8157,-0.8787,-0.9028,-0.9354,-0.9667,-0.988,-0.9828,-0.9884,-1.0104,-1.0,-0.9718,-0.9244,-0.9251,-0.8872,-0.8031,-0.7214,-0.6714,-0.6465,-0.5734,-0.5264,-0.5004,-0.4468,-0.3951,-0.3397,-0.2772,-0.2308,-0.1878,-0.0672,0.0248,0.1104,0.2499,0.3789,0.5017,0.6132,0.7654,0.9399,0.0,0.0,0.0,0.0,0.0,0.0,0.0,0.0,0.0,0.0,0.0,0.0,0.0,0.0,0.0,-0.4999,-0.4986,-0.4942,-0.4814,-0.4735,-0.4672,-0.4604,0.0,0.0,0.0,0.0,0.0,0.0,0.0,0.0,0.0,0.0,-0.0713,-0.1335,-0.1339,-0.2144,-0.3528,-0.4219,-0.4346,-0.4033,-0.328,-0.3434,-0.3888,-0.1814,-0.2231,-0.3613,-0.1123,-0.1691,-0.3377,-0.1569,-0.1519,-0.2089,-0.1454,-0.1598,-0.1829,-0.0921,-0.0774,-0.1125,0.0,0.0,0.0,0.1199,0.1257,0.197,0.6366,0.6035,0.493,0.5406,0.4078,0.2572,0.1773,0.0166,-0.1663,-0.3599,-0.4221,-0.4633,-0.5106,-0.5565,-0.5954,-0.6246,-0.6758,-0.7545,-0.8752,-0.8778,-0.9059,-0.983,-0.971,-0.9526,-0.9408,-0.9259,-0.8905,-0.8308,-0.7821,-0.7479,-0.7295,-0.6482,-0.611,-0.6166,-0.543,-0.5042,-0.489,-0.4473,-0.3918,-0.3261,-0.2841,-0.2142,-0.1209,-0.0213,0.0617,0.1411,0.249,0.3663,0.4953,0.6076,0.7856,0.9939,0.0,0.0,0.0,0.0,0.0,0.0,0.0,0.0,0.0,0.0,0.0,0.0,0.0,0.0,-0.4725,-0.4781,-0.4741,-0.4752,-0.4874,-0.4761,-0.4709,-0.4737,-0.4681,-0.4639,0.0,0.0,0.0,0.0,0.0,0.0,0.0,0.0,0.0,0.0,0.0099,-0.0268,-0.0981,-0.1793,-0.1965,-0.1715,-0.2272,-0.1476,-0.0061,-0.1006,-0.0908,-0.0308,-0.0651,-0.0488,-0.0113,-0.0125,-0.0064,0.0011,0.0,0.007,0.0151,0.0224,0.0817,0.1154,-0.0245,0.0,0.0,0.0,0.0,0.0,0.3606,0.4393,0.4908,0.558,0.4547,0.3221,0.221,0.1186,-0.0019,-0.1575,-0.2765,-0.3699,-0.4316,-0.4471,-0.4805,-0.5568,-0.6342,-0.7136,-0.7965,-0.8653,-0.923,-0.9647,-0.9644,-0.9526,-0.9328,-0.8839,-0.8393,-0.8013,-0.75,-0.7079,-0.6732,-0.6215,-0.5872,-0.5681,-0.5247,-0.4922,-0.4666,-0.421,-0.3695,-0.3101,-0.2411,-0.164,-0.0803,-0.0204,0.0616,0.1611,0.2527,0.3617,0.4807,0.619,0.76,0.9172,0.0,0.0,0.0,0.0,0.0,0.0,-0.619,-0.5527,0.0,0.0,0.0,0.0,0.0,0.0,-0.4543,-0.442,-0.4497,-0.4566,-0.4603,-0.4569,-0.4567,-0.4664,-0.4584,-0.4597,-0.4748,0.0,0.0,0.0,0.0,0.0,0.0,0.0,0.0,0.0,0.0,0.0,0.1399,0.0828,-0.0067,-0.1119,-0.1127,0.0058,0.1778,0.1279,0.1043,0.0997,0.109,0.1455,0.1841,0.1548,0.1352,0.1244,0.1309,0.1578,0.1841,0.1625,0.2637,0.3407,0.1563,0.1489,0.1747,0.0946,0.0,0.0,0.3156,0.3659,0.4062,0.4884,0.4252,0.335,0.2732,0.1748,0.0725,-0.0148,-0.173,-0.3007,-0.3452,-0.3725,-0.409,-0.4665,-0.555,-0.6395,-0.7078,-0.8144,-0.8894,-0.9152,-0.9393,-0.9461,-0.9311,-0.8807,-0.8327,-0.7959,-0.7513,-0.6918,-0.6214,-0.5921,-0.5602,-0.5239,-0.5023,-0.4736,-0.4403,-0.4048,-0.3532,-0.2907,-0.2255,-0.1409,-0.0401,0.0033,0.0818,0.1838,0.2699,0.3619,0.4672,0.6048,0.7488,0.9086,0.0,0.0,0.0,-1.0387,-0.8937,-0.7813,-0.7558,-0.6306,-0.5558,0.0,0.0,0.0,0.0,0.0,0.0,0.0,-0.4207,-0.4314,-0.4163,-0.4203,-0.4296,-0.4385,-0.4281,-0.4313,-0.453,-0.4778,0.0,0.0,0.0,0.0,0.0,0.0,0.0,0.0,0.0,0.0,0.0,0.3211,0.1522,-0.0981,0.029,0.1411,0.2501,0.4108,0.3217,0.1405,0.3469,0.364,0.2923,0.3142,0.2658,0.2032,0.2558,0.2948,0.3228,0.3255,0.4461,0.5331,0.334,0.3178,0.3553,0.353,0.2394,0.0,0.3783,0.3398,0.2871,0.3685,0.3486,0.3166,0.3106,0.1936,0.0906,0.0733,-0.1007,-0.2458,-0.2773,-0.3319,-0.3728,-0.383,-0.4663,-0.5536,-0.6271,-0.7441,-0.8264,-0.8536,-0.9053,-0.9333,-0.9236,-0.8932,-0.8535,-0.8015,-0.7623,-0.6933,-0.5902,-0.5655,-0.5352,-0.4915,-0.4806,-0.4576,-0.421,-0.4016,-0.3486,-0.2714,-0.2282,-0.1339,-0.0066,0.0348,0.1151,0.2134,0.2925,0.3709,0.4587,0.5833,0.7495,0.9326,0.0,0.0,0.0,-1.0552,-1.0003,-0.929,-0.7886,-0.7344,0.0,0.0,0.0,0.0,0.0,0.0,0.0,0.0,-0.3617,-0.3716,-0.3795,-0.3856,-0.3831,-0.3697,-0.3728,-0.3472,-0.2876,-0.4195,0.0,0.0,0.0,0.0,0.0,0.0,0.0,0.0,0.0,0.0,0.0,0.3595,0.3255,0.2721,0.2694,0.3346,0.4358,0.4665,0.443,0.3999,0.4606,0.4496,0.3988,0.3528,0.3412,0.3551,0.3979,0.4052,0.419,0.5242,0.5549,0.5523,0.5335,0.4971,0.4353,0.3306,0.2478,0.0,0.1869,0.2418,0.2909,0.2888,0.2969,0.2927,0.2545,0.188,0.1246,0.0844,-0.0473,-0.1959,-0.339,-0.3605,-0.3743,-0.408,-0.4541,-0.514,-0.5929,-0.7049,-0.7876,-0.8266,-0.8889,-0.9098,-0.8746,-0.8682,-0.8419,-0.7921,-0.7374,-0.6868,-0.6367,-0.5602,-0.5163,-0.5068,-0.4704,-0.4485,-0.435,-0.4091,-0.3638,-0.2997,-0.2363,-0.1383,-0.0125,0.0486,0.1389,0.2474,0.3061,0.3811,0.4746,0.6347,0.7623,0.8878,0.0,0.0,-1.3042,-1.1737,-1.0809,-0.9941,-0.9032,-0.8158,0.0,0.0,0.0,0.0,0.0,0.0,0.0,0.0,0.0,0.0,-0.3305,-0.3389,-0.3354,-0.3158,-0.2742,-0.2679,-0.3047,-0.299,-0.2159,0.0,0.0,0.0,0.0,0.0,0.0,0.0,0.0,0.0,0.0,0.4164,0.43,0.4404,0.4008,0.4256,0.4851,0.4849,0.4832,0.4806,0.4922,0.486,0.4689,0.4322,0.434,0.4525,0.4746,0.4823,0.4979,0.5648,0.6187,0.6553,0.6619,0.6375,0.5805,0.4637,0.3563,0.0,0.0,0.2225,0.2374,0.2819,0.2817,0.2733,0.2658,0.2101,0.1168,-0.0309,-0.1024,-0.2096,-0.4113,-0.3915,-0.3548,-0.3556,-0.3898,-0.4365,-0.4888,-0.6201,-0.7348,-0.818,-0.8507,-0.8633,-0.8567,-0.853,-0.8326,-0.7895,-0.7449,-0.6872,-0.6161,-0.5443,-0.5042,-0.4953,-0.4614,-0.442,-0.435,-0.4123,-0.3651,-0.3004,-0.2398,-0.1382,-0.0031,0.0695,0.1849,0.3185,0.3427,0.4176,0.5192,0.64,0.7563,0.8812,-1.5408,0.0,-1.3806,-1.2889,-1.146,-1.0368,-1.0148,-0.8809,0.0,0.0,0.0,0.0,0.0,-0.3734,-0.337,0.0,0.0,0.0,-0.2884,-0.2896,-0.2787,-0.2536,-0.1758,-0.185,-0.2989,-0.176,-0.1012,-0.0796,0.0,0.0,0.0,0.0,0.0,0.0,0.0,0.0,0.0,0.4707,0.4881,0.5052,0.4684,0.4668,0.4851,0.4878,0.4883,0.4911,0.4918,0.5003,0.5096,0.5034,0.5282,0.5741,0.655,0.6467,0.6129,0.6344,0.7029,0.771,0.7682,0.7593,0.7272,0.6192,0.494,0.3855,0.0,0.0,0.0,0.2957,0.2795,0.2595,0.2818,0.2243,0.0958,-0.1383,-0.1833,-0.2597,-0.4605,-0.4092,-0.3376,-0.3041,-0.3386,-0.3696,-0.3791,-0.5203,-0.6668,-0.8091,-0.7917,-0.7896,-0.8194,-0.821,-0.8089,-0.7794,-0.7462,-0.6863,-0.5951,-0.5379,-0.4985,-0.4838,-0.4549,-0.4382,-0.4344,-0.4151,-0.3709,-0.3056,-0.2476,-0.1388,0.0,0.0867,0.2229,0.3777,0.3961,0.4689,0.577,0.6547,0.7619,0.8919,-1.54,-1.4696,0.0,-1.2946,-1.1982,-1.1061,-1.0236,-0.9292,0.0,0.0,0.0,-0.5104,-0.4458,-0.4057,-0.3692,-0.3352,-0.3207,-0.3013,-0.2738,-0.2395,-0.2016,-0.1573,-0.1228,-0.0872,-0.0514,-0.1182,-0.07,0.1005,0.0,0.0,0.0,0.0,0.0,0.0,0.4854,0.4924,0.5019,0.4918,0.4919,0.4989,0.4765,0.4803,0.4974,0.4844,0.4856,0.49,0.4968,0.5046,0.5102,0.51,0.6125,0.8049,1.1734,1.0715,0.8361,0.9379,0.8942,0.8258,0.8838,0.8689,0.8033,0.6669,0.6064,0.5333,0.3517,0.0,0.3543,0.2963,0.0,0.2544,0.24,0.0,0.0,-0.098,-0.2209,-0.3298,-0.4324,-0.3904,-0.3465,-0.3361,-0.3659,-0.3668,-0.3166,-0.4246,-0.5757,-0.7617,-0.6973,-0.6667,-0.7057,-0.7412,-0.7556,-0.7455,-0.713,-0.6796,-0.6441,-0.5491,-0.4992,-0.496,-0.4576,-0.4447,-0.4564,-0.4344,-0.3961,-0.34,-0.262,-0.1507,-0.0184,0.0875,0.2225,0.3695,0.4468,0.5404,0.6425,0.7386,0.8148,0.8909,-1.5375,-1.4697,0.0,0.0,-1.2044,-1.115,-1.0296,-0.9476,0.0,0.0,0.0,-0.5732,-0.4641,-0.4487,-0.4215,-0.3527,-0.3534,-0.3207,-0.2346,-0.2321,-0.2002,-0.1251,-0.0781,-0.0529,-0.0502,-0.0427,-0.004,0.0663,0.1297,0.0,0.0,0.0,0.0,0.0,0.5207,0.531,0.5759,0.519,0.4974,0.4998,0.4958,0.4978,0.5036,0.4875,0.4836,0.4908,0.4938,0.5011,0.506,0.4828,0.7727,1.1564,1.2412,1.1,0.9096,0.9496,0.9228,0.8919,0.9554,0.9581,0.9056,0.7485,0.6723,0.5956,0.4538,0.3981,0.3692,0.3437,0.0,0.0,0.0,0.0,0.0,0.0,-0.2751,-0.3564,-0.3728,-0.3545,-0.3255,-0.2917,-0.2693,-0.2846,-0.356,-0.4385,-0.534,-0.6496,-0.5888,-0.5557,-0.5826,-0.624,-0.657,-0.6855,-0.673,-0.6591,-0.6368,-0.5545,-0.5098,-0.5058,-0.4612,-0.4511,-0.4704,-0.4479,-0.4056,-0.3511,-0.2758,-0.1612,-0.0215,0.0846,0.2334,0.4034,0.4848,0.5668,0.6462,0.7331,0.8143,0.902,-1.5011,0.0,0.0,-1.287,-1.1803,-1.0752,-0.9912,-0.9295,-0.8514,-0.7346,-0.6684,-0.5959,-0.5032,-0.468,-0.4285,-0.3687,-0.3593,-0.3165,-0.2198,-0.2187,-0.184,-0.0973,-0.0414,-0.0139,-0.0197,0.0391,0.0759,0.0913,0.1948,0.0,0.0,0.0,0.0,0.0,0.5331,0.5425,0.5933,0.5275,0.5003,0.5024,0.4978,0.4955,0.4927,0.488,0.4856,0.4875,0.4906,0.4998,0.5057,0.476,0.7995,1.209,1.1812,1.092,0.9984,0.9839,0.9823,0.9917,1.0321,1.0386,0.9942,0.8241,0.7359,0.6574,0.5265,0.4517,0.4077,0.3986,0.3543,0.0,0.0,0.0,-0.0171,-0.177,0.0,-0.3411,-0.2967,-0.2742,-0.2512,-0.2204,-0.1882,-0.2372,-0.4156,-0.4349,-0.4664,-0.5354,-0.4606,-0.4233,-0.4448,-0.4962,-0.5523,-0.6073,-0.6257,-0.6303,-0.623,-0.5578,-0.5133,-0.4981,-0.4633,-0.4553,-0.4678,-0.4485,-0.4088,-0.3562,-0.2777,-0.1657,-0.0314,0.0882,0.2411,0.4069,0.4954,0.5671,0.6323,0.7324,0.8211,0.9113,-1.4113,-1.3296,0.0,-1.2713,-1.1281,-0.9833,-0.8892,-0.8609,-0.8319,-0.7752,-0.632,-0.5454,-0.5728,-0.4437,-0.3591,-0.3682,-0.3113,-0.2671,-0.2496,-0.1884,-0.1234,-0.055,-0.0122,0.0485,0.1314,0.1226,0.1686,0.2709,0.2953,0.3483,0.0,0.0,0.0,0.0,0.5106,0.5112,0.5128,0.5037,0.5043,0.5062,0.4748,0.4577,0.4549,0.4869,0.4915,0.4816,0.4956,0.5042,0.5097,0.5083,0.5985,0.7645,1.0577,1.1517,1.15,1.1369,1.1381,1.1401,1.1295,1.1121,1.0542,0.88,0.8163,0.7418,0.5371,0.5131,0.5157,0.4511,0.3854,0.3026,0.1861,0.1017,0.003,-0.1393,-0.2352,0.0,0.0,-0.1328,-0.0994,-0.1304,-0.1667,-0.2679,-0.469,-0.3773,-0.345,-0.4363,-0.3167,-0.2539,-0.2856,-0.3688,-0.4413,-0.5009,-0.5688,-0.6031,-0.5991,-0.5533,-0.5086,-0.4702,-0.4638,-0.4519,-0.442,-0.435,-0.4053,-0.3556,-0.2669,-0.1696,-0.0563,0.0962,0.2323,0.3547,0.4584,0.5428,0.619,0.7642,0.8488,0.903,-1.308,0.0,-1.1743,-1.181,-1.0841,-0.9896,-0.9484,-0.8946,-0.8324,-0.7653,-0.6626,-0.5782,-0.533,-0.4734,-0.4084,-0.3419,-0.3073,-0.2533,-0.1697,-0.138,-0.089,-0.0134,0.0243,0.0814,0.1642,0.1841,0.2318,0.3132,0.3561,0.3968,0.0,0.0,0.0,0.0,0.5366,0.5416,0.5922,0.5321,0.5055,0.5016,0.4919,0.487,0.4895,0.498,0.4953,0.4855,0.4816,0.4867,0.4928,0.4611,0.5458,0.6892,0.8342,1.0013,1.1459,1.136,1.1723,1.2151,1.2052,1.1919,1.1425,0.984,0.8891,0.7918,0.6328,0.5795,0.5277,0.3889,0.3492,0.301,0.1766,0.0641,-0.037,-0.1206,-0.1991,-0.2192,0.0,-0.0309,0.0106,-0.0499,-0.1279,-0.2355,-0.3823,-0.3783,-0.3531,-0.3238,-0.2466,-0.1937,-0.1691,-0.2534,-0.3472,-0.4378,-0.5235,-0.5756,-0.6013,-0.551,-0.5145,-0.495,-0.4631,-0.446,-0.4473,-0.4415,-0.4156,-0.3761,-0.2929,-0.1861,-0.0597,0.073,0.2153,0.3653,0.4826,0.5802,0.6722,0.7596,0.8299,0.9119,-1.2493,-1.1695,-1.1194,-1.128,-1.0562,-0.9927,-0.9807,-0.9078,-0.8395,-0.8048,-0.6899,-0.5912,-0.5375,-0.476,-0.3982,-0.2995,-0.2566,-0.2006,-0.1186,-0.0711,-0.0199,0.0391,0.0813,0.1491,0.249,0.2604,0.2977,0.3624,0.4084,0.4398,0.4547,0.0,0.0,0.0,0.5332,0.5406,0.5892,0.5332,0.5075,0.5035,0.5017,0.4982,0.4954,0.5012,0.4997,0.4918,0.482,0.4838,0.5027,0.5654,0.6169,0.675,0.8002,0.9752,1.1355,1.1534,1.2165,1.2795,1.27,1.2587,1.2108,1.041,0.9451,0.8412,0.6417,0.5905,0.5404,0.3867,0.3277,0.2779,0.1913,0.036,-0.0825,-0.0935,-0.1412,-0.1342,0.0,0.0539,0.063,-0.01,-0.1118,-0.2146,-0.3229,-0.3509,-0.3211,-0.2257,-0.1667,-0.1123,-0.0521,-0.1484,-0.2514,-0.3479,-0.4667,-0.5399,-0.5669,-0.5444,-0.5125,-0.4774,-0.4545,-0.4342,-0.421,-0.4215,-0.4053,-0.3723,-0.2995,-0.2029,-0.0798,0.0498,0.1887,0.3384,0.4687,0.5865,0.6848,0.7682,0.854,0.9639,-1.224,-1.1506,-1.1033,-1.1028,-1.0389,-0.9869,-0.9813,-0.8995,-0.8507,-0.8835,-0.7086,-0.5827,-0.5864,-0.454,-0.3294,-0.2419,-0.1564,-0.1032,-0.09,0.0158,0.0864,0.1062,0.1579,0.2468,0.3771,0.3499,0.3619,0.4229,0.4545,0.472,0.4787,0.0,0.0,0.0,0.5054,0.5117,0.5156,0.5116,0.5094,0.5091,0.5019,0.4882,0.4738,0.5,0.5063,0.4996,0.4918,0.4927,0.537,0.7908,0.7815,0.7042,0.9359,1.0602,1.1307,1.1884,1.2689,1.3379,1.3227,1.3139,1.2632,1.0631,0.9931,0.8933,0.5875,0.5595,0.5633,0.4444,0.3293,0.2442,0.2219,0.0214,-0.1207,-0.0599,-0.0636,-0.0202,0.1354,0.1192,0.0643,-0.0081,-0.112,-0.211,-0.2883,-0.2975,-0.2513,-0.1419,-0.079,-0.0112,0.059,-0.0491,-0.1534,-0.2434,-0.3934,-0.487,-0.5101,-0.5351,-0.5044,-0.4204,-0.4376,-0.4197,-0.3705,-0.3826,-0.3761,-0.3462,-0.2962,-0.22,-0.1203,0.0266,0.1555,0.2744,0.4301,0.5609,0.6723,0.7928,0.9183,1.0537,-1.0681,-1.0232,-1.0028,-0.9937,-0.9821,-0.9747,-0.9727,-0.8898,-0.8372,-0.87,-0.7157,-0.5896,-0.5574,-0.4686,-0.3454,-0.1808,-0.0243,0.0631,0.0568,0.1391,0.194,0.2037,0.2464,0.3032,0.3793,0.3814,0.4045,0.4499,0.4581,0.4625,0.4662,0.0,0.0,0.0,0.4876,0.5319,0.5884,0.5277,0.5049,0.5092,0.5028,0.4968,0.4937,0.5061,0.5098,0.5059,0.488,0.4807,0.4994,0.6355,0.7021,0.7413,0.8183,0.9704,1.1219,1.1383,1.2365,1.3379,1.3227,1.3122,1.286,1.2183,1.095,0.954,0.8088,0.7335,0.641,0.4581,0.4077,0.3549,0.2159,0.0814,-0.0192,-0.0527,-0.0194,0.0372,0.1191,0.1276,0.1027,0.0408,-0.0845,-0.1874,-0.2436,-0.3372,-0.294,-0.055,-0.0854,-0.0443,0.1195,0.0172,-0.0925,-0.1952,-0.3369,-0.4434,-0.5009,-0.4946,-0.4737,-0.4361,-0.4196,-0.3983,-0.3705,-0.3896,-0.3831,-0.3565,-0.3167,-0.2398,-0.1331,-0.0033,0.1291,0.2629,0.4482,0.6356,0.8075,0.8672,0.963,1.0748,-1.0402,-0.9929,-0.9609,-0.9482,-0.9524,-0.9581,-0.9612,-0.8811,-0.8215,-0.8246,-0.7102,-0.6018,-0.5342,-0.4539,-0.3254,-0.1309,0.0227,0.1217,0.1523,0.229,0.2685,0.2579,0.3191,0.3721,0.4146,0.425,0.441,0.4608,0.4656,0.463,0.451,0.0,0.0,0.0,0.4806,0.5155,0.5644,0.5196,0.503,0.5091,0.5019,0.5011,0.0,0.5049,0.5069,0.5144,0.5503,0.5268,0.4998,0.6385,0.7187,0.7779,0.8602,0.9954,1.1281,1.1446,1.237,1.3261,1.3086,1.2997,1.2822,1.2314,1.11,0.9716,0.8493,0.7437,0.6288,0.4881,0.4169,0.3587,0.2886,0.1538,0.0355,-0.0168,0.0145,0.0636,0.1206,0.1214,0.0887,0.0212,-0.0894,-0.1737,-0.2144,-0.3011,-0.2676,-0.0506,-0.0528,0.0,0.1342,0.0699,-0.0223,-0.1289,-0.275,-0.3906,-0.4705,-0.4777,-0.4654,-0.428,-0.4048,-0.3885,-0.3705,-0.3798,-0.3798,-0.3765,-0.3434,-0.2732,-0.18,-0.0531,0.0827,0.2329,0.4773,0.6787,0.833,0.8912,0.9715,1.0671,-1.0631,-1.0058,-0.9562,-0.9412,-0.9394,-0.9412,-0.9457,-0.8788,-0.8137,-0.7723,-0.7082,-0.6297,-0.5364,-0.4358,-0.2957,-0.1028,0.0373,0.1515,0.2327,0.316,0.3515,0.3239,0.3945,0.4465,0.4744,0.4688,0.4652,0.4611,0.4704,0.4639,0.0,0.0,0.0,0.0,0.4781,0.4919,0.5151,0.5168,0.5212,0.5249,0.5086,0.5052,0.5098,0.5162,0.5223,0.5388,0.6431,0.5989,0.5205,0.7093,0.7727,0.7976,0.9436,1.0537,1.1346,1.166,1.2423,1.3087,1.285,1.2792,1.2627,1.1798,1.087,0.979,0.8279,0.7031,0.6005,0.5446,0.4197,0.3351,0.3849,0.2207,0.0704,0.0439,0.0495,0.0778,0.1392,0.1022,0.0459,-0.0272,-0.1142,0.0,-0.1983,-0.2397,-0.2135,-0.0835,-0.0124,0.0549,0.127,0.1053,0.0402,-0.0623,-0.2087,-0.3287,-0.4228,-0.4675,-0.4605,-0.408,-0.3936,-0.3817,-0.3672,-0.3635,-0.3733,-0.3928,-0.363,-0.3101,-0.2305,-0.1063,0.0429,0.2219,0.5082,0.6877,0.7983,0.8694,0.9516,1.0408,-0.987,-0.9652,-0.9562,-0.9412,-0.9394,-0.9366,-0.9263,-0.8933,-0.8421,-0.764,-0.7517,-0.7123,-0.6199,-0.4815,-0.3204,-0.1368,0.1432,0.332,0.3801,0.4835,0.5459,0.553,0.5247,0.5226,0.5494,0.4816,0.4522,0.4675,0.4596,0.4522,0.0,0.0,0.0,0.0,0.4696,0.5212,0.5927,0.6078,0.6124,0.6033,0.5349,0.5087,0.5184,0.5883,0.6118,0.6201,0.7049,0.6335,0.5225,0.684,0.731,0.7362,0.8137,0.9646,1.1121,1.1016,1.1876,1.2832,1.2684,1.251,1.2336,1.2131,1.1328,1.0451,0.9876,0.8618,0.7361,0.6715,0.5589,0.4481,0.3726,0.2271,0.1263,0.1472,0.1212,0.1192,0.1747,0.0883,0.0,-0.0655,-0.1489,-0.2023,-0.1987,-0.2549,-0.2266,-0.061,-0.0615,-0.0088,0.1328,0.0981,0.0402,-0.0267,-0.151,-0.2711,-0.3785,-0.4104,-0.4186,-0.408,-0.3898,-0.3699,-0.3532,-0.3761,-0.3761,-0.3597,-0.3597,-0.3138,-0.2305,-0.1263,0.0789,0.3423,0.4953,0.6273,0.7406,0.8047,0.8994,1.01,-0.9591,-0.9492,-0.9448,-0.9277,-0.9247,-0.9157,-0.8874,-0.8674,-0.8408,-0.8055,-0.7592,-0.717,-0.6859,-0.5097,-0.3237,-0.1455,0.1318,0.3409,0.4433,0.528,0.5839,0.6038,0.5908,0.5756,0.5652,0.5241,0.4906,0.4648,0.4616,0.4591,0.4562,0.4653,0.4665,0.463,0.5107,0.5619,0.6094,0.613,0.6203,0.6223,0.5426,0.5098,0.5187,0.602,0.6325,0.6468,0.7718,0.7368,0.6465,0.7636,0.7924,0.7892,0.8524,0.9794,1.0985,1.0653,1.1522,1.2533,1.2256,1.2086,1.1961,1.1861,1.1108,1.0334,1.0108,0.9042,0.7839,0.6892,0.5941,0.4844,0.332,0.2117,0.1386,0.1481,0.1192,0.1051,0.1308,0.0705,-0.004,-0.086,-0.1602,-0.214,-0.2324,-0.259,-0.2271,-0.1117,-0.0803,-0.0223,0.0895,0.103,0.076,0.0134,-0.1065,-0.2266,-0.3435,-0.3968,-0.4139,-0.4042,-0.3813,-0.3663,-0.3602,-0.37,-0.3761,-0.3798,-0.37,-0.3307,-0.2603,-0.0763,0.1252,0.3321,0.4708,0.603,0.7205,0.7702,0.8684,0.9804,-0.9448,-0.9412,-0.9321,-0.9165,-0.9094,-0.8928,-0.8579,-0.8418,-0.8355,-0.8409,-0.7636,-0.7125,-0.7214,-0.5407,-0.3462,-0.1668,0.0765,0.2882,0.4462,0.5291,0.5829,0.6064,0.6289,0.6158,0.5606,0.5456,0.5153,0.4669,0.4707,0.4696,0.4658,0.4709,0.4819,0.5024,0.573,0.6147,0.6272,0.604,0.6079,0.6208,0.5409,0.5198,0.5444,0.6257,0.6679,0.7026,0.8549,0.8658,0.8165,0.8763,0.8697,0.845,0.8917,0.9904,1.0791,1.0333,1.1166,1.2164,1.1796,1.1637,1.1549,1.1423,1.0826,1.0195,0.9995,0.9161,0.8112,0.699,0.5985,0.4751,0.2968,0.2103,0.1606,0.1517,0.123,0.103,0.114,0.0656,0.0,-0.0798,-0.1563,-0.2109,-0.2402,-0.2474,-0.2245,-0.1588,-0.0988,-0.0358,0.0317,0.0855,0.0898,0.0406,-0.0759,-0.191,-0.3078,-0.3877,-0.4219,-0.4042,-0.3851,-0.3735,-0.3672,-0.3667,-0.3798,-0.3999,-0.377,-0.3335,-0.26,-0.0327,0.144,0.2859,0.4329,0.5698,0.6925,0.7384,0.8384,0.9564,-0.9338,-0.9269,-0.9239,-0.9284,-0.9087,-0.8855,-0.8625,-0.8481,-0.8322,-0.8162,-0.7895,-0.7514,-0.7002,-0.5825,-0.4313,-0.2374,0.0114,0.2222,0.3702,0.527,0.6188,0.6265,0.6578,0.638,0.5613,0.5006,0.4755,0.4878,0.4825,0.4827,0.4864,0.4818,0.5078,0.566,0.6508,0.69,0.6873,0.6323,0.613,0.6145,0.5402,0.5547,0.6288,0.7151,0.7937,0.8704,0.9713,1.0025,0.9925,0.9824,0.9079,0.8189,0.8002,0.9114,1.0383,1.0042,1.0758,1.1645,1.149,1.1302,1.1155,1.1132,1.0926,1.061,1.0182,0.9438,0.8597,0.7743,0.6001,0.4218,0.3,0.256,0.243,0.2533,0.2014,0.1757,0.2179,0.0918,-0.0128,-0.0267,-0.1298,-0.1865,-0.1557,-0.2106,-0.2182,-0.1464,-0.1281,-0.091,-0.0189,0.0137,0.0319,0.0378,-0.0637,-0.1692,-0.2719,-0.3785,-0.4261,-0.4199,-0.4285,-0.403,-0.3532,-0.3761,-0.3793,-0.3635,-0.3635,-0.2904,-0.1634,-0.0441,0.1014,0.2573,0.3791,0.5017,0.6191,0.6889,0.7995,0.9213,-0.9347,-0.8988,-0.8542,-0.8211,-0.9113,-0.9501,-0.8453,-0.8319,-0.8367,-0.8441,-0.7875,-0.7529,-0.7714,-0.5968,-0.4332,-0.3231,-0.0627,0.1512,0.2834,0.4528,0.5688,0.6155,0.6383,0.624,0.5674,0.5397,0.5165,0.4961,0.4889,0.4894,0.4958,0.5305,0.5783,0.6382,0.7108,0.7266,0.6978,0.6662,0.6367,0.6071,0.5384,0.527,0.5663,0.7063,0.7778,0.8202,0.9624,1.0107,1.0034,0.9794,0.9371,0.884,0.8404,0.9116,1.0014,0.96,1.0256,1.1066,1.0893,1.0691,1.0496,1.0496,1.0323,1.0059,0.9686,0.9217,0.8555,0.7551,0.5857,0.4326,0.3531,0.2858,0.2491,0.2617,0.2125,0.1715,0.1744,0.0943,0.0219,-0.0134,-0.094,-0.1411,-0.1234,-0.1833,-0.2113,-0.1764,-0.1581,-0.1003,0.0047,0.0234,0.0468,0.0761,-0.0606,-0.1641,-0.2315,-0.3646,-0.4223,-0.4094,-0.4094,-0.3921,-0.3635,-0.3733,-0.3798,-0.3831,-0.3667,-0.3003,-0.193,-0.0814,0.0535,0.2041,0.3333,0.4641,0.5844,0.6535,0.7739,0.9013,-0.932,-0.8631,-0.7921,-0.753,-0.8743,-0.9371,-0.8134,-0.8121,-0.8374,-0.8731,-0.8268,-0.7881,-0.7889,-0.6045,-0.4494,-0.3647,-0.1482,0.0408,0.1759,0.3487,0.4737,0.5337,0.5416,0.5421,0.5347,0.5354,0.5219,0.498,0.4941,0.4959,0.5016,0.582,0.6507,0.7097,0.782,0.7674,0.691,0.6912,0.6463,0.5717,0.527,0.5217,0.551,0.6754,0.7486,0.8035,0.9273,0.9836,0.9936,0.964,0.937,0.9079,0.8616,0.8918,0.9387,0.9035,0.9592,1.0291,1.0246,1.0072,0.9906,0.9906,0.9764,0.9514,0.9182,0.8883,0.8321,0.7064,0.569,0.4526,0.3934,0.3142,0.2609,0.2644,0.2189,0.1707,0.1444,0.1017,0.0571,0.0219,-0.0359,-0.0787,-0.0964,-0.1554,-0.1944,-0.1954,-0.1753,-0.1252,-0.0338,-0.0096,0.0143,0.038,-0.0947,-0.19,-0.249,-0.3731,-0.4256,-0.4136,-0.4111,-0.3975,-0.3765,-0.3831,-0.3928,-0.3988,-0.3667,-0.3023,-0.2171,-0.1107,0.015,0.1505,0.2782,0.407,0.5307,0.6143,0.7363,0.8651,-0.9236,-0.8224,-0.7453,-0.7575,-0.7899,-0.8012,-0.7665,-0.7884,-0.8313,-0.8919,-0.9268,-0.8816,-0.7105,-0.6125,-0.4973,-0.3445,-0.2489,-0.1262,0.0408,0.2216,0.3341,0.362,0.3497,0.3771,0.4495,0.4523,0.4646,0.4899,0.496,0.5004,0.502,0.629,0.7184,0.7737,0.8739,0.8257,0.6724,0.7063,0.6319,0.4922,0.5048,0.5582,0.6282,0.6304,0.7341,0.8797,0.8803,0.9286,0.9858,0.9507,0.9046,0.856,0.8211,0.8259,0.8398,0.8337,0.8689,0.9189,0.9526,0.9528,0.9422,0.9502,0.9449,0.9262,0.8723,0.8512,0.7964,0.6419,0.5519,0.477,0.4043,0.3462,0.301,0.2749,0.2355,0.2004,0.1748,0.1188,0.0839,0.0965,0.0452,-0.0096,-0.055,-0.1154,-0.1606,-0.181,-0.1794,-0.1786,-0.1705,-0.1117,-0.0856,-0.1089,-0.1803,-0.2558,-0.3382,-0.4055,-0.4409,-0.4399,-0.4516,-0.4353,-0.3923,-0.4183,-0.4183,-0.3983,-0.3506,-0.2838,-0.2031,-0.1147,-0.0131,0.1028,0.2102,0.326,0.4474,0.5658,0.6859,0.8032,-0.9102,-0.8663,-0.8267,-0.8216,-0.8976,-0.9386,-0.8726,-0.8871,-0.8384,-0.6517,-0.8164,-0.9111,-0.8107,-0.6844,-0.5496,-0.4042,-0.2787,-0.1548,-0.0328,0.1832,0.3308,0.3847,0.4142,0.4564,0.5164,0.4827,0.4727,0.4901,0.4879,0.5075,0.5483,0.5889,0.6443,0.7106,0.7423,0.7007,0.6108,0.6309,0.5809,0.4916,0.5043,0.5233,0.5531,0.6623,0.7408,0.8052,0.9108,0.9576,0.9648,0.9299,0.8768,0.817,0.7707,0.794,0.8339,0.8041,0.8513,0.9089,0.907,0.8965,0.8855,0.8816,0.8734,0.8523,0.8031,0.7472,0.682,0.6098,0.5446,0.4788,0.4048,0.3528,0.3103,0.2707,0.2374,0.2064,0.1791,0.1577,0.1427,0.1469,0.0883,0.0417,0.0096,-0.0802,-0.1664,-0.2351,-0.2133,-0.1627,-0.087,-0.0766,-0.076,-0.0758,-0.1991,-0.2928,-0.3382,-0.4261,-0.4639,-0.4608,-0.45,-0.4377,-0.4178,-0.4272,-0.4199,-0.3975,-0.3638,-0.3054,-0.2261,-0.1701,-0.0708,0.0585,0.1621,0.2843,0.417,0.5338,0.6711,0.8039,-0.934,-0.9239,-0.8743,-0.7419,-0.7817,-0.8584,-0.9424,-0.8574,-0.7624,-0.6988,-0.8572,-0.9601,-0.919,-0.7087,-0.5095,-0.3615,-0.2468,-0.1272,0.0065,0.163,0.2847,0.36,0.4,0.4463,0.4996,0.4735,0.4691,0.4905,0.5179,0.582,0.6736,0.6436,0.6687,0.7351,0.7097,0.6574,0.5877,0.6025,0.5628,0.4946,0.5064,0.5232,0.5528,0.6528,0.7312,0.7994,0.891,0.9376,0.9496,0.9116,0.856,0.7943,0.7398,0.7611,0.7995,0.7609,0.7945,0.8415,0.8357,0.8269,0.8195,0.8174,0.8031,0.7811,0.7403,0.6747,0.6176,0.5928,0.5327,0.4666,0.4081,0.3523,0.3,0.259,0.2224,0.1966,0.1772,0.1806,0.188,0.1962,0.1575,0.1062,0.0377,-0.047,-0.1426,-0.2603,-0.2215,-0.1657,-0.1068,-0.1178,-0.1273,-0.1435,-0.2674,-0.3543,-0.4034,-0.4604,-0.4829,-0.4766,-0.468,-0.4608,-0.4605,-0.4538,-0.4379,-0.4116,-0.3744,-0.3216,-0.258,-0.195,-0.1054,0.0,0.1105,0.2333,0.3609,0.4833,0.6301,0.7732,-0.985,-0.9887,-0.8953,-0.5864,-0.5143,-0.611,-0.9432,-0.7397,-0.657,-0.9656,-1.0122,-1.0125,-1.0008,-0.6844,-0.4087,-0.2507,-0.1689,-0.0492,0.1331,0.1705,0.2217,0.3036,0.3336,0.3728,0.4249,0.4358,0.4598,0.4983,0.5869,0.7017,0.8411,0.7654,0.7616,0.8131,0.7507,0.675,0.5936,0.6071,0.5694,0.5024,0.5127,0.5541,0.6109,0.6217,0.7194,0.8488,0.8399,0.8855,0.9411,0.8925,0.8375,0.7793,0.7244,0.725,0.7417,0.7084,0.7156,0.736,0.754,0.753,0.748,0.753,0.7393,0.7148,0.6798,0.6321,0.5897,0.578,0.5144,0.4468,0.414,0.3421,0.2768,0.2408,0.1976,0.1676,0.1742,0.1945,0.2185,0.242,0.2417,0.1794,0.0282,-0.0146,-0.0985,-0.2517,-0.2129,-0.1907,-0.2103,-0.2131,-0.2368,-0.2857,-0.3592,-0.4377,-0.5116,-0.5027,-0.4985,-0.4911,-0.5001,-0.508,-0.5068,-0.496,-0.4726,-0.4381,-0.3774,-0.3317,-0.2913,-0.1952,-0.1274,-0.068,0.0553,0.1712,0.2845,0.4224,0.5723,0.7227,-1.0182,-1.0156,-0.9818,-0.8838,-0.6633,-0.5289,-0.6131,-0.7855,-0.9201,-0.9601,-0.9874,-0.9473,-0.7993,-0.6145,-0.4491,-0.3174,-0.1161,0.0589,0.1849,0.2841,0.3494,0.3749,0.412,0.4491,0.4883,0.4663,0.4985,0.5897,0.677,0.7352,0.7647,0.7518,0.7208,0.6775,0.6611,0.6075,0.5317,0.5349,0.5249,0.5128,0.5713,0.6014,0.6232,0.7413,0.8125,0.8548,0.8978,0.9207,0.9184,0.8672,0.8159,0.7607,0.6881,0.694,0.7211,0.6942,0.724,0.7635,0.7375,0.7196,0.7107,0.7086,0.6708,0.6336,0.616,0.5765,0.5428,0.5295,0.4858,0.435,0.3756,0.3229,0.2702,0.2111,0.151,0.1341,0.204,0.2195,0.2413,0.2885,0.256,0.1898,0.0813,-0.0091,-0.1008,-0.195,-0.1954,-0.199,-0.2099,-0.2615,-0.3066,-0.3385,-0.3741,-0.4369,-0.5227,-0.5117,-0.5049,-0.497,-0.5469,-0.5406,-0.4871,-0.5011,-0.4851,-0.4452,-0.3897,-0.3368,-0.2885,-0.2337,-0.1646,-0.0862,0.0053,0.1215,0.2531,0.374,0.5316,0.7032,-1.0033,-0.9915,-0.9757,-0.9514,-0.8173,-0.686,-0.6154,-0.7069,-0.7723,-0.7438,-0.8937,-0.9284,-0.7311,-0.5957,-0.4245,-0.1908,-0.0015,0.1661,0.3107,0.375,0.4072,0.4049,0.4281,0.4524,0.4781,0.4658,0.5119,0.6152,0.7066,0.7676,0.8002,0.8027,0.7811,0.738,0.705,0.666,0.6211,0.5852,0.5702,0.5687,0.5659,0.6061,0.6779,0.7548,0.8317,0.8992,0.9225,0.9169,0.8883,0.8384,0.7861,0.7332,0.6804,0.6877,0.7115,0.69,0.7151,0.7412,0.7095,0.6876,0.6686,0.6513,0.626,0.5944,0.5727,0.5491,0.5246,0.5042,0.4698,0.4253,0.363,0.2966,0.235,0.1844,0.168,0.1853,0.2537,0.3155,0.357,0.359,0.319,0.2442,0.1303,0.0337,-0.0548,-0.1432,-0.1731,-0.2027,-0.2275,-0.2944,-0.3434,-0.3588,-0.4086,-0.4639,-0.5212,-0.5352,-0.5372,-0.5318,-0.5752,-0.5621,-0.5038,-0.5143,-0.4969,-0.4563,-0.4125,-0.3619,-0.3099,-0.2617,-0.1894,-0.0971,-0.0254,0.0871,0.2239,0.3322,0.4892,0.6637,-0.9649,-0.943,-0.9243,-0.9092,-0.9348,-0.915,-0.787,-0.6515,-0.5624,-0.5618,-0.8198,-0.9298,-0.734,-0.6199,-0.4152,-0.064,0.0791,0.2326,0.4298,0.4346,0.4236,0.4128,0.4206,0.4307,0.4431,0.4694,0.5253,0.6137,0.7165,0.8025,0.8687,0.8805,0.8801,0.8659,0.8059,0.7708,0.7554,0.6738,0.6396,0.6337,0.5654,0.6182,0.7407,0.7522,0.8369,0.9483,0.9237,0.8949,0.8589,0.808,0.7533,0.7026,0.6789,0.6891,0.705,0.683,0.6952,0.7095,0.6872,0.6582,0.6291,0.6021,0.589,0.5758,0.5453,0.5302,0.5151,0.4953,0.4602,0.4188,0.363,0.2765,0.2006,0.1663,0.2027,0.2536,0.294,0.4026,0.4636,0.4214,0.3775,0.3011,0.1681,0.0821,0.0,-0.0861,-0.1488,-0.1997,-0.2423,-0.3117,-0.3555,-0.3673,-0.444,-0.4947,-0.5209,-0.5606,-0.5777,-0.5712,-0.5913,-0.5753,-0.5265,-0.5373,-0.5181,-0.4785,-0.4458,-0.4017,-0.348,-0.2874,-0.2054,-0.11,-0.0456,0.0618,0.1943,0.2931,0.4398,0.6096,-0.9194,-0.8985,-0.8829,-0.8913,-0.9214,-0.9428,-0.9421,-0.9141,-0.8959,-0.8948,-0.9432,-0.9135,-0.746,-0.7003,-0.5725,-0.2999,-0.0697,0.1588,0.3925,0.416,0.423,0.4276,0.439,0.4499,0.4571,0.543,0.5995,0.6268,0.7777,0.8554,0.8631,0.9311,0.9273,0.8613,0.8612,0.8237,0.7548,0.6749,0.6405,0.6432,0.691,0.7221,0.7537,0.876,0.9333,0.9447,0.9077,0.8779,0.8428,0.772,0.7233,0.6845,0.6428,0.6628,0.6902,0.6316,0.6712,0.7294,0.6975,0.6573,0.6176,0.5905,0.5648,0.5453,0.534,0.5093,0.487,0.489,0.4511,0.4031,0.3667,0.2867,0.2134,0.1687,0.1737,0.2088,0.2805,0.3436,0.3885,0.3998,0.3516,0.2832,0.1919,0.0742,0.0039,-0.0078,-0.1214,-0.1956,-0.2069,-0.2927,-0.3611,-0.3994,-0.4387,-0.4923,-0.5695,-0.5821,-0.5833,-0.5711,-0.5965,-0.5741,-0.5155,-0.567,-0.5684,-0.5271,-0.4991,-0.4571,-0.4014,-0.312,-0.2237,-0.1355,-0.0519,0.0496,0.1601,0.2541,0.379,0.5221,-0.8783,-0.8852,-0.8908,-0.8891,-0.9184,-0.9421,-0.9473,-0.9508,-0.9568,-0.9691,-0.9202,-0.8294,-0.6868,-0.6431,-0.5416,-0.3367,-0.1326,0.0546,0.2171,0.2504,0.298,0.3725,0.3717,0.3942,0.4475,0.5052,0.5386,0.5485,0.7098,0.7917,0.7984,0.9146,0.9525,0.9245,0.9349,0.9222,0.8891,0.8094,0.7771,0.7784,0.7626,0.7803,0.821,0.8705,0.9089,0.9277,0.8762,0.829,0.7831,0.7295,0.6789,0.6403,0.6575,0.6593,0.656,0.6845,0.6915,0.6883,0.6743,0.6482,0.6237,0.5943,0.5617,0.5358,0.5182,0.4896,0.4672,0.4602,0.4377,0.4058,0.3528,0.2831,0.2276,0.202,0.2355,0.2885,0.3458,0.4307,0.4703,0.4297,0.3827,0.3074,0.192,0.1082,0.0541,0.029,-0.0867,-0.1695,-0.194,-0.2947,-0.3647,-0.3973,-0.4761,-0.5481,-0.6168,-0.6529,-0.6502,-0.6089,-0.643,-0.6136,-0.534,-0.5749,-0.5767,-0.5444,-0.529,-0.4875,-0.4239,-0.3254,-0.2318,-0.1408,-0.0463,0.0545,0.1579,0.2555,0.3633,0.4891,-0.8508,-0.8771,-0.8996,-0.8979,-0.9036,-0.9068,-0.8966,-0.8938,-0.8978,-0.914,-0.8388,-0.7336,-0.6053,-0.5563,-0.4734,-0.3236,-0.1687,-0.042,0.0435,0.0795,0.1558,0.2876,0.2903,0.3421,0.4578,0.4667,0.4834,0.5103,0.6464,0.7145,0.722,0.8521,0.9165,0.922,0.9303,0.9529,0.976,0.8939,0.8744,0.892,0.8178,0.8179,0.8618,0.8486,0.8655,0.8881,0.8261,0.7719,0.7232,0.6865,0.6357,0.5986,0.6564,0.6536,0.6421,0.7183,0.6989,0.6517,0.6512,0.6452,0.6329,0.5974,0.5655,0.5327,0.5049,0.4762,0.4543,0.4344,0.4312,0.4145,0.3584,0.3053,0.2654,0.2544,0.317,0.375,0.4075,0.4894,0.5234,0.452,0.3942,0.3158,0.2004,0.1497,0.105,0.0559,-0.0526,-0.1345,-0.1798,-0.2808,-0.3653,-0.4246,-0.5264,-0.6111,-0.6811,-0.7149,-0.7058,-0.6613,-0.6721,-0.636,-0.5625,-0.5837,-0.5819,-0.5614,-0.5412,-0.5038,-0.4471,-0.3271,-0.2306,-0.1459,-0.0337,0.0669,0.1607,0.2636,0.3579,0.4594,-0.8533,-0.8632,-0.8829,-0.9119,-0.8634,-0.8187,-0.8189,-0.7811,-0.7561,-0.7562,-0.7223,-0.6515,-0.5224,-0.4941,-0.4375,-0.3193,-0.2028,-0.1071,-0.0442,-0.0155,0.055,0.176,0.2279,0.3385,0.5184,0.4879,0.5134,0.5994,0.661,0.6801,0.6576,0.7384,0.7648,0.7486,0.7626,0.8155,0.8932,0.8068,0.8162,0.8904,0.8758,0.8489,0.82,0.8682,0.8619,0.8186,0.7519,0.7128,0.6868,0.6394,0.6057,0.5843,0.6024,0.638,0.6708,0.6538,0.6538,0.6592,0.6512,0.649,0.6399,0.6013,0.5686,0.5397,0.4985,0.4704,0.4485,0.442,0.435,0.4242,0.407,0.3742,0.3445,0.3273,0.3705,0.4078,0.4183,0.4204,0.4221,0.4214,0.3322,0.2645,0.2458,0.179,0.1234,0.0893,-0.0124,-0.099,-0.1605,-0.2276,-0.3499,-0.5331,-0.5764,-0.6532,-0.7685,-0.7261,-0.7102,-0.7235,-0.6459,-0.6034,-0.597,-0.6062,-0.6039,-0.592,-0.5366,-0.51,-0.4915,-0.3162,-0.2178,-0.1635,-0.0193,0.0797,0.1541,0.2678,0.3423,0.4052,-1.052,-0.9526,-0.8501,-0.8627,-0.8171,-0.7768,-0.768,-0.7514,-0.7329,-0.7123,-0.6579,-0.5991,-0.5368,-0.4902,-0.4498,-0.4175,-0.2469,-0.1139,-0.0545,-0.0644,-0.0539,-0.0117,0.1814,0.3181,0.3859,0.4383,0.4703,0.4869,0.5604,0.5881,0.5701,0.6402,0.7156,0.793,0.801,0.8635,0.9566,0.932,0.9414,0.9688,0.9544,0.9206,0.8765,0.8544,0.8121,0.7545,0.6791,0.6301,0.5989,0.5786,0.5547,0.5439,0.5919,0.6034,0.6033,0.627,0.6608,0.6839,0.657,0.6429,0.6307,0.6029,0.5542,0.5063,0.4883,0.4551,0.4277,0.4313,0.434,0.4306,0.409,0.4009,0.3918,0.3822,0.4178,0.4526,0.4718,0.4487,0.4231,0.404,0.3255,0.2531,0.206,0.1708,0.1271,0.0636,-0.0174,-0.0898,-0.1503,-0.248,-0.3783,-0.5451,-0.6113,-0.6894,-0.7845,-0.8062,-0.7886,-0.7288,-0.7045,-0.6693,-0.6254,-0.6319,-0.6307,-0.6206,-0.5515,-0.5172,-0.4951,-0.3003,-0.203,-0.1577,0.0122,0.1104,0.1725,0.2904,0.3647,0.4248,-1.0581,-0.9437,-0.8149,-0.8037,-0.7753,-0.7469,-0.7266,-0.7187,-0.7009,-0.6608,-0.6117,-0.5662,-0.532,-0.43,-0.3935,-0.4635,-0.2666,-0.1226,-0.0811,-0.1065,-0.1185,-0.1113,0.0911,0.2356,0.3045,0.3717,0.4113,0.4222,0.4834,0.5063,0.4961,0.5395,0.6185,0.7242,0.7442,0.8148,0.9196,0.9354,0.9559,0.9763,0.9392,0.8986,0.8534,0.7843,0.7271,0.6764,0.6042,0.5621,0.5382,0.5309,0.5166,0.5117,0.5623,0.5715,0.5725,0.6211,0.6533,0.6659,0.6462,0.6266,0.6111,0.5944,0.5521,0.5039,0.4733,0.4454,0.4256,0.4216,0.4402,0.4469,0.4126,0.423,0.4344,0.4244,0.4464,0.4707,0.4857,0.4445,0.3994,0.3683,0.3029,0.2416,0.1928,0.1784,0.1404,0.0703,0.0027,-0.0748,-0.1643,-0.2745,-0.4018,-0.5416,-0.6317,-0.7101,-0.7807,-0.8427,-0.8314,-0.749,-0.7375,-0.7058,-0.6557,-0.6547,-0.653,-0.6451,-0.5544,-0.5143,-0.4973,-0.2798,-0.182,-0.1494,0.0308,0.13,0.1873,0.3123,0.3912,0.4524,-0.8082,-0.7984,-0.7783,-0.7453,-0.7392,-0.7282,-0.6944,-0.6723,-0.6408,-0.5885,-0.5793,-0.5539,-0.4872,-0.3012,-0.2526,-0.4317,-0.2602,-0.1391,-0.1397,-0.148,-0.1342,-0.0934,-0.0513,0.0802,0.3125,0.3,0.3416,0.4489,0.4484,0.4455,0.4376,0.4316,0.4498,0.4916,0.539,0.6265,0.7402,0.7615,0.8163,0.8815,0.8088,0.7588,0.7214,0.6481,0.6064,0.5818,0.529,0.5136,0.5175,0.5039,0.4961,0.4932,0.5069,0.546,0.5977,0.638,0.6206,0.594,0.6142,0.5996,0.5782,0.5714,0.5648,0.5387,0.4589,0.4496,0.4494,0.4072,0.4483,0.4734,0.4293,0.4474,0.4638,0.4508,0.4513,0.4487,0.4428,0.388,0.3393,0.3128,0.2553,0.2215,0.2285,0.2055,0.1706,0.1232,0.0576,-0.0482,-0.2022,-0.3006,-0.4085,-0.5355,-0.6367,-0.7125,-0.7592,-0.8139,-0.8226,-0.7882,-0.7222,-0.6908,-0.6908,-0.6689,-0.6651,-0.6625,-0.5353,-0.4956,-0.5008,-0.2515,-0.1536,-0.1418,0.0321,0.1323,0.1968,0.3314,0.4181,0.4807,-0.808,-0.7869,-0.7589,-0.7251,-0.7376,-0.7422,-0.7091,-0.6676,-0.6343,-0.6183,-0.5819,-0.5444,-0.5059,-0.3963,-0.3087,-0.2655,-0.1869,-0.1358,-0.1268,-0.3216,-0.3637,-0.1952,-0.0599,0.0559,0.1494,0.2467,0.3007,0.3099,0.3142,0.3173,0.3197,0.2711,0.332,0.4825,0.4683,0.5369,0.6641,0.6847,0.7178,0.7539,0.7163,0.6912,0.6678,0.6072,0.5494,0.4953,0.4756,0.4567,0.4466,0.4713,0.4832,0.4971,0.5387,0.5704,0.5932,0.6037,0.605,0.6002,0.5831,0.5614,0.5467,0.555,0.5194,0.4699,0.4242,0.3975,0.3874,0.4047,0.4103,0.4132,0.4199,0.4311,0.4396,0.4368,0.4711,0.4918,0.4696,0.4128,0.3489,0.2885,0.2211,0.1638,0.1276,0.1127,0.0892,0.0528,-0.0463,-0.146,-0.2392,-0.3433,-0.4409,-0.5293,-0.6343,-0.7062,-0.7394,-0.8018,-0.8107,-0.7675,-0.7476,-0.7374,-0.731,-0.7169,-0.7026,-0.6842,-0.5562,-0.5021,-0.487,-0.2427,-0.142,-0.1217,0.048,0.1346,0.1829,0.3223,0.4114,0.4738,-0.8094,-0.7941,-0.768,-0.7282,-0.7282,-0.7203,-0.6832,-0.6505,-0.6153,-0.576,-0.5127,-0.4745,-0.4853,-0.4142,-0.3395,-0.2687,-0.2702,-0.2706,-0.2627,-0.3725,-0.3917,-0.2908,-0.1187,-0.0031,0.044,0.1414,0.1894,0.183,0.2019,0.2209,0.2372,0.175,0.2342,0.3936,0.3887,0.4403,0.53,0.5802,0.609,0.6191,0.5938,0.5776,0.5659,0.5252,0.4847,0.4478,0.4366,0.4273,0.4211,0.4492,0.4764,0.5069,0.552,0.5709,0.5786,0.5807,0.5787,0.5698,0.5566,0.533,0.5156,0.5175,0.4816,0.4362,0.4012,0.3817,0.3742,0.3911,0.3931,0.3947,0.3999,0.4146,0.4263,0.4223,0.4686,0.4924,0.4609,0.4266,0.367,0.2702,0.2128,0.1542,0.0902,0.0737,0.0393,-0.027,-0.1111,-0.1997,-0.2958,-0.3902,-0.4781,-0.5504,-0.6505,-0.7123,-0.7329,-0.7901,-0.8013,-0.7724,-0.7724,-0.7665,-0.7528,-0.7484,-0.719,-0.6666,-0.5634,-0.4996,-0.4522,-0.2272,-0.1319,-0.1091,0.0609,0.1448,0.1858,0.3264,0.415,0.4788,-0.8108,-0.8108,-0.7955,-0.7469,-0.7123,-0.6794,-0.6418,-0.626,-0.5815,-0.4843,-0.4035,-0.3765,-0.4325,-0.3751,-0.3507,-0.3952,-0.4544,-0.4852,-0.4753,-0.3294,-0.2733,-0.3421,-0.1988,-0.0859,-0.0157,0.0156,0.045,0.0768,0.1139,0.1473,0.1789,0.1216,0.1487,0.2484,0.2945,0.3264,0.3565,0.4475,0.4854,0.4809,0.4547,0.4452,0.4441,0.4273,0.4219,0.4252,0.415,0.4191,0.4293,0.4423,0.4744,0.5166,0.5491,0.5614,0.5614,0.5673,0.5465,0.5254,0.5328,0.5107,0.4827,0.4689,0.4463,0.4204,0.3864,0.3867,0.389,0.3725,0.3855,0.3942,0.3743,0.3951,0.4125,0.4115,0.4498,0.4659,0.4247,0.4299,0.3898,0.2543,0.2214,0.1764,0.0942,0.0654,0.0051,-0.1052,-0.1476,-0.2279,-0.3578,-0.4442,-0.5215,-0.5917,-0.675,-0.7256,-0.7422,-0.7797,-0.7956,-0.7911,-0.794,-0.7826,-0.762,-0.7709,-0.7258,-0.6379,-0.5631,-0.4932,-0.4164,-0.2148,-0.1284,-0.1033,0.0719,0.1564,0.1989,0.3374,0.4214,0.4829,-0.8256,-0.8176,-0.7897,-0.7282,-0.7107,-0.7026,-0.6944,-0.5902,-0.4873,-0.4191,-0.3986,-0.3813,-0.3584,-0.3493,-0.3765,-0.4544,-0.5204,-0.5224,-0.4391,-0.2796,-0.1766,-0.1514,-0.1706,-0.1375,-0.0433,0.0065,0.0367,0.0476,0.0584,0.0783,0.1104,0.0199,0.033,0.1349,0.1185,0.1415,0.1949,0.2725,0.3241,0.3543,0.3825,0.4004,0.4114,0.4228,0.4133,0.3946,0.4174,0.4207,0.4211,0.4704,0.501,0.5224,0.552,0.5633,0.5673,0.5568,0.5492,0.5379,0.5085,0.48,0.4528,0.4291,0.3922,0.3612,0.3578,0.3511,0.3489,0.3655,0.3493,0.3415,0.3709,0.3671,0.3716,0.4112,0.4578,0.4686,0.4112,0.4212,0.3819,0.2481,0.2104,0.1583,0.0676,0.0114,-0.0517,-0.1344,-0.207,-0.2938,-0.4011,-0.5077,-0.5886,-0.6347,-0.6809,-0.7241,-0.7636,-0.7768,-0.7899,-0.7985,-0.8189,-0.8119,-0.784,-0.8011,-0.7809,-0.7242,-0.5999,-0.5356,-0.5024,-0.2553,-0.1435,-0.1105,0.0694,0.1628,0.2105,0.3302,0.402,0.4604,-0.8282,-0.8051,-0.768,-0.7107,-0.6911,-0.6667,-0.6096,-0.5074,-0.4321,-0.4153,-0.3911,-0.3758,-0.3737,-0.364,-0.389,-0.4595,-0.5069,-0.4971,-0.4117,-0.233,-0.1004,-0.0268,-0.0703,-0.0744,-0.0311,0.0,0.0201,0.0313,0.0201,0.0244,0.0397,-0.0444,-0.0487,0.0154,0.0396,0.066,0.099,0.2007,0.2584,0.2864,0.3353,0.3605,0.3709,0.4133,0.4141,0.3926,0.4236,0.4362,0.4475,0.501,0.5234,0.535,0.5614,0.5763,0.5819,0.5763,0.5659,0.5528,0.5214,0.4824,0.4446,0.4252,0.389,0.356,0.3462,0.3349,0.3294,0.3474,0.3233,0.3115,0.3497,0.3468,0.3488,0.3781,0.4316,0.4559,0.411,0.425,0.399,0.2911,0.2408,0.1619,0.0297,-0.0321,-0.0961,-0.1723,-0.2257,-0.3134,-0.4456,-0.5319,-0.6096,-0.6818,-0.7191,-0.7546,-0.7897,-0.8026,-0.8137,-0.8229,-0.8412,-0.8383,-0.8196,-0.8396,-0.807,-0.7251,-0.612,-0.5403,-0.4835,-0.2477,-0.131,-0.0851,0.0841,0.1794,0.2367,0.3437,0.4537,0.5642,-0.8256,-0.7854,-0.736,-0.6878,-0.6522,-0.593,-0.4808,-0.4285,-0.4076,-0.4252,-0.3863,-0.3689,-0.4042,-0.3856,-0.3952,-0.4547,-0.4764,-0.4349,-0.3195,-0.1549,-0.0305,0.0427,0.0313,0.0156,-0.0022,0.0045,0.0112,0.0179,-0.0022,-0.0111,-0.0088,-0.0711,-0.0912,-0.0707,0.0088,0.0419,0.0485,0.1767,0.2398,0.2577,0.3163,0.3395,0.3465,0.4084,0.4215,0.4104,0.435,0.4584,0.4834,0.5215,0.5379,0.5465,0.5737,0.5911,0.5998,0.6016,0.587,0.5649,0.5385,0.4942,0.4486,0.4293,0.4042,0.378,0.3535,0.3393,0.3294,0.3336,0.3165,0.3058,0.3278,0.34,0.3461,0.3465,0.4078,0.446,0.4107,0.4331,0.4233,0.347,0.2747,0.1703,0.0169,-0.0522,-0.1206,-0.2002,-0.2403,-0.3281,-0.4819,-0.5446,-0.6202,-0.7173,-0.7605,-0.7899,-0.808,-0.8274,-0.8431,-0.8534,-0.8607,-0.8591,-0.8514,-0.8715,-0.8171,-0.6992,-0.619,-0.5339,-0.4342,-0.2346,-0.1183,-0.0535,0.0948,0.1957,0.2685,0.3684,0.5138,0.667,-0.8149,-0.7606,-0.7009,-0.647,-0.5649,-0.4815,-0.4115,-0.4244,-0.4268,-0.3856,-0.3786,-0.3716,-0.3605,-0.3647,-0.4048,-0.4952,-0.5049,-0.359,-0.0155,0.0332,0.04,0.0247,0.038,0.0402,0.0247,0.0359,0.0336,0.0111,-0.0156,-0.0156,0.0067,-0.0379,-0.0557,-0.0511,-0.0044,0.0244,0.0463,0.152,0.2211,0.267,0.355,0.3827,0.3792,0.4285,0.4423,0.437,0.4512,0.4783,0.5059,0.5117,0.5292,0.553,0.58,0.5936,0.6016,0.607,0.5907,0.5593,0.5098,0.4824,0.4575,0.4145,0.4009,0.3939,0.3848,0.3723,0.3626,0.3577,0.3429,0.3345,0.3372,0.3584,0.3753,0.3756,0.4359,0.4627,0.402,0.431,0.4365,0.3795,0.2683,0.169,0.0989,-0.0128,-0.1121,-0.1874,-0.286,-0.3856,-0.4856,-0.5833,-0.6625,-0.7187,-0.765,-0.7927,-0.8025,-0.8205,-0.8428,-0.8667,-0.8807,-0.8722,-0.8522,-0.8767,-0.8265,-0.7136,-0.6374,-0.5461,-0.4365,-0.2695,-0.1452,-0.0493,0.0767,0.19,0.2953,0.3904,0.4943,0.597,-0.7546,-0.655,-0.5884,-0.6088,-0.5358,-0.4693,-0.4547,-0.4345,-0.4123,-0.3853,-0.3709,-0.3508,-0.3206,-0.3509,-0.3931,-0.4389,-0.4853,-0.3774,-0.0668,0.0201,0.047,0.0201,0.0669,0.0894,0.0761,0.0704,0.0639,0.0557,0.0133,-0.0109,-0.0187,-0.0393,-0.0489,-0.0421,0.0244,0.0732,0.1121,0.1902,0.2454,0.2864,0.3389,0.3584,0.3563,0.3958,0.4203,0.4382,0.4704,0.4902,0.501,0.5117,0.5282,0.5472,0.5659,0.5893,0.6057,0.6034,0.5767,0.5413,0.5156,0.4785,0.4374,0.398,0.3897,0.3883,0.3862,0.38,0.3696,0.3486,0.3317,0.3217,0.319,0.3156,0.3135,0.3131,0.3529,0.3757,0.3543,0.385,0.3884,0.3306,0.2517,0.1652,0.0745,-0.0191,-0.1144,-0.2106,-0.295,-0.3971,-0.5212,-0.6015,-0.6773,-0.75,-0.7855,-0.8096,-0.8269,-0.8406,-0.8396,-0.8244,-0.8352,-0.8524,-0.8761,-0.8558,-0.8055,-0.7297,-0.6115,-0.5115,-0.4226,-0.283,-0.1434,-0.0059,0.0843,0.2146,0.3591,0.4186,0.5001,0.5942]}]]